GFSMW_850_thetae_000.txt.gz
Theta_e
313 310 308 307 307 306 304 303 302 302 301 302 303 303 303 303 304 303 302 302 302 301 302 301 302 301 302 302 301 300 300 301 303 301 308 313 317 321 319 319 318 319 319
312 310 309 308 307 306 305 304 303 302 302 303 303 302 302 302 302 302 303 303 301 302 301 301 301 301 301 301 301 301 300 300 300 301 301 310 316 318 319 318 318 319 317
312 310 309 308 307 306 306 305 304 303 302 301 301 301 301 301 302 302 302 303 301 302 302 301 301 301 301 301 301 300 300 300 299 300 302 302 308 309 314 318 318 319 319
311 309 309 308 307 307 306 305 304 303 302 300 301 301 302 302 302 301 301 301 301 300 300 301 301 302 301 300 300 299 300 300 300 299 299 302 300 300 301 306 315 316 318
310 310 309 308 308 307 307 305 304 303 302 301 300 302 302 301 301 301 300 301 299 297 297 300 301 301 301 301 301 301 299 299 299 299 299 299 299 299 301 300 302 309 312
311 311 310 309 308 307 305 304 303 303 302 300 299 299 299 301 300 300 300 299 299 299 299 299 299 299 299 299 300 300 300 300 299 299 299 298 298 298 298 301 302 300 302
311 311 310 308 308 307 306 304 303 303 302 300 299 299 298 300 299 298 298 297 297 297 296 296 295 295 295 295 296 296 297 297 297 298 298 298 297 297 297 297 297 298 300
312 311 309 308 307 307 305 304 303 302 302 300 299 299 298 297 297 295 295 294 294 292 291 291 291 291 292 292 292 293 293 294 295 296 297 297 297 296 296 296 296 297 297
312 311 310 308 308 309 307 304 303 302 300 299 298 298 296 295 295 294 293 293 292 292 291 290 289 289 289 290 292 293 294 294 295 295 296 297 297 296 296 296 296 296 296
312 312 311 309 309 308 306 304 302 301 300 299 298 296 296 295 293 292 292 292 291 290 289 289 290 291 291 291 291 292 292 293 293 294 295 296 296 296 295 295 295 296 296
313 312 310 310 309 306 306 305 302 300 299 297 296 295 294 293 292 292 291 291 290 289 290 290 290 290 290 290 290 291 291 292 292 293 294 295 295 296 295 295 295 295 295
312 311 311 309 307 305 304 302 300 298 296 296 295 294 293 292 291 291 291 290 290 289 289 289 289 289 289 289 289 289 290 290 291 292 292 293 294 295 294 294 294 294 294
311 311 311 308 304 302 301 298 297 296 295 295 294 294 293 291 292 291 291 290 289 289 288 288 288 287 287 288 288 288 289 289 290 291 291 292 292 293 293 294 294 293 293
310 310 311 307 302 300 299 297 296 295 296 296 294 292 292 291 291 290 289 289 288 288 287 287 287 287 287 287 287 288 288 288 288 288 288 289 291 292 293 293 293 293 294
311 310 308 305 301 298 297 295 296 296 297 295 293 293 291 291 290 289 288 288 287 286 286 286 286 286 286 287 287 287 286 286 286 286 286 287 287 288 289 291 292 293 293
311 308 305 302 299 297 296 297 298 297 296 294 293 292 291 290 290 288 288 287 286 286 286 286 286 286 286 286 285 283 283 283 284 284 285 285 286 286 286 287 289 291 292
307 307 303 299 297 296 298 298 299 296 294 294 292 291 291 290 289 287 286 286 285 285 285 285 286 286 286 285 283 283 283 283 283 284 285 286 286 286 287 287 287 288 289
306 305 301 297 296 298 299 299 296 295 294 291 291 291 290 289 287 286 285 285 285 285 285 285 285 285 284 284 283 284 283 283 284 284 284 285 285 286 287 287 287 287 289
305 301 300 299 299 299 299 296 295 293 291 291 291 290 289 287 286 285 285 284 284 284 285 284 284 283 284 285 285 285 284 284 284 284 285 285 285 285 286 286 286 287 287
305 302 301 299 299 298 297 294 293 292 291 291 290 291 288 287 285 284 284 284 284 284 284 283 282 283 284 286 286 286 285 284 285 285 285 286 286 286 286 286 285 286 287
304 302 300 299 298 297 295 295 292 291 291 291 291 288 288 286 285 283 283 283 284 283 282 283 283 284 285 286 286 286 286 286 286 286 286 287 287 287 287 287 286 286 287
302 300 297 297 297 296 294 293 291 290 291 290 288 288 287 286 283 283 283 283 283 283 282 282 283 285 286 286 286 285 285 285 285 286 286 286 286 287 287 287 287 286 286
299 297 297 297 296 294 292 291 290 290 290 289 288 287 286 283 282 282 282 283 283 282 282 282 283 284 285 285 285 284 284 284 284 285 285 285 285 287 288 287 287 287 286
298 297 296 295 293 292 291 290 290 290 289 288 288 287 284 283 282 282 282 283 282 281 282 282 283 284 284 284 284 284 284 284 284 284 284 284 285 287 288 288 288 287 286
297 296 294 293 292 291 291 290 290 289 288 288 288 285 282 282 282 282 282 282 281 281 281 282 282 283 283 283 284 283 283 283 284 284 284 284 284 286 288 288 287 287 287
296 295 293 292 291 290 290 290 289 287 288 288 286 283 282 282 282 282 282 282 281 281 282 283 282 283 283 283 284 283 283 283 284 284 283 283 283 284 284 287 288 287 287

GFSMW_850_thetae_003.txt.gz
Theta_e
316 316 315 313 311 311 309 308 308 307 306 306 306 306 307 307 307 306 306 306 305 305 305 304 304 304 304 304 304 304 304 303 303 303 304 303 304 308 315 320 320 322 320
316 316 314 313 312 311 310 309 308 307 307 306 306 307 307 306 306 306 306 306 305 305 305 304 304 303 303 304 304 303 303 303 303 302 302 304 306 309 317 319 319 321 320
315 315 314 313 313 312 311 310 308 308 307 306 306 305 305 305 305 305 305 306 306 306 305 305 304 304 304 303 304 303 303 302 302 302 302 302 304 305 304 310 316 318 320
315 314 313 313 313 312 312 310 309 308 307 306 305 305 305 305 305 305 305 304 304 305 305 304 303 303 303 303 303 303 302 302 302 302 302 302 302 302 303 302 302 305 309
315 314 314 313 313 312 312 311 310 309 307 306 305 304 304 304 304 304 304 304 304 304 303 303 302 302 302 302 301 301 301 302 302 302 302 302 302 302 302 302 302 302 303
315 314 314 313 312 311 312 311 311 309 307 306 305 304 303 304 304 303 303 303 301 301 301 301 300 300 300 300 300 300 300 300 300 301 301 301 301 302 301 301 302 301 302
315 315 314 313 313 311 311 311 310 310 308 306 305 304 304 303 303 303 301 301 300 299 298 298 297 296 295 296 296 296 296 296 297 297 298 298 299 299 300 300 300 300 300
315 315 314 313 312 312 311 311 310 309 308 307 305 304 304 303 302 300 299 298 297 297 296 295 295 294 294 294 294 294 294 294 294 295 295 296 297 298 299 300 300 300 299
315 315 315 314 313 312 311 311 311 310 308 306 305 304 303 301 299 299 297 296 296 295 294 294 294 293 293 293 293 293 293 294 294 295 295 296 296 297 298 299 300 299 299
316 315 314 314 313 312 312 311 310 309 308 305 303 302 300 298 297 296 297 295 294 294 294 293 292 292 292 292 293 293 293 293 293 294 294 295 295 296 297 298 298 299 298
315 314 314 313 313 313 311 309 308 307 306 303 301 299 298 296 297 295 294 294 294 293 292 292 292 292 292 292 292 292 292 292 292 293 293 293 294 295 296 296 297 298 298
315 314 313 313 312 312 309 307 306 304 302 300 298 297 296 295 295 294 294 294 293 292 292 292 291 291 291 291 291 291 291 291 291 291 292 292 293 294 294 295 296 296 297
314 313 312 313 312 310 307 305 304 302 300 298 297 296 295 295 295 294 294 293 292 292 291 291 290 290 290 290 290 290 290 290 290 290 291 291 292 292 293 294 294 296 296
313 312 312 312 311 309 306 303 302 300 298 297 296 296 296 295 294 293 293 292 292 291 290 290 289 289 289 289 289 289 289 289 289 289 289 289 290 290 291 292 293 294 295
313 312 311 310 310 307 304 302 300 298 297 297 297 297 296 295 294 293 292 292 291 290 289 288 289 289 288 288 288 288 288 288 287 287 286 287 287 287 287 289 290 292 293
312 311 310 309 309 304 302 301 299 298 298 299 298 296 295 294 293 292 291 291 289 288 288 288 288 288 288 288 287 287 286 285 284 284 284 285 285 285 286 286 286 287 289
312 310 308 308 307 303 300 299 299 300 299 297 296 295 294 293 292 291 291 289 288 288 288 288 287 287 287 287 286 285 284 284 284 284 284 285 285 286 286 286 286 286 287
308 307 307 307 304 301 300 300 300 299 297 297 295 293 292 292 291 290 289 288 288 287 287 287 286 286 286 285 284 284 283 283 284 284 284 285 285 285 286 286 287 287 287
307 307 306 306 303 301 301 300 299 297 296 294 293 292 291 291 290 289 288 287 287 287 286 286 286 285 284 284 285 285 285 284 284 284 284 285 286 286 286 286 286 286 287
306 306 305 304 302 300 298 298 297 295 295 293 292 291 291 289 288 288 287 286 286 286 285 284 284 284 283 285 285 286 286 286 286 286 286 286 286 286 286 286 286 286 286
305 304 303 302 299 299 298 296 295 295 293 291 291 290 289 288 287 286 286 286 285 285 284 284 283 283 284 285 285 285 285 285 285 285 285 286 287 287 287 287 287 287 287
304 302 300 300 299 298 297 295 295 293 291 291 290 289 289 288 286 286 285 285 285 285 284 283 283 283 284 284 285 285 285 284 284 284 284 285 286 286 286 286 286 287 287
301 300 299 299 298 296 294 293 292 291 290 290 289 289 288 287 286 285 285 284 285 284 283 282 282 283 283 284 284 284 284 284 284 285 285 284 285 285 285 286 287 286 286
299 298 298 297 296 294 292 291 291 291 290 289 288 288 287 285 285 284 284 284 284 283 283 282 282 282 283 283 283 284 284 283 284 284 285 285 285 285 287 289 289 288 286
298 297 297 296 294 293 291 290 290 290 288 288 287 287 286 285 284 284 284 283 283 283 281 281 281 282 282 282 283 283 283 283 283 285 285 285 285 286 287 289 288 287 287
297 297 296 294 293 292 290 290 290 288 287 288 287 286 284 284 284 284 283 283 282 281 281 282 281 281 282 283 284 284 284 284 284 284 284 284 284 284 285 288 288 287 287

GFSMW_850_thetae_006.txt.gz
Theta_e
317 317 317 316 315 313 313 311 310 310 309 308 308 307 308 308 308 308 307 307 307 306 305 305 305 305 305 304 304 304 304 303 303 303 303 303 303 304 306 308 312 316 319
317 317 317 316 315 314 312 312 310 309 309 308 307 307 307 308 308 307 307 307 306 305 305 305 304 304 304 303 304 304 304 303 303 303 302 303 303 303 307 308 312 317 318
315 315 315 315 315 314 314 312 311 310 309 308 308 307 307 307 307 306 306 306 305 306 306 306 305 304 304 304 304 303 303 303 303 302 302 303 304 303 302 302 302 304 305
316 316 315 314 314 314 314 314 313 311 310 309 308 307 307 306 306 305 305 305 306 306 306 305 305 304 303 303 303 303 303 303 302 302 303 303 303 303 303 303 302 302 301
316 315 315 315 315 313 313 313 312 312 311 310 309 308 307 306 305 306 305 304 304 304 304 304 304 303 303 302 302 301 299 299 301 302 302 302 302 302 302 303 303 303 303
316 315 316 315 314 314 312 312 312 312 311 310 310 308 307 306 305 304 304 304 304 303 303 302 301 301 301 301 300 297 298 298 297 298 298 300 300 301 301 301 301 302 302
316 316 315 315 314 314 313 312 312 312 311 311 310 309 307 306 305 304 304 303 303 302 301 300 299 299 299 296 294 293 293 293 293 294 294 295 296 297 298 298 298 298 298
316 316 316 316 315 314 314 313 312 311 312 311 311 309 308 306 305 304 304 302 301 300 299 298 296 295 294 293 292 292 292 292 292 294 295 295 296 297 297 297 299 299 298
317 317 316 315 314 314 314 314 313 312 312 311 311 310 307 306 304 304 302 301 298 297 296 295 295 295 293 292 292 292 292 293 293 293 294 294 295 296 297 296 296 297 298
317 316 315 315 314 314 313 312 312 311 310 309 309 308 306 305 304 301 299 297 297 297 295 295 294 292 291 291 291 291 292 292 292 292 293 294 294 294 295 295 296 297 298
317 316 315 314 313 313 312 311 310 309 308 307 307 306 304 302 300 299 297 297 295 295 294 294 292 291 291 291 291 291 291 292 291 291 292 292 292 292 292 294 294 295 296
315 314 313 313 313 312 311 311 309 307 306 305 303 303 301 299 297 295 295 296 295 294 294 292 292 292 291 291 291 291 291 291 291 291 291 291 291 292 292 293 293 294 295
314 314 313 313 312 311 311 310 307 305 304 302 300 299 298 296 295 296 296 296 294 293 292 292 292 291 291 290 290 290 290 290 290 290 290 290 290 291 291 292 292 293 293
314 313 312 312 311 310 309 309 305 303 302 300 299 297 296 296 296 296 295 294 293 292 292 292 291 290 289 289 289 289 289 289 289 289 289 290 290 290 290 290 291 291 291
313 313 312 311 309 309 309 306 304 302 301 299 298 297 297 297 297 295 294 293 292 292 291 290 289 289 289 288 288 288 288 288 288 288 288 288 288 288 288 288 288 288 289
312 311 310 308 308 308 308 304 301 301 299 298 299 299 298 296 295 294 293 292 292 291 289 289 288 288 288 288 287 287 287 287 286 286 285 284 284 284 285 285 285 286 286
311 311 309 307 308 307 305 303 300 300 300 300 299 297 296 295 294 293 292 291 290 289 288 288 288 287 287 287 287 286 286 285 285 284 284 284 284 284 285 285 286 286 286
310 308 307 307 307 306 305 303 302 301 300 298 297 296 295 293 293 292 291 289 289 288 288 287 287 286 286 285 284 284 285 285 285 285 285 285 284 284 285 285 285 286 286
308 306 306 306 305 303 303 302 301 300 298 297 295 294 293 292 292 291 289 288 288 287 286 286 286 285 284 284 284 284 285 285 286 286 286 286 286 286 286 285 286 286 286
306 306 305 305 302 302 300 299 299 298 296 295 294 293 292 291 290 289 288 287 287 286 286 285 285 284 283 284 284 285 285 285 286 285 285 285 285 285 286 286 286 286 286
305 305 304 301 301 300 299 298 296 296 296 294 292 291 291 290 289 288 287 286 286 285 285 285 284 283 283 283 284 284 284 284 284 284 285 285 285 285 285 287 287 287 287
304 304 301 300 299 299 298 296 295 293 293 292 291 290 290 289 288 287 286 285 285 285 285 284 283 283 282 283 283 283 283 284 284 284 284 284 285 285 285 285 286 286 286
304 301 300 300 298 297 295 294 294 293 292 291 290 289 288 288 287 286 285 285 285 284 283 283 282 282 282 282 283 283 284 284 284 284 284 284 285 285 286 286 286 286 285
301 299 299 298 297 296 293 293 292 292 291 289 288 288 288 287 287 285 285 284 284 283 283 282 282 282 282 282 283 283 284 285 284 284 285 285 286 286 286 287 289 289 289
298 298 298 297 296 294 293 291 291 290 289 288 287 288 288 287 285 285 284 284 283 282 282 282 282 282 281 282 283 284 285 284 284 284 284 284 284 284 285 288 288 287 287
297 298 297 295 294 293 292 291 290 289 288 287 287 287 286 285 285 284 283 283 282 282 282 282 282 281 282 282 283 284 285 284 284 284 283 283 283 283 284 286 288 288 287

GFSMW_850_thetae_009.txt.gz
Theta_e
317 317 317 316 316 315 314 314 313 312 311 310 309 309 308 308 307 309 309 308 308 307 306 305 305 305 304 304 304 303 304 303 303 303 302 302 302 303 302 306 305 305 312
316 316 316 316 315 315 315 314 313 312 311 310 309 309 308 307 307 307 308 308 307 307 306 305 305 305 304 304 304 303 303 303 303 302 303 302 301 301 303 303 303 304 303
315 315 315 315 314 314 314 314 314 313 312 311 309 309 308 307 307 308 308 307 307 307 306 306 305 305 305 304 304 304 303 302 303 303 302 302 302 302 302 302 302 302 302
315 315 315 315 314 314 314 314 313 313 313 312 310 309 309 308 307 307 307 306 306 305 305 306 306 305 305 303 303 303 302 303 302 300 298 299 301 303 302 301 302 302 302
315 315 315 315 314 314 313 313 312 312 312 311 311 310 309 309 308 307 306 306 305 305 306 306 306 305 304 304 303 303 302 301 299 297 299 300 300 300 300 300 299 300 299
315 315 316 316 316 315 314 313 313 312 312 312 311 311 311 310 309 308 306 306 305 304 305 305 304 303 303 302 301 300 300 296 294 294 293 294 294 295 296 297 298 298 298
315 316 316 316 315 315 314 314 313 313 313 313 312 312 311 311 310 309 307 305 305 304 303 302 301 300 300 300 299 298 296 296 293 291 291 291 291 292 293 294 295 295 295
316 317 316 315 315 314 313 313 313 313 313 312 312 312 311 311 311 310 307 305 304 303 301 301 300 298 297 299 299 296 293 291 291 292 291 292 291 292 293 294 295 296 295
317 317 316 315 314 314 313 313 313 313 312 311 310 310 309 308 310 308 305 305 303 300 299 299 296 296 298 297 293 293 291 291 291 291 291 292 292 292 292 292 293 294 295
316 315 314 314 313 313 313 313 312 312 310 309 308 307 307 307 307 306 304 302 300 299 298 297 298 297 293 293 292 290 291 291 291 291 291 292 291 292 293 293 294 295 295
314 314 314 313 313 312 312 312 311 309 309 307 306 305 305 305 304 303 300 299 300 300 298 298 294 293 292 292 291 292 291 291 291 291 291 291 291 291 291 292 292 293 293
314 313 313 312 312 311 311 311 309 308 307 304 304 304 303 303 301 300 299 297 296 296 296 294 293 292 292 292 292 291 291 290 290 290 290 290 290 290 290 290 291 291 291
313 313 313 312 311 310 308 308 307 308 306 303 303 302 301 300 298 297 295 296 296 296 293 292 292 292 292 291 290 289 288 289 289 289 289 289 289 289 289 289 290 290 290
313 313 312 311 310 310 307 307 308 307 305 302 301 300 298 297 296 295 296 295 295 293 293 292 292 291 290 289 289 288 288 288 288 289 289 289 289 289 289 289 289 289 290
312 311 310 310 307 306 307 307 307 306 301 300 299 297 296 296 296 297 297 294 293 293 292 292 291 290 288 288 288 288 288 288 287 287 287 287 287 287 287 287 286 286 286
311 310 309 309 306 306 308 307 306 304 301 299 299 298 298 299 298 296 295 294 293 292 291 291 289 288 288 287 287 287 287 286 286 286 286 286 285 285 286 285 285 285 284
310 310 309 307 306 307 306 305 303 302 302 301 300 299 299 297 295 294 293 293 292 291 289 288 288 287 287 287 286 285 285 284 284 284 285 285 286 286 286 285 285 285 285
310 309 306 305 306 305 304 302 301 301 301 299 297 296 295 295 293 293 292 292 290 289 288 287 286 286 286 285 284 284 284 284 284 285 285 285 285 285 286 286 286 286 286
309 307 306 305 304 304 301 299 298 298 297 297 296 294 294 293 293 291 291 289 289 288 286 286 285 285 285 284 283 283 284 284 284 284 284 284 286 285 285 285 285 285 285
308 306 305 304 304 301 300 299 298 296 296 295 294 294 293 292 291 290 289 288 287 286 285 285 285 285 284 283 282 283 284 283 284 283 284 284 284 284 284 285 285 285 285
307 305 304 303 301 300 299 298 296 295 295 294 293 292 291 290 290 289 288 287 286 285 285 284 284 283 282 282 282 283 283 283 283 284 284 284 284 284 284 285 285 285 285
306 304 303 300 300 299 297 295 294 293 293 293 291 290 289 289 288 287 287 286 285 284 284 283 282 282 282 282 282 283 283 284 284 284 284 285 285 285 284 285 285 285 285
303 302 299 299 299 296 295 294 294 293 292 291 289 288 288 287 287 287 285 285 284 284 283 282 282 282 282 282 283 283 284 284 284 284 284 284 285 285 286 286 286 286 286
299 298 298 297 296 295 294 293 293 292 291 289 288 287 287 287 287 285 284 284 284 283 282 282 282 282 282 282 282 283 284 285 284 284 284 283 283 284 284 285 287 288 288
297 297 297 296 295 294 293 292 291 291 290 289 287 287 287 286 285 284 284 283 282 282 281 282 282 282 281 282 282 283 284 285 284 283 282 282 282 283 285 287 288 287 287
298 297 294 294 294 293 292 291 291 291 289 287 286 286 286 285 283 283 282 282 282 282 281 282 282 281 281 282 282 283 284 284 283 283 282 282 282 282 284 286 287 287 287

GFSMW_850_thetae_012.txt.gz
Theta_e
317 316 317 316 316 315 315 315 314 313 312 312 311 310 310 309 308 309 308 307 308 308 308 307 306 305 305 305 304 304 303 302 302 302 302 300 300 300 299 300 300 305 305
316 316 316 316 315 315 314 314 314 313 313 312 311 311 310 309 309 308 307 307 308 308 308 307 307 305 305 304 304 304 303 303 302 301 302 302 300 299 299 298 298 298 299
315 315 315 315 314 314 314 314 313 313 313 313 312 312 311 310 309 309 308 307 307 308 308 307 307 306 305 305 304 304 304 303 302 301 303 301 300 297 298 299 299 299 297
315 315 315 314 314 314 314 313 313 313 312 312 312 312 311 311 311 310 309 308 307 307 307 307 306 306 305 305 304 304 303 303 303 302 302 297 297 299 299 298 297 296 297
315 315 315 315 315 315 314 314 314 313 312 312 312 312 312 311 311 311 310 309 307 306 306 306 306 306 305 305 303 303 302 302 299 295 295 295 295 293 293 295 294 293 293
315 315 315 315 315 315 315 315 314 313 313 313 313 313 313 313 312 312 311 311 309 307 306 305 306 306 305 305 304 303 301 299 300 300 299 296 293 291 292 294 294 294 292
315 315 316 316 315 315 314 313 313 313 313 313 313 312 311 311 311 312 311 311 309 307 306 305 306 305 302 303 302 300 299 299 299 299 294 291 291 291 292 293 294 294 294
316 316 315 315 314 314 313 313 313 313 312 312 312 311 309 309 309 308 308 308 308 304 303 303 302 300 299 300 298 298 299 299 296 293 292 291 291 291 292 293 293 294 294
316 314 314 313 313 313 313 312 312 312 311 311 310 308 308 307 306 306 306 308 305 302 301 301 299 301 301 300 300 296 295 293 292 291 290 291 291 291 291 292 292 293 294
314 314 313 313 312 312 312 311 311 310 309 308 308 307 306 305 305 304 304 304 303 299 298 298 299 299 297 296 295 293 292 292 291 291 291 291 291 291 291 291 291 291 292
313 313 313 313 312 312 310 309 308 307 307 307 307 306 304 304 303 303 303 301 299 298 300 300 297 296 294 293 292 292 292 292 291 291 291 290 289 290 290 290 290 290 290
313 313 313 312 311 308 308 307 305 307 306 306 305 304 302 302 302 301 300 299 298 298 296 295 293 292 292 292 292 292 291 290 289 288 288 288 288 289 289 289 289 289 289
313 313 311 310 309 307 307 306 306 307 307 306 303 302 301 300 299 298 298 296 296 296 295 293 293 292 292 292 291 290 289 288 288 288 288 288 288 288 288 288 289 289 289
312 311 309 309 308 307 306 306 307 307 306 303 301 299 298 297 296 295 295 296 295 294 293 292 292 292 291 291 289 288 288 287 288 288 288 288 287 287 287 287 287 287 287
312 311 309 307 308 305 304 306 306 305 304 302 301 298 297 296 296 296 296 296 296 295 292 292 291 291 290 288 288 287 287 287 287 286 286 286 286 286 286 286 286 285 285
312 310 308 308 307 305 305 305 304 302 300 300 301 300 298 298 297 298 294 293 292 292 292 292 290 288 288 287 286 286 286 286 285 284 284 284 284 285 285 285 285 285 285
310 308 309 309 306 305 305 304 302 299 298 299 299 299 298 296 294 293 293 292 292 292 291 289 288 287 286 286 286 285 284 284 284 283 284 284 284 285 285 285 285 285 285
308 308 309 307 306 305 304 302 299 297 297 296 296 296 295 295 293 292 292 291 291 289 289 288 287 286 285 285 284 284 283 283 283 284 284 284 284 284 284 284 285 285 285
308 306 308 306 305 303 302 300 299 297 297 296 296 295 293 292 292 292 291 290 289 288 287 286 285 285 284 284 283 283 282 283 283 283 283 283 284 284 284 283 284 284 284
305 307 307 305 303 302 300 299 299 296 296 295 294 293 292 292 290 289 289 288 287 287 286 285 284 284 283 283 282 282 283 283 283 284 284 284 284 284 284 284 284 284 284
307 306 305 303 301 299 298 296 294 293 293 293 293 292 290 289 289 288 287 287 286 285 284 284 283 282 282 282 282 283 282 283 283 284 284 284 284 284 285 285 284 284 284
300 301 300 299 298 299 297 296 293 294 293 292 291 289 288 287 287 287 287 286 285 284 283 283 282 282 282 282 282 282 283 283 284 284 284 284 284 284 284 285 285 285 285
297 297 297 297 297 296 295 295 294 293 292 291 289 288 287 287 287 287 285 284 284 283 282 281 281 282 282 282 282 282 283 284 285 284 283 282 282 282 283 284 284 285 285
297 297 297 297 296 295 294 293 293 291 291 290 290 288 287 286 286 285 283 283 282 282 281 281 281 282 281 282 282 282 283 284 284 283 282 282 282 283 284 286 287 287 287
296 297 296 293 293 293 292 292 291 291 290 289 287 286 286 286 285 284 283 282 282 281 281 280 281 281 281 281 282 282 283 283 284 283 282 281 282 283 284 286 287 287 287
295 294 293 293 293 291 291 291 290 288 287 287 286 286 285 285 284 283 282 282 281 281 280 280 281 280 280 281 281 282 283 283 283 282 281 281 281 282 283 284 286 286 287

GFSMW_850_thetae_015.txt.gz
Theta_e
316 316 316 316 317 316 315 315 314 314 313 313 312 312 311 311 311 310 310 309 308 307 307 307 308 307 307 306 305 305 304 304 303 302 302 302 302 303 301 300 299 299 298
316 316 315 315 316 315 315 314 314 313 313 313 312 312 312 312 311 311 310 309 309 309 308 307 307 307 307 307 306 305 305 304 304 302 302 301 302 302 301 300 299 298 298
315 315 315 315 315 314 314 314 314 313 313 313 313 312 312 312 312 311 311 311 310 309 308 307 307 307 307 307 306 305 304 304 304 303 302 302 301 300 301 300 299 298 297
314 314 314 315 315 315 315 315 314 314 313 313 312 312 312 312 312 312 312 312 311 309 308 307 307 307 308 307 305 304 304 303 304 303 303 301 297 295 294 297 297 296 296
315 315 315 315 315 315 315 315 315 313 313 312 312 313 313 313 312 312 312 311 311 311 308 307 307 307 308 306 304 304 303 304 303 301 298 296 296 296 295 294 296 295 292
315 315 315 315 315 315 314 313 313 312 313 314 314 313 312 312 312 311 309 309 310 310 310 309 306 308 307 305 304 303 302 300 300 300 299 299 296 294 292 292 292 291 291
315 314 314 314 314 314 313 313 313 313 313 313 313 312 311 310 310 309 307 307 307 307 307 307 305 306 305 305 302 300 299 299 300 300 299 299 299 295 292 291 291 292 292
315 314 315 314 313 313 313 312 312 312 312 311 310 310 308 307 307 306 305 305 305 306 306 305 304 303 300 297 298 298 299 300 299 299 296 294 292 291 291 291 292 291 292
313 313 313 313 313 312 312 312 311 310 309 307 306 306 306 305 306 306 304 303 303 305 303 300 299 297 297 298 299 299 298 297 294 292 292 291 291 291 291 291 290 291 292
313 313 313 312 312 311 310 308 307 306 305 306 305 305 305 303 304 304 303 303 303 303 300 298 297 298 299 299 297 294 293 292 292 292 292 291 291 290 290 289 289 290 290
313 313 313 312 310 309 308 307 307 305 305 305 306 306 302 302 302 302 302 302 300 298 297 298 299 298 293 293 292 292 292 292 292 291 291 289 288 287 287 287 288 288 289
313 312 312 311 309 307 308 306 305 304 304 306 306 304 302 301 301 301 300 299 298 298 298 298 295 293 292 292 292 292 292 290 290 289 288 287 287 287 287 288 288 288 288
312 312 312 311 309 307 307 305 304 303 305 305 303 302 301 300 299 298 297 297 296 295 295 294 293 292 292 292 291 291 290 289 288 288 287 287 287 287 287 287 287 287 287
311 312 312 309 308 308 307 304 303 304 304 303 302 300 300 298 297 295 295 295 294 294 294 295 292 292 292 291 290 289 288 287 287 286 286 286 286 286 286 286 286 285 285
311 312 310 308 307 309 306 305 304 304 303 301 299 300 299 297 295 295 295 295 295 294 292 292 292 291 291 289 288 287 286 286 286 286 285 285 285 284 284 284 284 284 285
310 309 307 307 306 306 306 305 304 303 301 298 297 298 298 297 296 295 293 293 293 293 292 292 291 290 288 287 286 285 285 285 284 284 284 284 284 284 284 284 284 285 285
307 305 302 304 304 306 306 305 303 301 298 296 296 295 295 294 294 294 294 293 293 291 290 289 288 287 286 286 285 284 284 284 283 283 283 283 283 283 283 284 284 284 284
303 302 301 303 306 307 305 303 301 300 298 297 297 296 296 295 293 292 291 290 290 289 288 288 287 286 285 284 284 283 283 283 283 283 283 283 283 283 283 283 283 284 284
303 303 304 305 306 304 302 300 298 299 296 296 294 293 293 293 293 291 290 289 288 287 287 286 285 284 284 283 282 283 282 283 283 283 283 284 284 284 284 284 284 284 284
304 301 299 300 300 299 299 298 297 293 294 293 293 292 292 291 289 289 288 287 287 286 286 285 284 283 282 282 282 282 282 283 283 283 284 284 284 284 284 284 284 284 284
298 296 296 297 298 297 298 298 295 294 293 293 292 291 289 288 287 287 287 287 286 285 284 283 283 282 282 282 282 282 282 282 283 283 284 284 283 283 283 284 283 283 285
296 296 296 296 297 296 296 296 294 294 292 292 291 290 289 288 287 286 286 285 284 284 283 282 282 281 281 282 282 282 282 283 283 284 284 283 282 282 282 282 283 283 284
295 296 295 296 295 296 295 294 292 292 292 290 290 290 288 286 286 286 285 284 283 282 282 281 281 281 281 281 282 282 282 283 283 284 283 283 282 282 283 284 284 285 285
295 296 295 294 293 293 292 292 291 291 290 290 289 287 286 286 285 285 284 283 282 282 281 281 280 281 281 281 281 281 282 282 283 283 283 281 281 283 284 285 286 287 287
295 295 294 293 292 292 291 291 291 290 289 287 287 286 286 285 285 284 284 282 282 281 280 280 280 280 280 280 280 281 281 282 282 282 282 281 281 282 283 284 285 286 286
294 294 293 292 292 292 291 290 289 287 287 287 286 286 285 285 284 283 283 282 281 280 280 279 280 279 280 279 280 281 281 282 282 282 281 280 280 281 282 283 284 285 285

GFSMW_850_thetae_018.txt.gz
Theta_e
315 316 316 316 316 318 317 315 314 314 314 313 312 312 312 312 312 312 311 311 311 310 309 309 308 307 307 307 307 307 306 306 305 304 304 304 303 303 302 302 302 301 301
315 316 316 315 315 316 315 315 314 314 313 313 313 312 312 312 312 312 312 312 312 311 311 310 309 308 307 307 307 307 307 306 306 305 304 304 304 304 303 302 302 302 301
315 315 315 315 315 315 314 314 314 313 313 312 312 312 312 312 312 312 312 312 312 311 311 310 309 308 307 307 307 307 307 307 306 305 304 303 303 303 302 301 301 302 301
314 315 315 315 315 314 314 314 314 313 312 312 312 312 312 312 313 312 311 311 311 310 309 310 310 309 307 307 307 307 307 306 305 304 303 303 303 302 301 300 299 299 300
314 314 314 314 314 313 313 313 312 312 312 312 313 313 313 313 312 311 311 309 308 308 308 308 307 309 308 307 308 308 306 305 304 304 303 302 301 298 297 296 297 296 298
314 313 313 313 313 313 312 312 312 313 313 313 313 312 311 311 310 309 308 307 307 307 306 306 306 306 307 306 306 306 304 304 303 302 299 298 297 295 294 294 296 298 300
314 312 313 313 313 313 313 313 312 312 312 312 311 310 308 306 306 305 304 304 305 305 304 303 303 305 305 304 303 302 300 298 298 298 298 298 299 298 297 295 294 292 292
313 313 313 313 312 312 312 312 311 311 310 308 306 305 305 304 303 302 301 303 304 303 303 303 303 304 302 300 298 298 297 298 299 299 299 298 297 294 292 292 291 291 291
312 312 312 312 312 312 311 309 309 307 306 305 304 305 304 304 302 301 300 302 302 302 302 302 301 300 298 298 298 298 299 297 296 295 294 293 292 292 291 291 291 290 290
313 313 312 312 312 311 308 307 307 305 304 303 302 303 303 302 302 301 300 301 302 301 301 299 298 297 298 298 298 297 293 293 292 292 292 291 291 290 289 288 288 287 288
312 311 311 311 311 310 308 307 306 303 302 301 301 301 301 300 300 300 300 300 299 299 297 297 298 298 297 293 292 292 292 292 292 291 290 289 288 287 287 287 287 287 288
311 311 311 311 311 309 307 307 304 302 303 302 302 301 300 299 299 299 298 297 296 296 296 297 294 293 293 292 292 292 292 291 290 290 288 287 287 287 287 287 287 287 287
311 310 310 311 310 306 305 307 307 305 304 304 303 301 299 298 299 296 296 295 295 295 295 296 295 294 293 292 292 291 290 289 288 287 287 286 286 286 286 286 286 286 286
310 310 310 308 304 302 302 303 304 306 305 303 301 299 297 297 296 295 295 294 294 294 294 293 292 292 291 291 290 289 288 287 287 286 286 285 285 285 285 284 284 284 284
310 309 307 303 302 302 302 304 306 305 303 302 299 297 296 297 297 295 294 295 294 292 292 292 292 292 291 290 288 287 286 286 286 285 285 284 284 283 284 283 284 284 284
307 305 303 302 302 303 305 305 304 303 301 299 297 296 295 296 294 294 294 294 294 294 293 292 290 289 288 287 286 286 285 284 284 283 283 283 283 283 283 283 283 283 284
305 303 302 302 304 304 303 303 301 300 298 298 298 298 296 296 295 294 292 292 291 290 289 289 288 287 286 285 285 284 283 283 282 283 283 283 283 283 283 283 283 282 283
302 302 303 300 297 296 296 297 299 298 297 297 296 296 294 293 293 292 292 290 289 288 288 287 286 286 285 284 283 282 282 282 282 282 283 283 283 284 284 284 283 283 283
302 302 297 296 296 297 296 296 297 297 295 294 293 292 292 292 291 290 288 288 287 287 286 286 285 284 283 283 282 282 282 282 282 283 283 283 284 284 283 283 283 283 284
301 296 295 295 296 296 296 296 296 295 294 292 292 291 290 289 288 287 287 287 286 286 285 284 283 283 282 282 281 281 282 282 282 282 283 283 284 283 283 283 283 283 284
297 296 295 295 295 295 296 296 295 295 292 291 291 291 290 289 288 286 286 286 285 284 284 283 282 282 281 281 281 281 281 281 282 282 283 283 283 283 283 282 282 282 282
297 295 294 294 294 294 294 295 294 293 292 291 290 290 289 287 286 286 285 285 284 283 283 282 282 281 281 280 280 281 281 282 282 282 283 283 283 282 282 283 283 283 284
295 294 293 295 294 293 292 292 292 291 291 290 290 289 287 286 285 285 284 284 284 283 282 281 281 280 280 280 280 281 281 281 282 282 282 282 282 281 282 284 284 285 285
295 293 293 294 292 292 291 291 291 291 290 289 287 287 286 286 285 285 284 283 282 282 281 280 280 279 279 279 280 280 280 281 281 282 282 282 281 281 282 284 284 285 285
294 293 293 293 292 292 292 291 290 289 288 287 287 286 286 285 285 284 283 282 281 281 280 279 279 279 278 279 279 279 280 280 281 281 282 281 281 281 282 283 284 284 285
294 293 292 292 292 292 292 290 289 288 287 287 287 287 286 285 284 283 283 282 281 280 280 279 278 278 278 278 278 279 280 280 281 281 281 280 280 280 280 281 282 283 284

GFSMW_850_thetae_024.txt.gz
Theta_e
319 318 322 321 317 316 318 323 324 322 318 317 316 317 316 314 313 313 312 311 312 313 313 312 312 312 314 315 314 314 315 315 313 311 310 309 309 309 308 308 307 306 306
317 316 316 314 314 315 317 318 317 316 316 315 313 312 311 312 312 313 313 313 312 312 311 310 310 311 312 313 313 314 314 314 313 312 311 310 310 310 309 308 307 307 306
316 315 315 314 314 314 314 314 314 314 313 312 313 313 313 313 313 312 312 311 310 307 306 304 304 304 306 310 311 312 312 313 313 312 311 311 310 310 310 309 308 307 306
315 314 315 314 313 313 312 312 312 312 312 312 312 311 312 312 312 311 310 310 308 306 304 304 304 304 306 308 309 309 310 311 311 312 312 311 310 310 310 308 307 306 305
315 314 314 314 314 312 312 312 313 312 311 311 312 315 314 312 311 313 311 307 306 305 304 305 300 301 303 305 305 307 308 308 309 309 310 310 309 308 307 308 307 306 304
315 314 314 314 314 314 313 313 312 312 311 311 310 311 308 306 307 306 305 304 303 303 303 304 300 301 302 302 302 303 303 304 305 305 305 305 303 304 305 305 306 306 302
315 315 314 314 314 314 313 312 312 311 310 309 307 306 305 305 304 304 303 303 302 302 302 301 302 303 302 301 301 301 301 300 300 300 300 300 299 299 300 299 299 299 300
315 315 314 314 314 313 313 312 312 311 309 308 306 303 300 303 304 303 303 302 301 301 301 301 301 300 300 301 299 299 299 299 298 298 297 296 296 295 295 294 294 295 295
314 314 314 314 313 313 313 312 310 309 309 307 306 305 305 304 304 303 301 300 299 300 300 300 300 300 299 298 297 297 296 294 294 293 293 293 293 293 292 292 292 292 294
314 314 313 313 312 312 311 310 308 308 308 307 307 305 305 304 302 300 299 299 299 299 300 299 298 297 297 296 295 295 296 294 294 294 293 293 293 293 292 292 292 292 292
314 313 312 311 311 310 309 307 307 307 307 307 305 304 304 302 300 299 298 298 298 298 298 297 296 295 295 294 293 293 293 293 293 293 293 292 292 291 291 291 291 291 291
312 312 311 311 309 308 306 306 306 305 304 303 302 302 302 300 299 298 297 297 296 296 296 296 295 293 293 293 293 293 292 291 291 291 290 290 289 289 290 290 290 290 290
312 311 311 310 308 305 305 304 302 300 299 300 300 301 300 299 298 297 295 295 294 294 294 294 294 293 292 292 291 291 290 290 290 289 289 289 289 289 289 288 288 288 288
312 311 310 308 305 304 302 299 299 298 299 299 299 299 299 297 296 296 294 295 295 295 295 294 292 292 292 290 289 289 289 288 288 288 288 288 288 288 287 287 287 287 287
311 310 307 304 303 301 298 298 298 298 299 298 298 298 298 297 297 296 294 294 295 294 293 292 290 290 289 288 287 286 287 287 287 287 287 286 286 285 284 284 285 286 287
310 307 303 303 301 298 297 297 298 298 298 297 297 297 295 295 295 295 294 292 291 290 290 289 289 288 288 287 286 285 284 285 286 286 286 285 285 285 285 284 284 284 284
307 302 303 301 299 298 297 297 298 298 297 296 296 295 294 293 292 291 291 290 290 289 288 288 288 287 287 286 284 284 283 284 285 286 285 285 285 285 285 284 284 283 284
301 301 302 300 299 297 296 296 297 297 296 295 295 293 293 292 291 291 290 289 288 288 288 287 287 286 286 284 283 283 283 284 285 285 284 284 284 284 283 283 283 284 284
300 302 301 299 298 297 296 296 296 296 296 294 294 293 292 291 290 290 289 288 287 287 287 286 286 285 285 283 282 281 282 283 283 283 283 283 283 283 283 283 284 284 285
301 301 300 299 298 296 295 295 294 293 294 293 292 292 291 290 290 288 287 287 286 286 286 285 284 284 283 282 281 280 281 281 282 282 283 283 283 283 283 283 284 284 284
300 300 299 299 297 296 295 294 293 293 292 292 292 291 290 289 287 287 287 286 286 286 284 283 282 282 282 281 280 280 280 280 281 282 283 283 284 283 282 282 282 282 282
297 299 299 298 297 296 295 294 293 293 292 292 291 290 289 288 287 287 286 286 286 285 284 283 283 283 282 281 280 279 280 280 280 281 282 282 282 282 282 282 281 282 283
299 298 298 297 296 296 295 294 294 293 292 291 290 289 288 287 287 287 286 286 285 284 283 282 282 282 281 281 280 279 280 279 280 281 281 281 281 281 281 281 282 283 283
296 295 295 295 295 296 295 295 294 292 291 290 289 288 288 287 287 286 286 285 284 283 282 282 281 281 281 280 279 279 279 279 280 280 280 280 281 280 280 280 281 281 282
294 294 294 295 295 295 295 294 292 291 290 289 288 288 287 287 286 285 285 283 283 281 280 280 280 280 279 278 277 278 278 278 279 280 280 280 280 280 280 280 280 280 281
294 294 293 293 293 293 293 293 291 289 289 288 288 287 287 286 285 285 284 284 282 281 279 278 278 277 277 277 277 278 278 279 279 279 279 279 279 279 279 279 279 280 280

GFSMW_850_thetae_027.txt.gz
Theta_e
324 323 321 321 321 322 324 326 327 327 325 323 321 319 318 318 316 316 315 316 316 315 315 314 314 314 314 314 314 315 316 316 316 316 316 315 314 312 311 311 311 310 309
319 319 320 320 319 319 320 320 320 318 317 317 316 316 315 316 316 316 315 314 314 313 313 312 311 311 311 311 311 312 313 314 314 314 314 314 314 314 312 311 311 310 310
318 319 319 319 319 318 318 317 317 316 315 314 316 316 315 315 315 315 315 314 313 312 311 310 309 309 309 309 309 310 310 311 312 312 313 313 314 313 313 313 312 311 310
318 318 318 318 318 318 317 317 316 316 315 314 315 316 316 316 316 315 313 313 311 309 308 307 307 307 308 307 308 308 308 309 310 310 310 311 313 313 313 312 312 311 311
319 318 318 318 318 317 317 316 315 315 315 314 313 314 314 313 311 311 310 308 307 306 305 305 305 306 306 306 307 307 307 307 307 307 308 309 309 310 308 310 311 311 310
318 318 317 317 317 317 317 316 315 315 314 313 313 312 311 310 308 308 307 306 306 305 304 304 304 305 305 306 305 305 305 304 303 303 303 304 304 305 303 305 306 307 308
318 318 317 317 317 316 316 316 315 315 314 312 311 310 309 308 307 307 306 306 305 303 302 303 303 304 304 303 302 302 301 300 299 299 299 299 300 300 299 299 299 300 302
317 317 316 316 316 316 316 316 315 313 311 311 310 309 309 308 307 307 306 304 302 301 302 302 302 301 301 301 300 299 298 298 297 297 297 296 296 296 295 295 294 295 296
316 316 316 316 315 314 313 314 313 311 310 310 310 309 309 307 307 306 304 302 301 301 301 301 301 300 300 299 298 298 297 297 295 295 295 295 294 294 294 293 293 293 295
316 316 315 314 313 313 312 311 310 309 309 309 308 307 306 305 304 303 301 300 300 300 299 299 299 299 298 297 296 295 295 295 295 294 294 294 294 294 294 293 292 291 292
316 315 314 313 313 312 311 309 309 308 306 304 303 303 303 303 302 301 300 300 299 298 297 295 295 296 295 295 295 294 294 294 293 293 293 293 293 292 292 292 292 293 292
314 314 313 313 312 311 308 307 306 303 301 300 300 301 301 301 301 300 298 298 297 297 296 295 295 296 295 294 294 293 293 292 292 292 291 291 290 290 290 291 291 291 291
314 313 313 312 311 309 307 305 301 300 300 300 300 300 300 300 299 298 298 297 296 296 296 296 295 295 294 293 293 292 292 291 290 290 290 290 290 290 290 290 290 290 290
313 313 312 311 309 307 304 301 299 299 300 300 299 299 299 299 299 297 296 296 296 295 294 294 294 293 292 291 290 290 289 289 289 289 289 289 289 289 289 289 289 289 289
313 312 311 309 306 304 301 300 299 299 299 299 299 298 297 297 296 296 296 295 295 293 293 292 291 291 290 290 289 288 287 286 287 287 288 288 288 287 287 286 286 286 287
312 310 307 304 304 301 300 299 298 299 299 298 298 297 296 295 295 295 294 293 293 292 291 290 290 290 289 289 288 287 286 285 286 287 287 288 288 287 287 286 285 285 285
309 304 302 303 303 301 300 298 298 298 298 298 297 296 295 295 294 293 293 292 292 290 290 289 289 289 288 288 287 286 285 284 285 286 287 287 287 286 286 286 285 284 284
303 302 302 303 301 300 299 298 297 297 297 297 296 295 294 294 293 292 292 291 289 289 289 289 288 288 287 286 286 285 284 284 284 285 285 285 285 285 284 284 284 284 285
302 302 303 302 301 300 300 298 297 296 295 295 295 294 294 293 292 291 290 289 289 288 288 288 287 286 286 285 284 283 282 282 283 283 283 283 284 284 284 284 284 284 284
302 301 301 300 300 300 299 298 297 296 295 294 294 294 293 292 291 290 289 289 288 288 288 287 285 284 284 284 282 281 281 280 281 282 282 282 283 283 284 284 283 283 284
300 299 299 300 300 299 298 298 297 296 295 295 294 294 293 291 290 289 289 288 288 288 287 286 284 284 284 283 282 282 281 281 281 281 282 282 283 284 283 283 283 282 282
300 299 299 298 297 297 297 297 297 296 295 295 294 293 292 291 289 289 288 288 288 287 286 285 284 284 283 283 283 282 280 280 280 280 281 282 282 282 282 282 282 281 282
297 297 296 296 295 295 295 295 296 296 295 294 293 292 291 290 289 288 288 288 287 286 285 284 283 283 283 282 282 281 279 279 279 280 281 281 281 281 281 281 281 281 282
295 295 295 294 294 294 294 294 294 295 295 293 292 291 290 289 288 288 287 287 286 285 284 283 283 282 281 281 280 279 279 279 279 279 280 281 281 281 281 281 281 282 282
294 293 294 294 294 293 293 293 293 294 293 292 291 290 289 288 288 287 287 286 285 284 282 281 280 280 279 279 277 277 277 278 278 279 280 280 280 280 280 280 281 281 281
293 293 293 293 293 293 293 292 293 293 291 290 289 289 288 288 287 286 286 285 284 284 282 281 280 279 278 276 276 276 276 278 278 279 279 279 278 278 279 279 280 280 280

GFSMW_850_thetae_030.txt.gz
Theta_e
322 323 324 323 323 323 326 327 329 328 328 326 323 321 320 318 318 316 316 316 316 315 314 314 314 313 312 312 312 311 311 311 314 315 316 315 314 316 317 316 313 311 311
321 321 321 320 320 321 320 320 321 321 319 317 317 317 317 316 316 316 317 315 315 315 314 312 311 310 309 309 308 308 310 311 312 313 314 314 313 313 313 314 315 313 312
320 321 321 320 319 319 318 318 317 317 315 315 316 316 316 315 316 316 315 315 315 314 311 309 308 306 306 307 307 304 306 308 309 310 311 312 312 312 312 313 314 314 313
320 320 320 320 319 319 318 317 317 316 316 314 315 316 315 316 316 315 312 312 311 308 307 306 305 305 305 305 305 306 307 307 307 307 308 309 309 309 309 310 310 311 312
320 319 319 319 319 318 318 317 316 316 315 314 314 313 313 312 311 310 309 308 307 307 306 305 304 303 303 302 305 306 306 306 307 306 305 305 304 305 306 306 307 307 309
319 319 318 318 318 318 318 317 316 316 315 314 313 312 311 310 309 308 308 307 307 306 304 302 301 302 303 304 305 305 302 302 301 301 299 299 299 299 299 299 301 301 304
319 318 318 318 318 317 317 317 316 315 314 312 312 311 310 310 309 308 308 307 306 303 302 301 301 303 303 301 301 300 300 300 299 298 297 297 297 297 297 296 296 296 298
318 317 317 317 317 316 315 314 315 314 312 311 310 310 310 310 308 307 307 306 304 301 301 301 301 300 299 299 299 299 299 297 297 297 295 295 295 295 294 294 294 294 294
318 317 317 316 315 314 314 313 312 311 310 310 309 309 307 307 306 305 304 302 301 300 300 299 297 298 298 298 297 296 296 296 296 296 296 296 295 295 294 294 293 293 293
317 317 316 315 314 314 313 312 310 310 309 308 305 303 302 303 303 302 302 301 300 299 298 297 297 295 295 295 295 293 295 294 294 293 293 293 293 293 293 293 293 293 293
317 316 315 314 314 313 311 310 309 308 305 302 301 300 301 301 301 301 301 300 299 297 297 297 296 295 295 295 295 295 294 294 293 293 293 293 292 292 292 291 291 292 292
316 315 314 314 313 312 310 308 307 303 301 300 300 300 301 300 301 300 299 297 298 297 297 296 296 296 295 294 294 293 293 292 292 291 290 290 290 290 290 290 290 291 291
315 314 313 313 312 310 309 307 303 300 300 300 300 300 300 300 299 297 299 296 296 296 295 295 294 294 293 292 292 291 291 291 291 289 288 289 289 289 289 289 289 290 290
314 313 313 312 310 308 307 304 301 300 299 300 300 299 299 299 296 297 296 295 295 295 294 293 293 292 291 291 290 290 290 289 289 288 286 287 287 288 288 289 288 288 289
314 312 310 308 307 306 305 302 301 299 299 299 299 299 298 297 295 295 295 295 294 293 293 292 291 290 290 290 289 289 288 288 287 287 285 286 287 287 288 288 287 286 286
312 310 307 305 304 304 303 302 300 299 298 298 298 298 297 296 295 295 294 294 293 293 291 290 290 289 289 289 288 288 287 287 286 285 284 286 286 287 287 287 287 286 285
308 306 305 304 304 304 302 301 300 299 298 297 297 297 297 295 294 294 294 293 292 290 290 289 289 289 288 288 287 287 286 285 284 284 284 284 285 285 285 285 285 285 284
305 304 303 303 304 302 301 301 301 299 298 297 296 296 296 294 294 294 293 292 290 289 289 288 288 288 287 286 286 286 284 283 282 282 282 282 283 283 283 283 284 284 285
303 303 303 302 300 300 301 301 300 299 298 298 296 296 294 294 294 293 292 290 289 289 288 288 288 287 286 285 284 284 283 282 281 281 281 282 282 282 282 283 283 283 283
302 301 301 300 300 299 298 298 298 298 298 297 296 296 295 294 293 292 291 289 289 288 288 288 288 286 284 284 284 283 283 282 281 281 281 281 281 282 283 283 283 283 283
301 299 298 298 297 296 296 296 295 296 296 296 296 295 295 294 293 291 289 289 289 288 288 287 287 285 284 283 283 282 282 281 280 280 280 281 281 282 282 282 282 282 282
298 297 296 296 295 295 295 295 295 294 294 295 295 295 294 293 292 290 289 289 288 288 287 287 285 283 283 283 282 282 281 280 279 279 280 280 281 281 281 281 282 281 281
296 295 295 294 294 294 295 294 294 294 294 294 295 294 293 292 291 289 289 288 287 287 286 284 283 283 282 281 281 281 280 278 278 278 279 280 281 281 281 281 282 282 282
296 295 294 294 294 294 294 293 293 293 292 293 294 293 292 290 289 289 288 287 287 286 284 284 283 281 281 279 279 278 277 278 278 279 280 280 280 280 280 281 281 282 282
294 294 294 294 294 294 293 293 293 292 292 291 291 291 290 289 289 288 287 287 286 285 284 283 282 282 280 279 277 277 277 277 277 279 279 279 279 279 279 279 280 281 281
294 294 294 294 294 294 293 292 292 291 291 290 290 289 289 289 288 286 286 286 285 284 284 283 282 282 281 279 277 276 276 277 278 278 278 278 278 278 278 278 278 279 279

GFSMW_850_thetae_033.txt.gz
Theta_e
322 323 323 323 324 325 325 326 328 327 327 324 323 321 321 319 318 316 316 316 316 315 315 315 314 312 311 309 308 308 307 306 306 309 307 310 310 311 310 312 310 311 314
321 320 322 323 324 323 322 323 323 325 321 318 318 318 318 316 316 315 316 316 316 315 314 312 311 309 307 306 306 306 306 304 302 307 309 309 308 308 310 310 312 312 313
320 320 319 318 318 317 317 316 316 316 315 316 316 316 316 316 316 316 315 313 311 311 310 308 308 306 305 305 305 304 302 302 305 307 307 307 307 305 306 306 307 308 309
320 320 319 318 317 317 317 316 316 316 316 315 315 314 313 313 314 313 311 310 310 309 308 307 306 305 304 302 300 302 304 306 306 305 305 304 301 300 301 303 304 305 306
319 319 319 318 318 317 317 316 316 316 315 315 314 313 312 311 310 309 309 308 308 307 307 307 306 302 299 302 303 304 304 302 301 300 300 299 300 298 298 298 299 299 300
319 318 318 318 318 317 317 317 316 316 314 312 312 312 311 310 310 309 308 308 308 307 306 304 301 300 300 302 302 300 299 299 299 299 298 297 296 296 295 296 296 296 296
318 318 318 318 317 317 317 315 315 315 314 312 311 310 310 310 309 308 307 307 306 305 304 300 299 299 299 298 298 298 298 298 297 296 296 296 295 294 295 294 294 294 295
318 317 317 317 317 316 314 314 313 312 311 310 310 309 308 306 305 305 305 304 303 303 301 300 299 298 296 297 297 297 296 295 295 295 294 296 295 295 294 294 294 293 293
317 317 317 316 315 314 314 312 312 311 310 310 309 308 304 303 302 302 302 302 302 301 300 299 297 297 295 295 295 294 294 294 293 294 293 293 293 293 293 293 292 292 293
317 317 316 315 314 314 313 312 311 309 309 308 307 305 302 300 299 301 301 301 301 300 299 297 296 296 296 295 295 295 294 294 293 293 293 293 293 292 292 292 292 292 292
316 315 314 314 314 313 312 310 309 308 307 304 303 301 299 300 300 300 300 300 297 297 297 296 296 296 295 294 294 294 293 293 293 292 292 292 291 290 290 290 290 290 290
317 314 314 313 312 311 309 308 308 307 303 303 301 299 300 299 299 299 300 297 296 295 296 296 295 294 293 293 292 291 291 291 291 291 291 290 288 287 287 289 289 289 289
313 313 312 311 310 309 307 307 305 303 302 301 299 299 299 299 299 299 297 294 294 294 294 294 293 292 292 291 290 290 290 290 290 289 289 288 287 286 285 287 288 288 288
313 313 312 311 310 307 306 305 303 302 301 300 299 298 298 299 298 297 295 293 294 294 294 293 292 291 290 290 290 289 289 288 288 288 287 286 286 285 286 287 287 288 288
310 309 307 307 305 304 304 304 302 302 301 299 298 298 298 298 298 297 295 294 293 293 293 292 290 290 289 289 289 289 288 287 287 287 286 285 284 285 286 286 287 287 287
307 306 305 304 303 303 303 303 302 301 300 300 299 298 297 298 298 297 293 293 293 293 292 290 289 289 288 288 288 287 286 286 286 284 283 283 283 284 284 285 285 285 285
305 305 303 302 302 301 301 302 301 301 301 300 299 298 297 296 296 294 293 293 292 291 290 289 289 288 288 288 287 286 285 284 283 282 281 281 281 281 282 282 283 283 283
303 301 301 301 301 301 300 299 298 297 297 297 297 298 297 296 295 294 294 293 292 290 289 288 288 288 287 287 286 284 284 283 283 282 282 281 281 281 281 281 282 282 283
302 302 301 299 298 297 296 296 295 295 295 295 295 295 295 295 294 294 293 292 290 289 289 288 288 288 287 285 284 283 283 282 282 282 281 280 280 280 281 282 282 283 283
301 298 297 296 295 295 295 294 294 294 294 294 295 295 294 294 294 293 292 290 289 289 289 288 288 287 286 284 283 283 282 282 281 280 280 279 280 280 281 282 282 281 282
298 297 296 295 294 294 294 294 294 294 294 293 293 293 293 294 294 291 290 289 289 288 288 288 287 286 284 283 282 282 281 281 280 279 279 279 279 280 281 281 281 281 281
296 296 295 295 294 294 294 294 294 293 293 293 293 291 293 293 292 292 290 289 288 288 287 287 285 284 283 281 280 280 279 278 278 278 279 279 280 281 281 281 281 282 282
295 295 294 294 294 294 294 294 293 293 293 292 291 290 292 291 291 290 289 288 288 287 287 285 284 283 282 281 280 279 278 277 277 278 279 280 280 280 280 280 281 281 282
294 294 293 294 294 294 293 294 293 293 293 292 291 290 290 290 289 289 289 288 286 286 285 284 284 283 282 281 280 278 277 277 278 278 279 279 279 279 279 279 280 280 281
293 293 293 293 293 292 292 293 293 293 292 292 290 289 289 289 289 288 287 286 286 285 284 284 283 282 282 281 279 278 277 277 278 278 278 278 278 278 278 278 279 279 279
292 291 291 292 291 291 292 292 293 292 292 291 289 288 288 288 287 286 285 285 285 284 283 283 283 282 282 281 279 278 277 277 277 277 277 277 277 276 277 277 278 278 278

GFSMW_850_thetae_036.txt.gz
Theta_e
323 325 326 326 327 328 329 328 328 328 327 325 324 322 318 316 316 316 316 316 315 315 315 314 314 314 313 310 308 307 305 304 303 302 300 300 300 303 304 305 309 310 311
321 322 323 324 324 322 322 321 318 317 317 318 318 318 318 317 316 316 315 314 314 313 313 313 312 310 308 307 306 305 304 302 299 300 304 305 303 303 305 304 306 306 307
318 318 318 319 318 317 316 316 315 315 315 315 315 315 315 314 314 314 314 313 311 310 309 308 307 306 306 306 304 302 299 299 303 304 303 302 302 300 300 301 301 303 304
318 317 317 317 316 316 315 315 315 315 315 315 314 312 311 311 311 311 311 310 309 309 308 308 307 307 304 299 298 300 303 302 301 301 300 300 299 298 298 298 298 298 298
319 318 318 318 317 317 317 316 315 315 315 315 314 312 312 311 311 310 309 309 308 308 308 306 304 301 298 297 299 299 299 298 298 298 298 298 297 296 296 295 295 295 295
318 318 318 317 317 317 317 316 316 315 314 314 313 311 311 310 310 310 310 308 307 306 305 303 301 300 299 297 296 297 298 298 297 297 296 295 295 295 294 294 294 295 294
318 318 318 317 317 317 317 316 315 314 313 312 311 310 310 309 308 307 305 304 304 303 302 301 300 300 298 296 296 295 296 296 295 294 294 294 295 294 294 294 294 293 293
318 317 317 317 317 316 316 314 314 313 312 311 310 309 308 306 304 302 301 301 301 301 301 300 299 297 296 296 295 295 294 294 293 293 293 293 293 293 293 293 293 293 292
317 317 316 316 315 314 314 313 312 311 310 309 309 308 305 302 301 299 299 300 301 300 297 296 296 296 296 295 295 295 294 294 293 293 293 293 293 292 292 292 292 292 292
317 316 315 314 314 313 312 311 310 309 309 309 307 304 302 300 298 298 299 299 299 298 295 297 296 295 295 295 294 294 294 293 293 293 293 292 292 292 291 290 289 290 290
314 313 313 312 311 311 310 309 308 308 307 305 303 303 301 298 297 297 298 298 299 298 293 294 295 295 294 293 292 292 291 291 291 291 291 291 291 289 289 289 287 287 288
313 312 312 312 311 310 308 307 306 305 303 304 302 300 299 298 297 297 297 298 298 297 293 293 293 293 293 291 291 290 290 290 290 290 289 289 288 288 288 287 286 285 287
312 312 311 310 309 309 307 305 304 303 302 302 301 300 299 298 297 298 298 298 297 293 293 292 293 293 291 290 290 289 289 289 288 288 287 287 286 286 286 285 285 285 286
310 309 308 307 305 304 303 304 304 303 302 301 300 300 299 298 297 298 298 297 296 293 293 293 293 292 291 289 289 288 288 288 287 286 285 285 285 284 284 285 285 286 286
308 306 305 303 303 301 300 300 301 302 302 301 300 300 299 298 298 297 297 296 295 293 293 293 291 290 289 288 288 288 288 287 286 285 284 283 282 281 282 284 284 284 285
304 303 302 301 301 301 302 302 301 300 299 298 298 299 297 298 297 296 296 296 294 293 292 291 290 289 288 288 288 287 286 285 284 283 283 282 282 281 281 281 282 282 283
302 301 301 301 300 300 299 297 296 295 295 295 295 295 294 294 295 295 295 294 294 291 290 290 289 288 288 287 287 285 284 284 283 283 282 282 281 281 280 281 281 281 282
301 301 300 298 297 296 295 295 294 294 294 294 294 294 294 293 293 293 293 293 292 291 290 289 288 288 287 287 285 284 284 283 282 282 281 281 280 279 280 280 281 282 282
300 297 297 295 295 294 294 294 293 293 294 294 294 293 293 292 291 293 294 292 291 289 289 288 288 287 287 285 284 283 283 282 281 281 280 279 279 279 279 280 281 281 281
297 296 295 295 295 295 294 294 293 294 294 293 293 293 292 291 292 293 292 290 289 289 288 288 287 286 285 284 283 281 281 280 279 278 278 279 279 279 280 281 281 281 281
296 296 295 295 294 294 293 293 293 293 293 293 293 292 291 291 292 292 289 289 289 288 288 287 286 285 284 283 282 281 280 278 278 278 278 279 280 280 280 281 281 281 281
296 295 294 294 293 292 293 293 293 293 293 293 293 292 291 290 290 291 290 290 288 287 287 286 285 284 283 282 281 281 279 278 277 278 279 279 279 279 280 280 280 281 282
295 294 293 292 291 291 291 291 291 292 293 292 292 292 291 290 290 289 289 288 287 287 286 285 284 283 282 282 281 280 278 278 278 278 278 278 279 279 279 279 280 280 281
294 293 291 290 290 290 290 290 290 292 292 292 292 291 290 289 289 288 288 287 286 286 285 284 284 283 282 281 281 279 278 277 277 278 278 278 278 278 278 278 279 279 279
293 291 290 290 290 290 289 290 289 290 291 291 290 289 288 288 288 287 286 285 285 285 284 283 283 282 282 281 280 279 278 277 277 277 277 277 277 277 277 277 278 278 278
290 290 290 290 290 289 289 289 289 288 288 289 288 287 287 287 286 286 285 285 284 284 283 283 283 282 281 281 280 278 278 277 276 276 276 276 276 276 276 276 277 277 277

GFSMW_850_thetae_039.txt.gz
Theta_e
325 327 327 326 326 328 329 329 328 327 325 325 325 323 322 319 317 316 316 316 316 315 315 315 314 312 311 309 308 307 306 306 305 303 300 298 297 301 302 301 303 307 307
322 323 323 326 327 326 324 320 318 317 318 318 318 318 316 315 315 315 315 315 314 313 311 309 308 308 307 307 306 305 303 300 298 299 300 300 298 299 303 299 298 298 299
321 321 322 320 319 317 316 315 315 315 315 315 315 314 312 310 310 309 308 309 310 310 310 309 308 307 307 305 300 297 296 296 297 299 300 300 299 299 298 297 297 297 296
317 317 316 316 315 315 315 315 314 314 313 311 310 310 310 310 310 309 309 310 309 309 308 308 306 304 302 300 297 297 295 296 298 298 298 298 298 297 297 297 296 295 295
317 317 317 317 317 317 316 316 315 313 313 312 312 312 311 310 310 309 309 309 309 307 305 304 302 301 300 299 299 296 296 298 298 297 297 296 295 295 295 294 294 294 294
318 318 317 317 317 317 316 316 316 315 313 313 312 311 311 310 310 309 308 307 304 302 302 301 301 300 299 298 296 295 295 295 295 295 294 294 294 294 293 293 293 293 293
318 318 317 317 317 317 316 316 315 314 313 312 312 311 310 309 307 304 302 300 299 300 300 300 299 295 295 295 295 295 295 294 294 293 293 293 293 293 293 293 293 292 292
318 318 318 317 317 317 315 313 313 313 312 311 310 309 308 305 303 302 299 297 298 299 299 298 296 294 295 295 294 294 295 294 294 293 293 293 293 293 292 292 292 291 292
318 318 318 317 316 314 313 313 312 311 310 309 308 306 303 303 302 298 297 297 297 298 298 298 294 295 296 295 295 294 294 293 293 292 292 292 292 292 292 291 289 290 289
315 315 316 314 313 312 312 311 310 309 308 307 305 303 301 299 299 298 297 297 297 297 298 297 295 293 294 294 293 293 292 291 291 291 291 290 291 292 290 290 289 288 288
314 314 313 314 313 311 311 308 307 306 305 303 303 301 300 300 299 298 298 298 298 298 298 297 293 292 293 293 292 291 290 290 289 289 290 289 289 289 289 288 287 287 286
312 312 311 311 310 310 308 305 304 303 303 302 302 301 300 300 298 298 298 298 298 298 296 293 293 293 293 292 291 290 289 289 289 288 288 288 287 287 286 285 285 285 285
311 311 310 308 306 304 303 303 304 303 302 301 301 300 300 298 298 298 298 297 297 296 296 294 292 293 291 291 290 289 288 288 288 287 287 286 285 284 284 283 283 284 285
309 307 306 304 302 301 300 301 301 302 302 302 301 299 298 299 297 297 296 295 296 295 295 293 293 292 291 289 288 288 287 287 287 286 285 284 284 283 282 282 282 283 284
305 303 302 301 301 301 301 301 300 299 298 296 295 295 294 295 296 294 294 295 294 295 294 293 292 290 289 288 288 287 287 287 285 284 284 283 282 282 281 281 281 281 281
302 301 301 301 300 299 298 297 296 295 295 294 293 294 294 293 293 293 293 293 293 294 294 293 290 290 288 288 287 287 286 285 284 283 283 282 282 281 281 281 280 280 281
301 301 301 299 296 296 295 295 294 294 294 293 294 293 293 293 292 292 291 292 293 293 292 291 290 288 288 287 287 286 284 283 283 282 281 281 280 280 280 279 280 280 281
301 300 297 296 295 295 294 294 294 293 293 293 293 293 293 293 292 290 291 293 293 291 290 288 288 288 287 287 286 284 283 282 281 280 279 279 279 279 279 279 280 280 281
298 296 296 295 295 295 294 293 293 293 293 293 293 293 292 292 291 290 292 292 291 290 289 288 288 287 287 285 284 283 282 281 280 280 280 279 279 279 279 280 280 281 281
297 296 296 295 294 293 293 292 291 292 291 292 292 293 292 292 291 290 291 291 290 289 289 288 287 286 285 284 282 281 281 280 279 279 279 279 279 280 280 280 280 280 281
296 295 295 294 293 292 291 290 290 290 290 292 292 292 292 292 291 290 290 290 289 289 287 287 286 285 284 283 282 281 280 279 278 278 278 279 279 279 279 279 279 280 281
296 295 294 293 291 290 290 290 290 290 290 291 292 292 291 291 291 289 289 289 288 287 287 286 285 284 283 282 281 281 280 278 277 278 278 278 278 278 278 279 279 279 280
295 294 293 291 290 290 290 289 289 289 289 290 291 291 291 290 289 289 289 288 287 286 286 285 284 283 282 282 281 280 279 278 277 277 277 277 277 278 278 278 278 279 279
294 293 291 290 290 290 289 289 289 289 289 288 289 289 289 287 287 288 287 286 286 285 284 284 283 283 282 281 281 280 279 278 278 277 277 277 277 277 277 277 278 278 278
293 291 290 290 290 289 289 289 289 289 288 287 287 288 287 287 287 286 286 285 284 284 283 283 283 282 282 281 281 279 278 277 277 276 276 276 276 276 276 277 277 277 278
290 290 290 290 290 289 289 289 289 288 287 287 287 287 286 286 286 284 283 283 283 283 283 283 282 282 282 281 280 279 278 277 277 275 274 276 276 276 275 275 275 276 276

GFSMW_850_thetae_042.txt.gz
Theta_e
324 324 325 324 324 325 328 328 328 326 325 324 322 318 320 318 315 313 312 313 314 315 313 312 310 309 308 308 307 306 305 302 298 296 296 295 298 302 300 299 300 300 299
325 326 327 328 328 328 327 324 320 319 319 319 318 316 315 311 310 310 309 309 309 308 309 309 309 308 308 307 304 301 299 297 295 295 295 298 297 298 300 300 297 296 296
322 322 323 322 319 317 315 314 314 315 314 313 312 311 310 310 311 310 309 309 308 308 309 309 308 307 303 302 300 298 297 296 295 295 297 298 298 297 296 296 297 296 295
320 319 317 315 315 315 315 315 313 312 311 311 311 311 311 311 311 310 309 309 309 308 308 305 303 301 300 299 297 295 295 295 295 295 296 297 297 296 296 295 294 294 294
316 316 316 316 316 316 316 316 315 315 313 312 312 312 311 310 310 309 309 308 306 304 302 301 300 299 298 296 294 294 295 295 295 295 295 295 294 294 294 293 293 293 293
317 317 317 317 316 316 316 316 316 315 314 313 312 311 310 309 309 307 305 302 300 298 298 298 298 297 296 293 294 294 294 294 294 294 293 293 292 292 292 292 293 292 292
317 317 317 316 316 317 316 316 315 314 313 311 310 310 308 306 304 302 300 297 297 296 296 296 297 297 296 293 293 293 293 294 294 294 293 293 293 293 293 293 292 292 292
317 317 317 317 317 316 316 315 313 312 311 310 308 306 304 302 300 299 298 297 297 297 297 297 297 297 296 293 294 294 294 294 293 293 293 292 292 292 291 292 292 291 290
317 317 317 317 317 316 313 312 311 310 309 307 305 303 302 301 300 300 299 298 298 298 297 298 297 296 294 294 295 294 293 292 291 291 290 290 290 291 291 291 290 288 288
316 315 315 315 313 313 312 311 309 307 306 304 303 302 301 300 300 299 299 298 298 298 298 297 295 295 293 294 293 293 292 291 290 289 289 289 289 289 289 289 289 288 287
314 314 313 313 312 310 310 309 308 306 304 304 302 301 300 299 299 298 298 298 297 298 298 297 296 295 294 293 292 292 291 290 289 288 288 288 288 288 287 287 286 286 285
311 311 310 310 310 309 306 305 304 304 303 302 301 301 301 299 299 298 298 297 297 296 297 296 295 295 293 292 292 290 289 288 288 288 287 287 287 286 285 284 284 283 283
309 309 309 308 306 304 303 302 301 301 301 301 301 298 296 294 294 296 295 294 294 295 295 295 295 295 293 292 291 289 288 287 287 287 287 286 285 284 283 283 282 282 282
308 307 305 303 302 301 301 301 301 300 298 296 295 294 293 293 293 293 293 292 292 293 294 295 294 294 292 291 289 288 288 287 287 287 285 284 283 283 282 282 282 281 281
306 303 302 301 301 300 300 298 297 295 295 294 293 293 293 293 293 292 292 291 291 293 293 294 293 293 291 289 289 287 287 287 286 285 284 283 282 282 281 281 281 281 280
303 301 301 301 299 297 296 295 295 295 294 293 292 293 293 293 292 292 292 290 291 293 293 292 291 290 289 288 287 287 287 286 284 283 282 282 281 280 280 280 279 279 279
301 301 301 298 296 295 295 294 294 293 292 292 292 292 292 292 292 292 291 290 291 292 291 290 289 289 288 287 287 287 285 284 283 282 281 280 279 279 279 279 279 279 280
301 301 298 296 295 295 294 294 293 291 291 291 291 292 292 292 292 292 291 290 290 289 289 289 288 288 288 287 286 285 284 283 282 281 280 280 279 279 279 279 280 280 281
301 298 296 295 295 294 293 292 291 290 290 289 290 291 292 292 292 291 291 290 291 290 289 289 288 288 287 286 284 283 282 281 281 280 280 279 279 279 279 280 280 280 280
298 296 295 295 294 293 291 290 290 290 289 290 290 290 292 292 291 291 290 290 290 290 289 288 287 286 286 284 283 282 281 281 280 279 279 278 278 278 279 279 279 279 279
296 296 295 294 293 291 290 290 290 289 289 290 290 290 291 290 291 290 289 288 289 289 288 287 286 285 284 283 282 281 281 280 279 278 278 278 278 277 278 278 278 278 279
296 295 294 293 291 290 290 290 289 289 289 289 289 289 290 290 289 289 288 289 289 288 287 286 285 284 283 282 282 281 280 279 278 278 278 277 276 276 277 278 278 278 278
295 294 293 292 290 290 289 289 289 289 289 289 289 288 288 288 288 287 287 288 287 287 285 285 284 283 282 282 281 281 280 279 278 278 277 277 277 277 277 277 277 278 278
294 294 292 290 290 289 289 289 289 289 289 289 288 287 287 287 287 287 287 287 286 285 284 284 283 283 282 282 281 281 280 278 278 278 276 275 276 276 277 277 277 277 277
293 292 290 289 289 289 289 289 289 289 289 288 286 286 287 286 286 286 285 284 284 284 283 283 283 282 282 281 281 280 279 279 278 278 276 275 276 277 276 275 275 276 276
291 290 289 289 290 290 290 289 289 288 288 287 286 286 286 286 285 285 284 282 282 282 282 282 282 282 282 281 281 280 279 279 277 278 276 275 275 275 275 275 275 274 274

GFSMW_850_thetae_045.txt.gz
Theta_e
325 325 325 325 324 324 325 326 327 324 325 325 322 318 317 313 310 309 309 309 309 309 308 308 308 309 309 308 306 302 300 298 297 296 299 296 297 300 302 300 298 299 299
326 326 326 327 327 327 327 326 323 324 322 319 317 316 313 310 310 311 310 310 309 308 308 308 308 308 305 302 300 298 297 296 295 295 298 299 299 299 299 299 296 296 296
323 322 323 322 317 315 314 314 314 313 313 314 313 311 310 311 311 311 310 309 308 308 307 306 304 302 299 298 297 296 295 294 294 294 297 298 299 298 297 297 296 296 295
321 320 316 314 314 314 313 312 312 312 312 311 311 311 311 311 311 310 309 308 308 306 303 301 298 297 296 296 296 295 293 293 296 295 296 296 296 297 296 296 295 294 294
319 315 315 315 315 315 315 315 314 313 313 312 312 312 311 310 309 309 307 305 303 300 297 296 296 296 295 296 296 293 292 293 294 295 294 294 294 294 294 294 294 294 294
316 315 316 316 316 315 315 315 315 315 314 313 312 311 309 307 305 304 302 300 298 297 297 297 297 296 296 296 296 293 293 293 293 294 294 295 294 294 294 293 293 294 293
316 316 316 316 316 316 315 315 315 314 313 311 310 309 306 304 303 301 300 299 298 297 298 297 297 297 297 296 294 293 294 294 294 294 293 293 293 292 292 292 293 292 293
316 316 316 316 316 316 315 315 314 312 311 310 308 306 304 303 301 300 299 299 299 299 298 298 298 298 297 295 295 293 293 293 293 292 291 290 290 290 290 291 291 291 290
317 317 316 316 316 316 315 313 312 310 308 306 305 304 302 301 300 299 299 298 298 298 298 298 298 298 296 295 294 293 293 292 292 291 290 290 289 289 289 289 289 289 289
316 316 316 316 316 314 312 310 308 307 305 305 304 302 301 300 300 299 299 298 297 297 297 297 297 297 296 295 294 293 292 292 291 290 289 288 288 288 288 288 287 287 287
315 313 313 312 310 309 308 308 306 305 304 303 302 301 301 301 300 297 296 298 297 296 295 294 296 297 295 295 293 293 292 290 289 288 288 287 287 287 287 286 285 285 285
312 310 309 308 308 308 306 305 304 302 301 300 300 300 298 295 294 293 293 293 292 292 292 293 296 295 295 294 293 292 290 289 288 287 287 287 287 286 285 284 284 284 283
309 308 308 308 307 304 302 302 302 300 300 299 297 296 295 292 292 293 293 292 291 291 291 292 295 295 294 293 293 290 289 288 288 287 287 286 285 284 284 284 283 283 283
309 308 307 305 303 302 301 301 300 298 296 296 295 293 292 293 293 292 292 291 291 290 290 291 293 293 292 292 291 289 289 288 287 287 286 285 284 284 283 283 283 283 282
306 305 303 302 301 300 300 297 296 296 296 294 292 292 292 292 292 292 291 291 291 290 290 292 292 291 291 291 289 289 288 287 287 285 284 283 282 282 281 281 281 281 281
305 302 301 301 300 298 296 296 295 295 293 291 291 291 291 291 291 291 291 291 291 290 291 291 290 289 289 289 288 287 287 287 285 284 283 282 281 280 280 280 279 279 279
303 301 301 300 297 296 296 295 294 293 291 290 290 290 290 291 291 292 292 291 291 290 289 289 289 288 288 288 287 287 286 284 283 283 282 281 280 280 279 279 279 280 280
303 301 301 297 296 296 295 294 292 291 290 290 289 290 290 290 291 292 291 291 291 290 290 289 289 288 288 288 287 286 284 283 283 282 281 280 279 279 278 279 280 280 280
302 301 298 296 296 295 294 292 291 290 290 289 289 289 290 290 291 291 290 291 290 290 290 289 288 288 287 286 286 284 283 283 282 281 280 279 278 278 278 279 279 279 279
301 298 296 296 295 294 292 291 290 290 289 289 289 289 289 289 290 289 290 290 288 288 289 288 288 287 286 285 284 283 283 282 281 280 279 278 278 277 278 278 278 278 279
299 296 295 295 294 293 291 290 289 289 289 289 289 289 289 289 289 289 289 288 288 289 288 288 287 286 285 284 283 282 282 281 280 279 279 278 278 277 277 277 277 278 278
296 295 295 294 293 291 290 289 289 289 289 289 289 289 289 288 288 288 287 287 288 288 287 287 286 285 284 283 283 282 281 281 279 278 278 277 276 277 277 277 277 277 278
296 295 294 293 291 290 289 289 289 289 289 289 289 289 288 287 288 287 287 287 287 287 286 285 284 284 283 283 282 282 281 280 279 278 278 277 276 277 277 276 276 277 277
295 294 293 291 290 289 289 289 289 289 289 289 289 288 287 287 287 286 286 286 286 285 285 284 283 283 283 282 282 281 281 280 279 278 278 277 275 276 276 275 275 275 275
294 293 291 290 289 289 289 289 289 289 289 288 288 287 286 287 286 285 285 285 284 283 283 283 283 283 282 282 282 281 280 280 279 278 278 277 276 276 276 275 275 274 274
292 290 290 289 289 289 289 289 289 288 287 286 287 287 286 286 286 285 284 284 283 282 282 282 282 282 282 282 281 281 280 280 279 279 278 278 276 275 275 275 275 274 274

GFSMW_850_thetae_051.txt.gz
Theta_e
328 329 330 330 330 331 332 331 327 326 327 325 324 322 318 320 314 314 314 314 313 313 313 312 312 311 309 308 307 305 303 303 302 302 302 303 302 302 305 305 305 304 303
330 331 332 332 332 332 331 328 327 326 326 324 324 322 320 316 315 315 313 313 311 311 311 309 310 309 307 305 304 303 303 302 301 301 301 301 301 301 303 303 303 303 302
331 332 332 331 330 329 329 329 327 326 324 322 320 319 317 316 314 315 314 313 311 310 308 308 307 306 304 303 303 302 301 301 300 300 299 299 300 300 299 299 299 299 299
330 330 330 330 330 328 326 324 324 323 321 319 317 317 315 316 316 315 314 313 311 310 307 306 304 304 303 303 302 301 301 300 299 299 299 299 298 299 298 298 297 297 297
328 325 324 324 324 324 323 323 322 320 319 318 317 317 317 316 315 314 312 311 309 307 306 304 303 304 303 302 302 301 301 300 299 299 298 298 298 298 298 297 297 297 296
325 321 320 320 321 321 320 319 319 318 317 317 317 317 316 314 312 310 308 307 305 304 303 303 303 303 302 302 302 300 300 299 298 298 298 298 297 297 297 296 295 295 295
322 320 320 320 321 320 320 319 318 317 317 317 315 313 311 309 308 308 307 305 303 303 303 303 302 301 301 301 301 301 300 299 298 298 297 297 296 296 295 295 294 293 293
321 320 320 320 320 320 320 319 318 317 316 314 311 310 308 308 307 306 305 304 303 303 303 302 301 300 300 300 300 299 299 299 297 297 297 296 295 295 294 293 292 292 292
321 321 321 321 321 320 320 319 318 316 313 310 308 307 306 305 305 304 304 303 302 301 300 299 299 299 298 298 298 298 298 297 297 296 296 295 295 294 293 292 291 291 291
322 322 322 321 321 320 319 318 316 313 307 306 307 307 306 304 304 303 301 300 299 298 297 296 296 296 296 297 297 297 297 297 296 296 295 294 293 292 291 291 291 290 290
322 322 322 322 321 320 318 314 311 308 306 306 308 306 304 302 300 300 299 297 297 296 296 296 296 296 296 296 296 296 296 295 295 294 294 293 292 291 291 290 289 289 289
322 322 321 319 318 316 313 311 309 306 306 308 302 301 300 300 299 298 297 297 296 296 296 295 296 296 295 295 295 295 295 294 293 293 293 292 291 290 290 289 289 288 288
322 320 318 315 314 313 310 309 306 305 308 302 300 299 299 298 297 297 297 296 296 296 295 295 295 295 295 294 292 293 293 292 292 291 291 290 290 289 288 288 288 287 287
320 318 316 314 313 311 309 305 304 303 301 299 299 297 297 297 297 297 296 296 296 295 295 295 295 293 292 293 292 292 291 291 291 291 290 289 288 287 286 285 284 285 285
318 316 315 313 311 308 305 305 303 301 299 298 297 296 296 296 296 296 296 296 295 295 295 295 294 293 292 292 291 291 291 290 290 290 288 287 286 285 283 283 283 283 283
317 316 314 312 310 307 304 303 301 299 298 297 296 295 295 294 295 295 295 295 295 295 295 294 293 293 292 292 291 289 289 289 289 288 287 286 285 285 283 283 282 282 281
316 315 313 310 308 304 303 300 299 298 296 295 294 294 293 293 294 294 294 295 295 294 294 293 292 292 292 291 290 288 288 287 287 287 286 286 285 284 284 283 282 281 281
315 313 311 308 304 302 299 299 297 296 295 294 293 293 293 293 293 294 294 295 294 294 292 292 292 290 292 291 289 288 287 287 287 286 286 285 284 283 282 281 280 281 281
314 311 308 305 302 299 299 297 296 295 294 293 293 293 293 293 294 294 294 294 293 293 291 291 291 290 291 289 288 287 286 286 286 285 285 284 283 282 281 278 279 280 280
312 309 306 302 299 298 297 296 295 294 293 293 293 293 293 293 293 293 292 292 292 292 291 290 290 290 289 289 287 286 284 285 284 284 284 284 283 282 280 277 278 279 280
308 305 300 298 298 297 297 295 294 293 293 293 292 293 293 293 292 292 291 291 291 291 289 288 289 288 288 287 287 286 284 283 284 283 284 284 283 281 279 278 278 278 276
300 298 297 298 297 296 295 293 293 293 293 292 292 292 292 292 292 291 291 291 291 289 288 288 287 287 287 287 286 285 284 283 282 282 283 283 281 280 278 278 278 277 278
297 298 298 297 296 295 292 292 292 292 292 292 292 292 291 290 291 291 291 290 289 288 287 287 288 287 286 286 286 285 284 283 283 282 281 281 281 280 280 279 279 279 279
297 298 297 296 294 293 292 292 292 292 292 292 292 291 290 289 288 289 290 289 288 288 287 287 287 286 286 285 286 286 284 283 282 282 282 281 281 281 280 280 280 280 279
298 297 295 294 293 292 292 292 291 291 291 291 291 291 290 288 288 288 288 288 288 288 287 287 286 285 285 285 285 284 284 283 283 282 281 281 282 281 281 281 280 280 279
296 295 294 292 291 292 292 291 291 291 291 291 291 291 290 288 288 287 287 287 286 286 286 285 284 284 283 283 283 283 283 282 282 282 281 282 282 281 281 281 280 280 279

GFSMW_850_thetae_054.txt.gz
Theta_e
327 328 328 328 328 327 330 332 330 328 327 326 325 324 321 321 318 318 316 312 313 313 312 312 311 310 309 307 306 305 303 302 302 301 300 300 299 302 301 303 304 304 303
329 330 331 331 330 331 332 330 329 328 326 324 325 324 321 319 316 315 312 313 312 312 312 311 309 307 305 302 303 303 302 301 301 300 300 300 299 299 300 299 299 300 299
330 332 333 333 333 332 332 330 327 325 325 325 323 321 317 316 315 315 315 314 313 312 311 309 307 303 301 302 303 303 302 302 300 300 299 299 299 299 299 299 299 298 298
331 332 333 332 332 330 329 328 327 326 325 322 320 319 317 316 315 316 315 314 313 311 310 307 304 303 304 304 303 303 302 301 301 300 299 299 299 298 298 298 298 297 297
331 331 333 330 330 329 329 327 324 324 322 319 318 317 317 317 317 315 314 313 310 308 306 305 304 304 304 303 303 302 302 302 301 300 299 298 298 298 298 297 296 295 295
330 328 329 328 327 326 324 324 323 321 320 319 318 318 318 316 315 313 311 309 308 306 304 304 304 303 303 302 301 301 301 301 299 300 299 298 297 297 297 296 296 295 294
327 324 324 323 323 323 322 321 320 319 318 318 318 318 317 316 312 309 308 307 306 304 303 303 303 303 302 301 300 301 301 300 297 299 298 297 297 297 296 295 294 293 293
324 322 321 321 322 321 321 319 319 318 318 317 315 313 312 309 309 308 307 306 304 304 303 303 302 301 300 300 299 299 299 299 298 298 297 297 297 295 295 294 293 292 292
324 322 321 321 322 321 321 320 319 318 317 315 312 310 309 310 309 306 305 304 303 302 300 299 298 297 297 296 296 297 297 298 298 297 297 296 295 294 294 293 292 291 291
323 322 321 321 322 321 321 320 319 317 315 313 310 308 309 307 305 304 303 301 301 299 298 297 296 296 296 296 296 296 296 297 296 295 295 295 295 294 293 292 291 291 290
323 322 322 322 322 321 320 320 319 315 312 308 307 307 307 306 303 301 300 299 298 297 297 296 296 296 296 296 296 296 296 295 295 295 294 293 293 293 292 291 290 289 289
323 323 323 322 322 321 319 318 315 310 308 307 308 309 304 301 300 300 298 298 297 297 296 296 296 296 296 296 295 296 295 294 294 292 293 293 292 291 290 289 289 288 288
323 323 323 322 321 320 317 314 311 308 307 307 302 301 300 300 298 298 298 297 297 296 296 296 296 295 295 295 292 292 292 292 291 291 291 291 290 290 289 288 288 287 286
323 323 322 321 318 317 314 311 309 308 305 302 301 300 298 297 298 298 297 297 296 296 296 295 295 295 294 293 292 292 291 291 290 290 290 290 289 288 287 286 285 284 283
323 322 320 318 316 314 311 309 306 304 302 300 299 298 297 297 297 296 296 296 296 296 295 295 295 295 293 293 292 292 291 290 291 290 289 288 287 287 286 285 284 283 283
321 320 318 317 315 312 310 306 304 302 300 299 297 296 295 295 294 294 294 294 295 295 295 295 295 294 292 293 293 292 291 289 289 288 288 287 286 286 285 284 284 283 282
319 318 317 316 313 311 308 305 302 300 298 297 295 295 294 293 294 294 294 294 294 295 295 295 294 292 292 291 290 292 290 289 288 287 287 286 286 285 285 284 283 282 280
318 317 316 314 311 308 304 301 300 298 296 295 294 294 294 293 293 293 294 294 295 295 294 294 293 291 291 291 291 290 289 288 286 287 287 286 285 285 284 283 282 280 279
317 316 313 311 307 304 300 299 298 297 295 295 295 293 293 293 293 294 294 294 293 293 293 292 292 290 291 290 290 289 288 287 285 286 285 285 284 284 283 283 281 279 280
315 313 310 307 304 300 299 298 297 296 295 294 294 292 292 293 293 293 293 292 292 291 292 292 291 289 289 290 289 288 287 287 284 284 284 284 284 284 283 282 280 279 280
312 310 306 301 299 298 297 296 295 294 294 294 293 292 293 293 293 292 292 292 292 292 291 291 289 288 288 288 288 287 287 285 284 284 283 283 283 283 282 280 279 279 279
304 301 299 299 298 297 296 295 294 294 293 293 292 292 293 292 292 292 292 292 292 291 291 289 288 287 287 287 287 287 286 285 284 283 283 282 282 282 281 281 280 280 279
299 299 299 298 297 295 294 294 293 291 292 291 292 292 292 292 291 290 289 291 291 290 288 288 287 287 287 286 286 286 286 285 284 283 283 282 282 281 281 281 280 280 280
299 298 298 298 295 295 294 293 292 292 292 292 292 292 292 291 291 290 288 288 289 289 289 289 288 288 287 286 285 286 285 286 284 283 283 282 282 282 282 281 281 280 280
298 298 296 296 295 294 293 292 292 292 292 292 292 291 291 291 291 289 288 287 287 288 288 288 288 287 286 285 285 285 285 285 284 283 283 282 282 282 282 281 281 280 280
298 296 296 295 293 293 293 292 292 292 292 292 291 290 290 290 289 288 288 287 287 287 286 286 286 286 286 285 284 283 284 283 283 282 282 282 281 282 282 281 281 280 280

GFSMW_850_thetae_057.txt.gz
Theta_e
323 322 324 326 328 330 331 330 329 329 329 327 325 324 324 323 323 320 316 314 312 312 311 311 310 309 308 306 302 302 302 301 300 300 299 298 299 297 299 300 299 299 299
326 326 326 327 329 328 331 331 330 329 327 326 325 321 321 319 317 316 314 312 313 312 312 311 310 309 306 302 300 300 300 300 301 301 299 299 298 299 298 298 298 298 298
328 328 329 328 331 330 331 331 330 329 325 323 324 322 319 316 315 315 314 313 314 314 313 311 309 305 303 302 301 301 301 302 302 301 300 300 299 299 298 298 297 297 297
329 330 331 331 332 332 332 330 329 324 325 325 324 319 316 316 315 315 315 315 314 314 312 309 305 303 303 303 303 303 302 302 302 302 301 300 299 298 298 297 297 297 296
330 331 332 332 332 332 330 328 322 325 325 322 320 319 317 316 316 316 315 314 312 309 307 306 304 304 304 304 303 302 302 301 301 301 300 298 299 299 298 297 297 296 295
331 332 333 332 328 327 328 326 324 325 321 319 319 318 318 316 316 315 313 311 309 307 306 304 304 303 303 303 302 301 300 300 300 300 300 297 299 298 297 297 296 296 295
331 331 331 329 327 328 328 327 325 322 321 319 318 317 317 316 315 314 312 310 309 307 306 304 303 303 303 302 300 300 300 299 298 298 299 298 298 297 297 297 296 295 294
329 328 329 328 327 325 324 323 322 321 320 319 318 318 318 316 314 311 309 308 307 307 305 303 303 302 300 299 296 296 296 296 297 299 298 297 297 296 296 295 295 294 292
326 326 325 325 324 324 323 322 320 319 318 318 317 317 316 313 309 309 309 310 306 303 303 303 299 296 295 295 295 295 296 296 296 297 296 295 295 295 295 295 293 292 291
324 323 322 322 321 321 320 319 319 318 318 318 317 315 312 309 309 310 310 304 301 301 300 297 296 296 295 295 296 296 296 296 296 295 295 295 294 294 294 293 293 291 290
324 322 321 321 321 321 321 320 319 319 318 316 314 312 308 309 306 303 303 301 300 299 298 297 296 295 295 295 295 295 295 295 295 295 294 294 292 293 293 292 291 290 289
325 322 321 321 322 321 321 320 319 317 316 314 311 308 307 303 301 301 300 298 298 297 297 296 296 295 295 295 295 295 293 291 291 291 291 292 291 291 290 290 289 288 288
324 322 322 322 322 321 321 319 318 315 311 309 308 304 301 301 300 299 298 298 298 297 296 296 295 295 295 295 295 295 292 291 290 290 290 290 290 290 289 288 288 287 286
323 323 323 322 322 320 319 318 316 311 309 307 302 300 300 300 298 298 298 297 296 296 296 296 295 295 295 295 295 293 292 291 290 290 290 290 289 288 287 287 286 285 284
323 323 323 321 320 318 316 314 312 310 308 302 300 300 298 297 297 296 295 294 294 294 295 295 295 295 295 295 293 292 292 291 290 290 290 288 288 287 287 286 285 285 284
323 322 321 319 317 316 314 312 310 308 302 300 299 298 297 295 293 293 293 292 292 294 294 295 295 295 295 294 291 291 291 291 291 289 288 288 287 287 286 285 285 284 283
322 320 319 318 316 315 313 310 306 303 301 299 297 295 294 294 294 294 292 292 294 294 294 295 294 294 293 293 290 290 290 290 289 287 287 287 287 286 285 285 285 284 282
319 318 318 316 313 311 309 305 303 300 299 297 295 296 295 295 294 293 293 293 294 294 294 293 293 293 292 292 290 291 290 289 288 287 286 286 286 285 285 284 283 283 281
317 317 315 313 309 307 304 301 299 297 295 295 296 298 295 294 292 292 293 293 293 292 291 291 292 292 292 291 289 289 289 289 288 287 286 284 285 284 284 284 283 282 281
315 313 310 307 305 301 300 299 297 296 296 296 299 294 294 292 292 293 293 293 292 292 292 291 292 291 291 289 288 289 288 288 287 286 285 284 284 283 283 283 282 281 280
311 308 306 303 300 299 298 297 296 296 299 297 295 294 293 291 292 292 292 292 292 292 292 291 291 291 289 287 287 287 288 287 286 285 284 283 283 283 283 282 281 280 280
304 303 301 299 298 297 297 297 299 297 294 294 293 292 291 292 292 292 290 290 289 291 291 290 290 289 287 287 287 287 287 286 286 285 284 283 283 282 282 281 281 280 280
300 299 299 298 297 298 299 300 294 294 292 292 291 291 291 291 292 291 290 290 290 288 289 289 289 288 288 287 287 286 285 285 285 285 285 283 283 282 282 281 281 281 280
299 299 299 299 300 299 294 294 293 292 292 292 291 291 291 291 291 290 290 290 289 287 287 287 288 288 288 288 287 286 285 285 285 285 284 284 283 283 282 282 281 281 281
299 299 299 297 295 295 294 293 292 292 292 292 292 292 291 290 289 290 290 289 288 287 287 286 286 286 286 287 286 286 285 284 284 285 284 283 283 282 282 282 282 281 280
297 296 296 295 293 293 293 293 292 292 292 292 292 292 291 291 291 290 290 289 288 288 287 287 287 286 286 286 286 285 284 284 283 283 283 282 282 282 282 282 282 281 281

GFSMW_850_thetae_060.txt.gz
Theta_e
323 324 325 324 324 328 324 319 323 326 328 327 326 326 323 323 323 320 314 312 313 312 312 312 311 310 308 304 301 301 300 299 299 299 300 299 298 298 299 298 297 297 297
326 326 324 324 327 328 328 327 328 328 328 328 325 323 324 323 322 319 315 314 313 312 313 312 311 308 305 303 302 301 300 299 300 301 301 300 299 299 298 298 298 297 296
322 323 325 325 328 329 329 329 329 329 329 328 326 323 322 320 317 316 314 312 312 313 314 313 309 308 306 303 302 302 302 302 302 302 301 301 300 299 298 297 298 297 297
324 327 327 327 328 330 330 330 329 329 328 326 323 319 316 316 316 315 314 314 315 315 314 311 310 308 306 303 303 303 302 302 301 300 300 300 300 298 298 298 298 298 297
326 326 326 327 329 330 330 331 330 327 325 324 322 322 316 316 315 315 315 315 315 312 309 308 307 305 304 303 303 303 302 301 299 299 300 300 299 298 297 298 297 297 296
328 328 328 329 330 331 331 330 325 324 325 325 323 320 317 316 315 315 315 314 311 310 308 307 304 304 303 303 303 302 300 298 299 299 298 298 298 298 297 297 296 296 296
329 330 331 331 331 330 329 324 325 326 325 321 321 320 317 316 316 315 315 313 310 307 305 306 305 303 303 302 300 298 296 295 295 296 296 298 298 298 297 296 295 296 294
329 331 332 331 329 327 327 324 325 326 320 319 319 318 317 316 315 313 309 307 307 308 311 308 304 302 302 298 295 293 293 293 294 295 297 297 297 295 295 295 295 294 294
330 332 332 329 326 326 327 326 327 322 320 319 318 317 317 316 315 312 310 309 309 308 304 303 301 300 296 294 293 292 293 294 295 295 296 295 295 295 293 294 294 294 292
331 331 330 329 327 326 324 322 321 321 320 320 318 318 317 316 311 309 310 310 307 303 300 300 298 296 296 294 293 293 294 295 295 294 294 295 294 294 293 293 292 292 291
328 328 328 327 326 325 324 323 322 321 319 318 318 317 316 311 308 309 308 308 301 300 299 298 297 297 295 295 293 294 294 294 294 292 290 291 292 292 292 291 292 290 289
327 325 325 325 324 322 321 320 320 319 319 318 316 313 311 309 308 302 304 301 299 298 298 297 297 296 295 294 295 295 295 295 294 291 290 289 290 291 290 290 289 289 288
326 324 323 323 322 321 321 321 320 319 317 314 311 310 311 304 300 301 300 298 298 297 297 295 295 296 295 294 295 295 295 294 292 291 290 290 290 290 290 289 288 287 287
327 323 322 321 321 321 321 320 318 316 313 311 311 304 301 300 301 299 298 297 296 294 295 294 295 295 295 295 295 295 294 292 292 291 291 290 290 290 288 287 287 286 285
324 323 321 321 321 320 320 318 316 314 312 308 303 301 300 300 299 298 295 294 296 297 293 293 294 295 295 295 295 294 293 291 291 291 291 290 288 288 288 287 286 285 285
323 322 321 321 321 320 320 319 317 311 307 305 302 299 298 299 297 295 296 299 297 293 292 293 294 294 294 294 293 293 291 290 290 289 290 289 288 287 287 286 286 285 284
322 321 322 322 321 320 318 314 310 308 305 302 299 298 296 295 296 300 298 294 292 292 293 294 294 293 293 293 292 292 291 289 290 290 289 287 287 287 286 286 285 284 284
321 322 321 320 318 315 311 309 306 304 302 299 297 296 297 299 299 294 293 292 292 292 292 292 291 291 291 292 291 291 290 289 290 289 287 287 286 285 285 285 284 284 283
319 319 317 316 313 311 308 305 301 300 299 297 296 298 299 297 294 293 292 292 292 292 292 292 291 291 291 291 291 290 288 288 289 288 287 286 286 285 284 284 283 283 282
316 315 314 312 309 304 301 300 297 296 295 296 298 300 295 294 293 292 291 292 291 291 291 292 292 291 291 291 290 288 287 286 287 287 286 286 284 283 283 283 283 282 281
311 309 307 304 301 298 298 297 296 297 299 299 299 295 294 293 291 291 291 291 291 290 289 289 290 290 290 290 288 287 287 286 287 286 286 286 284 283 283 282 282 281 281
304 303 302 300 298 297 298 298 299 300 300 296 294 292 291 291 291 291 291 290 290 289 289 289 288 289 289 289 288 287 286 286 286 285 285 285 285 284 283 282 282 281 281
301 300 300 299 298 298 300 301 298 295 293 292 291 291 291 291 291 290 290 290 289 289 289 288 288 287 287 288 288 288 287 286 286 286 285 285 285 284 283 283 282 281 281
299 299 299 299 300 299 296 294 293 292 291 291 291 291 291 291 291 291 290 290 289 289 289 288 287 287 286 286 286 287 287 286 286 285 284 285 285 284 283 283 282 281 281
299 299 299 296 294 293 293 292 292 292 292 292 292 292 292 292 292 292 291 291 290 290 290 289 288 287 287 286 286 286 286 285 285 285 284 283 284 283 283 282 282 281 281
297 295 295 294 293 293 292 292 292 292 292 292 292 292 292 292 292 292 292 292 291 290 290 290 289 289 287 286 286 286 286 285 285 284 284 283 283 283 282 282 281 281 282

GFSMW_850_thetae_066.txt.gz
Theta_e
326 325 323 324 325 326 328 328 329 326 323 323 324 323 325 327 326 322 319 319 317 314 311 311 311 312 311 309 307 305 303 302 301 301 301 299 298 298 298 298 297 296 295
326 326 324 323 323 326 328 328 327 326 323 322 323 324 326 326 324 321 320 316 313 312 312 312 313 310 307 307 306 305 304 302 302 301 301 300 298 298 297 298 297 296 296
325 324 324 325 324 324 324 325 325 322 321 320 324 326 326 325 321 321 319 316 314 312 312 312 310 307 307 306 306 306 304 302 302 301 299 298 297 298 297 297 297 297 296
327 322 320 323 322 322 324 325 325 321 320 321 324 326 326 324 323 322 320 317 314 312 312 312 308 308 307 308 308 305 303 302 301 299 296 296 296 299 298 297 297 297 296
328 324 321 322 323 324 325 326 325 321 320 321 325 326 325 324 323 322 319 315 313 313 312 312 309 308 307 309 309 303 302 300 296 294 293 293 294 295 297 298 297 297 296
328 325 323 322 323 324 327 326 325 323 319 323 326 326 325 324 320 319 316 314 313 313 313 311 311 309 308 310 307 302 300 295 293 292 293 293 294 295 297 297 296 295 295
327 326 323 322 322 324 325 324 324 325 325 325 327 326 324 323 318 315 315 314 314 314 313 311 306 306 309 305 302 298 295 294 292 292 293 293 293 293 292 294 294 295 293
325 325 325 323 323 323 324 324 324 325 326 326 327 326 325 322 320 316 315 314 314 313 312 309 308 309 302 300 297 296 295 293 292 293 293 293 293 293 291 292 294 295 294
322 324 323 323 323 323 324 325 326 327 327 327 327 325 323 321 319 317 316 315 314 312 309 310 309 303 299 297 297 296 294 293 293 293 294 294 294 292 290 291 293 292 292
322 322 322 322 322 323 326 327 328 327 328 326 324 323 321 320 320 319 316 315 312 309 310 310 302 299 297 297 296 295 295 293 294 294 294 294 293 290 290 290 289 290 290
323 323 323 323 323 325 327 328 325 324 323 322 323 322 321 320 321 318 315 313 309 311 308 303 298 297 297 295 295 295 294 294 294 294 294 294 292 290 290 289 289 290 290
325 325 325 324 326 328 327 327 324 323 323 323 324 322 320 318 316 311 308 309 310 307 302 298 298 297 295 295 294 294 294 294 294 295 294 293 290 290 290 290 289 290 289
326 326 327 327 327 329 329 326 325 324 324 324 321 318 315 311 310 308 311 309 304 299 298 297 295 294 295 294 293 294 294 294 295 294 293 292 290 290 289 290 290 289 289
324 327 328 328 328 330 329 326 325 324 325 320 317 316 313 312 310 311 306 302 299 298 296 294 295 296 294 292 292 292 293 294 294 293 292 291 290 289 289 289 290 289 287
323 325 328 329 329 329 327 325 324 324 321 316 314 311 311 310 309 302 299 298 297 295 296 299 296 293 291 291 291 290 291 292 292 291 291 290 289 289 289 289 289 288 287
321 323 325 327 327 327 325 322 321 318 315 314 312 311 309 306 300 297 297 296 298 300 299 293 291 291 291 291 290 290 290 290 291 290 290 289 289 289 289 288 287 287 286
318 321 322 322 323 323 322 319 317 316 315 312 311 308 302 299 297 296 297 299 300 299 292 291 291 291 290 290 290 290 290 290 290 290 290 288 287 289 288 287 286 286 286
319 320 320 320 319 320 320 318 316 314 312 310 306 300 296 297 299 299 299 299 296 293 291 290 290 290 289 289 289 289 290 290 290 290 289 287 287 287 287 286 286 285 284
319 319 319 318 318 317 316 315 312 310 306 301 297 297 298 298 299 299 298 295 293 291 290 290 290 289 289 289 289 288 288 290 290 289 288 287 286 287 287 286 285 284 283
318 318 317 317 316 314 312 310 307 302 298 296 297 297 298 299 299 296 294 291 290 290 290 290 289 289 289 289 289 288 287 288 288 288 288 287 286 285 287 286 285 284 283
315 315 314 314 312 310 307 303 297 296 297 298 299 299 300 297 294 291 290 290 290 290 290 290 290 289 290 289 289 289 287 287 286 287 287 287 286 286 286 285 285 284 283
309 308 308 304 300 299 300 298 297 298 299 299 298 296 292 291 291 291 291 291 291 291 291 291 291 291 291 291 291 290 289 287 286 286 286 287 287 286 286 285 285 284 284
304 302 301 297 297 298 299 299 297 298 298 296 292 291 291 291 291 291 291 291 291 291 291 291 291 291 291 291 291 291 290 289 287 286 286 286 287 287 286 285 285 285 284
300 299 298 298 297 296 297 298 300 294 292 292 291 291 291 291 291 291 290 290 289 288 287 286 285 286 286 287 288 289 290 290 288 287 286 286 285 285 285 285 285 285 284
298 298 298 297 297 298 297 293 292 292 291 291 291 290 289 288 287 287 286 285 284 282 283 284 285 285 284 283 284 286 287 289 288 286 286 285 285 285 285 285 284 284 283
298 297 296 300 298 293 292 292 291 290 289 288 288 288 287 286 285 284 284 283 283 282 281 281 281 281 283 284 285 285 286 287 288 287 286 286 286 285 285 285 284 284 283

GFSMW_850_thetae_072.txt.gz
Theta_e
326 325 325 324 324 323 324 326 327 326 324 319 318 318 320 324 322 322 323 324 323 321 320 320 317 311 311 311 310 310 310 308 308 307 308 306 304 303 302 302 301 301 300
326 325 324 325 324 325 326 327 327 328 328 324 322 324 324 323 324 323 324 324 322 319 319 318 312 311 312 311 310 309 309 309 307 307 306 306 304 303 302 302 301 301 300
327 325 325 325 325 325 325 326 328 328 327 328 324 325 325 323 324 324 324 322 319 319 317 312 311 311 312 310 309 310 310 309 307 305 303 302 302 300 301 301 301 300 300
326 327 326 326 327 327 326 326 327 329 328 327 326 322 324 325 323 324 323 320 318 317 313 312 312 312 312 310 309 310 309 307 307 305 303 301 300 299 299 299 300 300 300
329 326 327 327 327 327 328 329 329 329 328 327 327 325 325 325 324 324 323 319 318 315 312 312 312 312 311 309 308 310 309 306 304 301 300 299 299 299 300 300 300 299 298
330 330 328 327 327 328 329 328 327 326 327 327 326 325 325 322 324 324 324 319 316 316 314 313 312 312 311 309 308 310 310 305 299 299 298 298 298 298 298 298 297 297 296
329 331 330 329 327 328 327 326 326 327 326 326 327 325 322 320 322 324 324 317 316 317 316 313 312 312 310 308 310 310 303 299 300 299 298 298 298 298 297 297 296 296 295
326 329 330 330 328 327 323 321 322 325 325 325 326 326 324 322 319 323 323 319 318 316 314 313 311 311 308 310 310 306 300 300 298 298 298 298 298 297 296 296 295 295 295
324 326 329 330 330 329 323 321 321 323 324 324 325 324 325 324 322 324 323 319 317 315 313 312 312 310 309 309 307 300 300 299 298 298 298 298 297 297 296 295 294 294 294
323 324 326 328 329 330 329 324 323 322 323 324 326 324 324 324 323 325 322 317 315 314 313 312 309 308 309 307 299 299 300 299 298 298 298 297 296 296 296 295 294 293 293
324 324 324 326 327 329 329 328 325 325 327 324 324 324 324 325 325 323 322 320 316 314 312 309 310 310 307 299 298 299 299 298 298 298 297 297 296 296 295 295 294 293 293
326 326 326 326 327 328 329 328 327 326 327 325 324 324 324 324 324 322 320 319 314 312 311 312 310 305 300 299 299 298 298 298 298 297 297 296 296 295 295 294 294 293 293
325 327 327 328 328 328 328 328 328 326 323 324 325 324 324 322 322 321 319 315 312 310 310 308 303 300 299 298 299 298 298 298 297 296 296 296 295 295 294 294 293 293 292
322 326 328 329 329 329 328 327 326 323 323 325 323 323 322 319 319 319 310 311 309 309 305 305 300 298 297 299 298 297 296 296 295 295 295 295 295 294 294 293 292 292 291
319 321 326 329 329 328 328 325 323 324 325 323 322 322 319 319 315 311 311 309 307 303 307 299 296 299 299 297 296 295 294 294 294 294 294 294 294 293 291 291 291 291 290
317 318 323 327 326 325 323 322 325 324 321 320 320 319 316 311 311 311 310 304 303 305 297 298 300 298 296 293 291 291 290 292 293 293 293 293 293 293 292 290 290 289 289
319 320 322 324 323 322 321 320 321 320 319 319 316 312 309 310 310 305 302 302 300 299 300 299 296 295 295 292 290 290 289 290 291 292 292 292 292 292 291 290 290 289 288
319 319 320 320 319 319 317 317 314 313 316 313 310 308 308 307 300 299 299 299 300 299 297 296 295 294 293 290 290 289 289 290 291 292 292 292 292 291 291 291 290 289 288
316 316 316 316 316 315 314 313 315 315 313 310 309 307 301 299 299 299 301 299 297 296 295 294 293 293 293 292 291 291 291 291 292 292 291 291 291 291 290 290 289 288 288
312 313 314 313 314 313 311 313 312 310 309 308 302 299 299 298 300 299 297 295 293 292 293 293 293 292 291 291 291 290 290 290 290 290 290 290 290 290 289 287 288 288 287
310 310 309 309 309 307 306 304 305 306 302 300 299 298 299 298 298 295 292 291 293 292 291 290 290 289 287 286 285 284 284 285 286 287 286 287 289 289 289 288 286 287 287
307 306 306 305 304 303 304 302 300 299 299 298 298 299 299 298 293 291 291 291 291 290 288 286 286 286 286 286 285 284 284 284 284 285 285 286 286 286 287 288 287 286 287
304 304 303 302 301 300 301 299 298 297 298 298 299 298 293 291 291 291 290 288 287 286 285 285 286 286 286 286 285 284 284 284 285 285 286 286 285 286 287 287 287 286 286
303 302 301 299 298 297 296 296 297 298 299 297 292 291 291 290 289 288 287 286 285 284 284 284 284 284 284 284 282 282 282 284 285 285 286 286 286 286 286 287 286 286 286
300 299 298 297 296 297 298 299 299 297 293 291 291 290 288 288 286 285 284 284 283 283 282 282 282 281 281 280 281 281 282 283 284 285 286 287 287 287 287 287 286 286 286
298 297 296 297 297 298 299 297 293 292 291 289 288 288 286 285 284 283 283 283 282 281 280 280 279 279 279 279 279 279 280 281 282 284 285 286 286 286 287 287 287 286 286

GFSMW_850_thetae_075.txt.gz
Theta_e
326 325 324 325 323 323 323 322 324 322 323 324 324 323 324 322 323 325 325 324 325 324 324 322 321 317 315 313 312 312 312 312 312 311 312 311 309 307 306 305 304 304 303
325 325 325 326 323 322 322 323 326 327 327 325 323 322 324 324 325 325 323 323 323 323 323 322 319 316 315 312 312 312 313 313 311 311 310 310 309 307 306 305 304 304 303
326 325 326 326 326 324 324 325 327 328 328 326 323 324 325 326 325 325 326 323 324 323 322 320 318 315 314 313 312 312 313 313 312 310 309 308 307 305 305 304 303 304 303
326 326 326 327 326 326 327 327 328 329 328 328 325 325 326 327 326 326 325 323 324 322 321 319 317 315 314 313 313 313 313 312 311 309 308 306 305 304 304 303 303 302 302
327 326 326 326 327 327 327 327 328 328 329 329 327 326 326 325 326 326 324 324 323 320 319 317 316 315 313 313 312 311 310 310 310 307 304 304 303 302 302 303 303 303 301
328 327 327 326 326 327 328 328 328 328 329 330 329 329 328 327 326 324 323 323 321 320 317 316 315 314 313 312 311 308 310 311 310 305 303 302 301 301 302 302 301 300 299
329 328 327 327 327 327 329 329 330 330 330 331 331 329 329 327 325 322 321 324 323 318 317 316 315 314 312 311 309 310 310 310 305 303 302 300 301 301 301 300 299 299 298
327 330 330 328 327 327 329 330 330 330 330 330 329 331 328 327 325 323 321 322 323 319 318 316 314 313 311 309 309 310 308 307 303 302 301 301 300 300 300 299 298 297 297
325 327 329 330 330 329 329 331 331 330 330 330 330 329 327 326 326 324 323 322 322 318 317 316 314 312 310 308 309 309 305 301 302 302 301 301 301 300 299 298 298 297 297
325 326 327 329 331 331 330 331 331 329 330 330 330 329 327 327 326 325 323 323 322 318 316 315 312 311 309 308 309 308 302 303 302 301 301 301 300 299 298 298 297 297 296
325 326 327 328 330 332 332 331 330 329 329 330 330 329 329 328 326 324 323 322 320 317 315 313 312 308 308 308 308 302 302 302 302 301 301 300 299 298 298 298 297 296 296
324 326 326 327 328 331 332 332 332 330 329 330 330 328 327 325 326 324 322 321 318 317 315 312 310 310 310 304 302 302 302 301 301 301 300 299 298 298 298 297 297 296 295
323 325 326 327 328 329 331 332 332 331 329 330 328 326 325 326 326 324 323 321 319 312 310 310 309 309 306 301 302 301 301 301 300 300 299 298 298 297 297 297 296 296 295
322 324 327 328 329 329 331 331 331 331 330 328 327 324 326 325 324 321 320 318 315 309 308 308 307 306 301 301 300 301 300 299 298 297 297 297 297 296 296 296 295 295 294
320 321 324 328 330 331 331 330 331 329 326 323 322 324 324 323 320 318 314 313 310 310 309 308 305 300 300 301 301 299 297 296 295 295 295 295 295 295 295 295 294 293 293
320 320 322 325 330 331 331 329 326 322 320 319 320 319 319 318 317 312 310 310 309 308 305 306 300 301 302 300 297 294 291 292 293 294 294 294 294 294 294 294 293 293 292
322 322 322 326 330 329 327 324 320 317 317 316 316 316 317 315 312 311 310 307 304 304 301 301 302 301 298 297 295 292 290 290 292 292 293 293 293 293 293 293 293 292 292
322 323 325 326 326 325 321 319 317 315 316 317 316 314 311 310 310 306 302 301 301 302 303 301 299 298 297 295 294 292 290 291 292 293 293 293 293 293 292 292 292 292 291
322 322 323 323 322 319 317 315 315 315 314 312 309 307 307 307 304 301 301 303 302 300 299 298 296 295 295 295 294 293 292 292 292 292 292 292 291 291 291 291 291 291 290
318 319 320 320 319 317 315 313 310 309 307 305 303 305 305 302 302 302 302 300 299 297 295 295 295 295 294 294 293 292 291 287 286 287 288 287 287 287 287 288 289 289 289
315 316 316 316 315 313 311 308 307 306 304 301 301 301 301 300 300 299 298 296 295 295 295 292 291 290 289 289 288 286 285 285 285 284 284 285 286 286 286 286 286 286 287
313 314 314 313 312 310 309 308 305 303 302 301 300 299 299 298 298 296 295 294 294 294 292 289 287 288 289 288 287 286 285 284 283 283 285 286 286 286 286 286 285 285 287
312 312 311 309 308 307 306 305 303 301 300 299 298 297 297 296 294 293 293 291 290 290 290 288 288 288 287 287 287 286 283 282 282 282 283 284 285 286 287 287 287 286 287
310 309 307 306 305 304 303 302 301 300 299 298 296 295 293 291 290 289 288 289 288 288 286 287 287 286 285 285 284 281 280 280 280 281 282 284 286 287 288 288 288 287 287
308 307 306 304 302 301 300 299 298 298 296 294 292 291 290 289 288 288 287 286 286 285 283 284 282 282 281 282 279 279 279 279 279 280 282 284 285 285 286 287 287 287 287
305 304 302 300 299 297 296 295 294 294 292 290 290 289 288 287 286 286 286 285 284 283 282 281 280 280 279 279 279 278 278 278 278 279 282 282 282 282 283 284 286 287 287

GFSMW_850_thetae_078.txt.gz
Theta_e
324 323 322 322 321 321 318 316 315 316 317 318 318 320 321 316 313 314 320 322 325 325 324 324 323 321 317 316 312 312 312 312 312 312 313 313 311 310 308 305 305 305 304
325 325 325 324 322 319 319 319 320 321 320 322 322 320 321 317 318 321 322 323 325 324 324 324 322 320 316 315 313 312 313 314 313 311 311 311 310 309 308 305 304 304 304
326 325 325 326 324 321 321 323 324 323 323 323 324 323 323 323 320 321 323 323 322 322 323 323 322 319 316 315 313 313 314 314 313 312 311 309 308 307 305 305 305 304 303
326 326 325 324 323 323 323 322 324 326 325 326 325 322 323 325 322 322 324 322 321 323 324 323 322 318 316 315 313 313 313 313 312 311 310 307 306 305 305 304 304 304 304
327 326 326 327 326 324 322 322 324 326 327 326 326 323 324 324 323 323 324 324 323 323 324 322 320 318 316 314 313 313 313 313 312 311 310 306 305 304 303 302 302 302 303
327 326 326 327 327 326 326 324 327 329 328 328 326 325 326 326 326 325 324 324 323 323 323 321 319 317 316 314 313 313 312 311 311 311 307 304 303 302 302 302 302 302 301
328 327 326 327 327 327 327 328 327 327 329 330 328 327 326 326 327 326 325 324 322 324 322 320 318 317 315 313 313 313 311 310 310 309 307 304 302 301 301 301 301 300 299
329 329 327 326 327 327 327 327 328 327 328 329 329 328 327 328 327 327 324 323 320 322 323 321 317 316 315 314 313 311 309 309 308 306 304 302 301 300 301 301 300 299 298
327 330 329 328 327 327 328 328 329 330 329 330 330 330 327 328 329 326 325 324 321 321 323 320 317 315 315 314 312 309 309 309 308 306 303 302 301 301 301 300 299 298 298
326 326 329 330 329 328 328 329 330 329 331 330 331 330 329 329 329 327 326 325 324 322 320 319 317 315 314 313 309 309 309 308 305 303 303 301 301 301 300 299 298 298 298
326 326 326 327 331 330 329 329 329 330 331 330 330 330 330 328 328 327 326 325 325 322 319 318 316 315 314 311 308 309 308 303 303 302 302 301 301 300 300 299 298 298 298
322 324 326 327 329 332 331 330 330 331 331 331 331 331 329 328 326 326 326 325 324 322 319 317 316 314 312 310 309 309 304 304 302 302 301 301 301 300 299 299 298 298 297
322 324 325 326 327 328 333 332 332 332 331 330 330 331 329 325 326 325 324 323 323 321 319 316 314 312 310 309 308 305 304 302 302 301 301 300 299 298 298 297 297 297 297
321 321 325 326 327 328 330 332 333 333 331 330 329 330 327 325 325 324 324 322 321 319 316 310 310 310 309 307 305 302 301 301 301 300 298 298 297 296 296 296 296 296 296
321 320 321 326 328 329 330 331 332 332 331 330 329 327 326 324 323 323 322 321 319 315 311 310 308 309 306 302 300 300 301 300 298 297 296 295 295 295 295 295 294 294 294
321 321 320 322 329 330 331 331 331 331 329 328 326 325 322 322 321 321 319 318 315 310 310 308 307 304 301 301 301 301 300 298 294 291 291 291 292 292 293 293 293 293 293
321 322 322 322 331 332 332 330 331 329 328 326 323 320 320 319 318 318 315 312 310 309 306 305 301 301 302 302 301 299 296 293 291 290 290 291 292 293 293 293 293 293 293
322 322 323 328 331 331 330 329 327 325 324 320 318 319 318 317 315 311 310 310 308 305 303 302 302 302 300 298 297 296 294 293 292 291 292 292 292 292 292 292 292 292 292
322 323 326 327 327 327 327 325 323 322 319 318 317 316 315 313 311 310 307 303 302 303 303 302 300 298 297 296 295 295 294 293 292 291 289 287 286 287 287 287 286 286 285
323 324 324 324 323 322 321 320 319 317 315 314 313 311 310 310 308 304 302 303 303 301 300 297 296 295 295 295 295 293 291 290 288 286 285 285 284 284 284 286 286 286 286
321 322 322 321 318 317 316 317 316 313 311 307 305 306 306 303 302 302 302 300 299 296 296 295 294 294 293 291 289 288 287 286 286 285 284 283 283 283 285 285 286 286 287
318 319 319 318 317 315 313 311 309 307 305 304 303 303 302 301 301 299 298 296 296 295 294 293 292 289 288 288 288 286 286 286 284 282 282 282 282 282 283 284 286 287 287
315 316 316 314 313 311 310 309 306 304 303 302 302 301 300 298 298 297 296 295 293 292 291 290 288 288 288 287 287 287 287 284 282 281 281 281 281 282 286 286 287 287 287
314 314 313 311 309 308 308 305 304 303 301 300 299 298 296 294 293 293 292 291 290 290 289 288 287 287 286 285 285 284 282 281 281 280 280 280 281 283 284 284 285 286 286
312 311 309 308 306 305 304 303 302 301 300 298 296 294 293 291 290 290 289 289 288 287 286 285 285 284 283 282 281 280 280 280 279 279 279 280 282 281 281 281 281 283 285
309 308 307 305 303 301 300 300 299 298 296 293 291 291 290 289 288 288 287 286 285 285 284 283 282 281 281 280 280 279 279 279 278 278 279 281 280 280 279 278 279 279 281

GFSMW_850_thetae_081.txt.gz
Theta_e
322 322 322 321 321 320 320 320 319 318 316 314 314 315 315 315 315 315 316 316 318 321 323 324 323 323 322 321 318 312 312 312 312 312 312 312 312 312 311 309 305 304 305
324 321 321 321 321 320 319 318 317 317 317 316 314 316 315 316 317 316 316 317 320 322 323 323 323 323 321 319 316 313 312 312 312 313 311 312 311 311 310 308 306 305 305
322 322 322 322 321 319 317 315 315 315 314 313 315 316 318 318 316 314 315 316 321 322 323 323 324 323 321 319 317 314 312 312 313 313 313 311 309 309 308 306 306 305 304
322 324 323 321 319 317 316 316 318 319 319 319 319 319 320 322 319 319 317 321 322 322 322 323 323 322 321 318 317 316 312 314 314 313 312 312 311 308 306 305 304 304 304
323 324 324 321 319 318 319 321 323 324 323 322 321 324 323 322 322 322 319 321 322 322 323 323 323 322 322 318 316 316 312 313 314 313 312 312 309 305 304 303 302 302 302
326 324 322 324 323 319 319 320 323 324 325 325 324 325 324 322 322 323 321 321 323 322 322 323 323 322 321 319 317 315 313 313 313 312 311 310 306 305 304 302 302 302 302
326 326 325 323 324 324 323 321 321 323 324 326 324 326 324 322 323 324 324 323 321 323 323 323 323 322 321 318 316 314 314 313 312 310 310 308 305 304 302 301 301 301 301
326 326 326 325 326 326 325 324 322 323 325 326 327 325 324 323 324 325 326 325 324 324 323 323 323 321 319 318 315 314 313 313 311 310 309 307 307 307 303 301 300 300 300
326 326 326 326 326 326 326 325 325 324 326 328 329 329 328 325 325 326 326 325 324 324 323 322 322 320 318 317 316 313 312 312 309 308 308 308 308 303 302 301 300 300 299
327 326 326 326 326 326 326 325 325 325 323 325 328 329 329 329 326 326 326 325 325 325 322 322 322 318 316 316 313 313 312 309 308 308 309 306 303 302 301 300 300 300 299
324 326 327 327 326 326 326 326 326 326 326 326 326 329 330 330 329 328 326 326 325 324 323 322 322 319 317 315 314 314 311 310 310 308 305 303 302 302 301 300 300 300 299
325 324 323 326 328 327 327 327 327 327 327 328 329 329 330 330 328 328 327 327 325 324 323 322 321 319 317 314 314 314 311 310 309 308 303 302 301 301 301 301 299 299 298
322 324 323 322 328 329 328 327 327 328 328 330 330 330 330 330 329 328 326 326 325 325 323 321 320 319 317 315 313 311 310 308 307 303 302 302 301 301 300 299 298 298 297
321 322 324 324 323 327 330 329 329 329 329 329 330 330 331 331 328 326 325 325 325 324 321 321 320 318 315 313 311 309 307 305 302 302 301 301 300 299 297 296 295 295 295
322 321 325 325 325 326 330 331 331 331 331 331 330 330 330 329 327 325 325 325 322 321 321 319 315 312 311 310 308 306 302 301 302 301 301 299 298 296 294 295 294 293 293
321 320 321 325 327 327 328 330 331 331 330 329 329 328 328 326 326 325 324 323 322 320 317 312 310 310 309 307 303 301 301 301 301 301 299 296 291 290 291 291 292 293 293
320 320 320 320 327 328 329 330 331 330 330 329 328 326 325 324 324 322 321 321 319 316 311 310 309 309 304 303 301 301 301 301 300 297 293 290 290 290 291 292 292 292 292
321 322 322 323 329 330 330 330 330 329 328 326 325 324 322 321 320 319 318 317 314 310 310 308 305 302 302 302 302 302 300 298 295 293 292 292 291 291 290 288 287 286 286
321 322 322 325 331 330 330 329 328 327 326 324 323 321 319 319 319 317 316 313 310 309 305 303 302 301 302 301 299 298 296 295 294 293 292 291 288 286 285 285 284 284 284
322 322 324 326 328 328 328 327 326 323 322 321 319 318 317 315 313 311 310 309 305 303 303 303 302 301 299 298 296 295 295 294 293 290 287 286 285 284 283 283 283 283 283
322 323 324 325 325 324 323 321 320 320 319 317 316 315 313 311 310 309 305 302 303 303 302 300 298 297 296 295 295 294 292 289 287 286 286 284 283 283 282 282 282 285 286
321 323 323 323 320 318 318 318 317 316 315 314 312 311 308 307 304 302 303 302 302 301 299 297 296 295 294 293 290 288 288 287 286 285 283 282 282 281 281 282 285 286 286
320 321 320 319 317 315 314 314 311 310 308 307 305 303 302 302 302 302 301 299 298 297 296 295 294 291 289 288 288 287 286 286 285 282 281 281 280 280 281 282 282 282 283
317 317 317 315 313 312 310 309 307 306 304 303 302 302 301 300 299 298 297 296 295 294 293 291 290 289 287 287 287 286 284 283 281 281 281 280 280 280 282 281 280 279 280
315 315 313 311 309 309 307 305 304 303 302 301 299 298 297 296 295 294 294 293 291 290 290 289 287 287 286 285 283 282 281 281 280 280 279 279 280 280 280 279 279 278 278
312 311 309 307 304 304 303 302 302 301 300 298 296 294 292 291 290 290 289 289 287 286 285 285 284 283 282 281 281 281 280 280 279 279 279 279 279 279 278 278 277 277 276

GFSMW_850_thetae_084.txt.gz
Theta_e
322 323 324 324 323 323 323 322 321 319 316 316 316 312 314 316 319 316 316 319 321 320 321 321 322 323 323 323 322 321 320 312 311 310 311 311 312 312 311 311 309 306 305
321 323 323 323 322 322 321 321 321 319 319 319 318 315 317 317 316 316 316 317 317 317 319 322 323 324 324 322 321 321 319 312 312 311 311 312 312 311 311 310 310 307 305
322 322 322 321 321 321 321 321 320 318 318 317 314 313 314 315 316 315 316 316 316 317 320 322 322 323 323 323 322 320 317 314 312 312 312 311 312 311 311 310 309 306 305
319 321 322 321 321 321 319 319 319 317 317 315 314 315 316 315 315 315 315 316 316 317 320 321 322 323 323 323 322 319 317 314 312 312 313 313 312 311 309 308 306 305 305
317 316 321 320 321 320 318 317 316 317 316 316 315 316 316 315 317 317 316 313 313 315 319 322 323 323 323 323 321 319 317 315 312 312 313 313 311 311 309 306 305 305 303
319 318 318 321 320 318 316 315 315 315 315 314 314 315 315 315 316 315 315 317 318 318 321 322 323 323 323 323 321 319 317 316 313 313 313 313 312 311 308 306 306 304 302
320 320 320 320 319 317 316 316 318 320 319 318 319 318 318 319 320 321 321 322 319 320 321 322 322 323 323 323 322 321 317 315 313 313 313 312 311 310 306 305 304 302 301
324 322 321 319 319 318 318 318 320 322 324 324 324 322 322 322 322 322 322 321 321 319 318 323 322 322 323 323 320 319 316 314 313 313 313 311 310 306 305 309 306 301 300
325 325 324 323 321 319 318 318 318 319 321 324 324 325 324 324 324 323 322 322 324 324 323 322 323 323 323 323 320 317 315 315 313 313 311 311 307 307 309 305 302 301 300
324 325 325 325 324 322 320 320 320 320 320 321 323 324 326 326 324 324 323 323 324 324 324 324 324 323 322 323 320 319 316 315 313 312 311 309 309 309 307 306 301 300 300
326 325 326 326 326 325 323 324 323 323 322 321 321 324 325 327 328 326 325 324 325 325 324 324 324 322 322 322 320 318 316 315 312 311 310 309 308 307 304 302 301 300 300
326 326 326 326 326 326 325 326 326 325 324 324 323 322 325 327 328 328 327 325 326 326 325 324 323 321 321 321 320 317 316 314 313 311 310 308 306 303 302 301 300 301 300
324 326 326 326 326 326 326 326 326 326 326 326 325 325 325 325 325 327 328 328 324 321 324 323 322 321 320 320 319 317 315 314 312 310 308 306 303 302 301 301 300 299 298
321 324 323 325 324 325 327 327 327 327 327 326 326 326 326 326 327 329 329 327 322 318 324 324 323 321 320 319 318 316 314 311 309 307 303 302 302 301 300 300 299 297 296
321 321 323 324 323 322 325 326 328 328 327 327 327 327 327 329 329 328 328 322 324 322 322 324 323 320 319 318 316 314 311 308 306 303 302 301 301 300 298 297 296 294 294
321 321 321 324 324 324 325 327 329 329 328 328 328 328 329 329 328 327 328 324 324 325 323 322 321 320 318 314 312 310 309 306 303 301 301 300 299 298 297 292 290 290 291
320 320 320 322 325 325 326 327 328 330 329 329 329 329 329 327 327 326 324 325 323 323 322 321 318 315 313 311 309 308 305 301 301 300 300 299 298 296 291 290 291 290 291
320 320 320 320 324 326 327 328 330 331 330 328 328 328 326 325 324 323 323 321 320 321 319 316 311 309 309 309 307 304 300 300 299 299 298 296 293 292 292 291 289 287 286
320 320 321 321 322 327 329 329 330 331 330 328 326 326 324 323 322 322 320 320 318 316 312 309 309 308 304 305 302 301 301 300 298 296 294 293 293 291 288 286 285 284 284
318 318 320 321 325 328 328 328 328 327 327 326 325 323 321 320 319 319 319 316 313 312 309 307 305 302 302 301 300 299 298 297 296 294 294 291 287 286 284 283 283 283 283
318 321 322 323 327 328 327 327 326 325 323 321 319 318 317 316 317 316 313 311 309 308 305 303 302 300 299 299 299 297 296 295 294 290 287 286 285 283 283 282 282 282 282
321 322 322 324 324 323 323 322 321 319 319 316 315 315 314 314 312 310 309 306 304 303 303 302 300 297 297 297 295 295 293 291 288 287 286 284 282 282 281 281 281 282 282
321 322 322 322 320 317 316 317 316 315 313 314 312 310 308 307 306 304 302 303 303 303 300 297 296 296 295 294 292 290 288 287 286 285 283 281 281 280 280 281 281 281 280
320 320 320 318 316 314 312 313 313 311 309 307 306 304 303 302 302 302 300 299 296 296 296 296 295 292 290 289 288 287 287 286 284 282 281 280 280 279 280 280 280 279 278
318 317 317 315 312 310 308 307 307 307 305 303 301 301 301 299 297 296 293 293 294 293 291 290 290 289 288 287 288 287 283 281 281 280 279 279 279 279 279 279 278 277 277
315 314 312 310 307 306 305 303 303 303 302 301 298 296 296 293 292 291 291 289 289 289 289 286 285 284 285 285 282 281 281 281 279 279 278 279 279 278 278 277 277 276 275

GFSMW_850_thetae_087.txt.gz
Theta_e
323 324 323 324 323 325 325 324 325 325 322 318 317 315 319 315 314 316 318 316 315 315 317 319 319 320 320 322 322 321 320 319 314 311 310 310 310 311 311 311 310 310 308
321 322 320 322 323 323 323 324 323 324 320 318 315 315 321 319 315 316 316 315 315 317 319 321 322 322 322 323 322 322 320 319 314 312 311 310 310 311 311 311 310 309 308
321 321 323 322 321 322 321 322 322 321 320 317 314 313 316 316 319 316 315 315 317 317 318 319 320 322 322 323 323 322 321 320 317 312 311 311 311 312 312 311 310 309 309
319 320 322 322 323 322 321 320 320 320 319 316 315 316 314 314 315 317 316 316 316 318 318 318 321 322 323 323 323 323 321 321 319 314 312 311 312 311 311 311 310 309 308
319 316 321 321 321 321 320 320 320 320 319 319 318 318 316 315 318 317 316 316 316 317 316 317 320 321 322 322 323 323 322 321 318 315 313 312 312 312 312 311 311 308 306
320 317 318 321 321 321 320 318 318 318 318 318 317 315 315 315 316 315 315 315 315 315 316 315 317 320 321 322 323 323 322 321 318 316 312 312 312 312 312 311 311 307 305
320 319 317 320 321 320 319 317 317 317 317 317 316 314 315 316 316 315 316 315 315 316 316 314 317 320 322 322 322 323 322 321 318 316 313 313 313 312 310 309 310 305 304
321 320 317 317 320 318 316 315 315 315 315 316 316 315 315 316 317 317 316 316 315 313 313 315 318 319 321 321 322 323 322 322 317 315 313 314 313 313 311 312 306 304 306
323 323 321 318 317 319 317 317 316 316 316 316 315 314 313 313 314 313 313 314 316 318 320 320 318 319 321 322 322 323 323 322 320 315 316 314 313 312 310 310 305 309 304
323 323 323 322 320 317 318 317 317 318 318 318 317 318 319 318 319 319 320 321 320 321 321 322 322 320 320 323 322 323 323 321 319 316 316 314 313 311 311 307 308 307 305
323 324 324 325 324 320 318 318 317 317 318 320 321 322 323 324 323 322 322 323 324 324 323 322 323 324 323 323 322 323 322 321 319 315 316 314 313 311 310 309 307 303 301
324 324 325 325 325 324 323 320 318 317 317 317 318 319 320 323 323 325 325 326 325 325 325 323 323 324 324 324 322 322 322 322 319 316 316 314 312 310 309 306 303 302 301
324 324 324 325 325 325 325 324 324 322 320 319 319 319 320 320 321 322 323 325 326 326 325 323 322 321 324 324 323 321 321 320 318 316 314 313 310 309 306 303 302 301 301
323 324 324 325 325 325 325 325 325 325 325 324 324 324 323 323 323 322 322 323 327 326 318 316 317 319 323 322 321 321 321 319 317 315 313 310 309 306 304 302 301 301 300
319 321 324 324 324 325 325 325 325 325 326 326 326 326 325 325 324 324 325 326 326 326 322 320 320 317 323 322 321 319 319 317 315 312 310 307 306 305 302 301 301 299 298
320 319 321 323 323 323 323 323 323 324 325 326 326 326 326 326 326 326 326 326 327 327 326 321 323 321 322 322 321 318 317 312 309 309 306 305 302 301 301 299 299 297 294
320 320 320 321 321 323 323 323 324 325 326 326 326 326 326 326 327 327 327 324 325 324 323 322 323 322 321 319 319 316 311 310 309 306 303 301 300 299 298 296 296 293 291
320 321 321 320 320 322 324 325 325 326 327 327 327 327 327 328 326 326 325 325 323 322 323 322 320 319 316 316 310 309 308 307 305 301 299 298 297 297 295 294 292 292 290
320 320 320 320 320 321 323 325 327 327 328 328 328 327 325 325 324 323 323 322 323 321 320 319 316 311 309 309 308 308 306 303 300 299 297 298 296 294 293 292 288 286 285
320 320 320 319 321 322 324 326 328 328 328 328 327 325 324 323 321 322 320 320 319 316 312 310 309 308 309 307 305 304 299 300 299 297 296 294 293 291 287 285 284 284 283
318 319 319 321 322 325 326 327 327 326 325 324 323 321 320 318 317 316 316 316 314 311 310 309 308 305 303 303 301 300 297 295 295 293 292 290 287 285 284 283 282 282 282
320 321 321 323 325 325 325 325 324 323 321 319 317 315 314 313 313 313 313 311 310 309 307 305 303 301 300 299 297 295 295 293 291 289 287 286 284 282 283 282 281 281 281
321 322 322 322 321 320 320 319 318 316 316 314 313 312 311 310 310 309 308 307 304 302 302 300 299 297 295 295 294 293 291 289 287 287 286 284 283 283 282 280 280 280 280
321 321 321 319 317 314 313 313 312 311 311 311 309 308 307 306 305 304 302 302 301 299 297 295 294 294 292 291 290 289 288 287 288 285 284 284 281 280 279 279 280 279 279
320 319 318 316 314 311 311 310 309 309 309 307 306 305 304 303 303 301 299 297 294 293 293 292 292 291 290 289 287 287 287 286 283 282 282 281 280 279 279 279 278 278 277
317 316 314 312 309 309 308 307 306 306 306 304 301 300 299 298 296 295 294 294 294 294 293 292 289 287 287 287 286 284 283 282 282 282 281 280 278 278 277 277 276 276 275

GFSMW_850_thetae_090.txt.gz
Theta_e
321 322 324 324 325 325 325 325 326 325 325 323 318 317 322 321 323 322 321 315 320 321 318 318 317 316 318 319 320 321 321 318 314 310 310 310 310 310 310 311 311 311 309
322 321 323 324 324 324 324 324 322 323 324 319 317 317 320 319 320 317 314 314 315 317 317 316 317 316 318 319 320 322 321 319 317 314 311 310 310 310 311 311 312 311 310
321 321 321 322 322 323 323 324 323 324 323 320 316 316 317 319 320 317 315 315 316 316 315 315 316 318 320 321 321 322 322 321 319 318 313 311 311 311 311 311 311 311 310
320 319 323 323 322 322 321 322 322 323 323 320 318 316 316 316 316 314 317 318 316 316 315 318 319 321 322 321 322 322 322 322 321 319 316 313 312 312 311 311 312 311 311
321 319 319 322 322 322 322 321 321 321 321 321 319 316 318 318 317 315 315 316 317 315 316 318 318 319 320 321 322 323 322 322 322 321 320 316 312 311 311 311 311 311 310
322 320 317 321 322 321 321 320 320 320 320 320 319 317 314 314 315 316 316 316 314 315 317 318 319 317 317 320 321 322 322 323 322 321 320 318 314 312 311 311 312 311 307
323 321 319 319 321 321 320 320 320 320 320 319 318 316 316 316 316 316 316 315 316 316 316 316 317 316 316 316 318 320 321 322 322 321 321 316 313 314 313 314 312 312 311
323 322 321 317 320 321 319 317 317 319 319 319 319 319 318 317 317 317 317 316 316 316 315 316 316 315 315 314 315 317 321 322 322 322 322 319 317 315 314 314 312 312 311
322 323 322 320 316 319 318 316 315 315 316 317 318 317 316 316 316 316 315 315 316 315 315 315 314 315 315 313 316 318 320 321 321 321 321 321 318 314 315 313 313 312 310
321 322 322 322 320 316 319 318 316 315 314 314 314 315 316 316 315 315 316 316 316 316 316 316 315 314 314 320 321 319 320 322 322 321 322 321 319 315 315 313 313 311 310
322 323 324 323 322 320 317 318 317 316 315 315 316 315 315 314 313 313 314 314 315 314 314 314 316 319 321 322 322 322 321 321 320 322 322 321 317 315 315 313 312 311 307
322 322 323 323 323 323 321 318 318 317 317 317 317 318 318 318 317 317 318 317 318 319 320 321 322 323 323 324 323 322 323 316 317 321 322 321 317 315 315 313 312 308 308
320 322 323 323 323 323 324 324 322 320 318 317 317 317 317 318 320 321 322 323 323 323 324 324 324 325 323 322 322 321 318 323 318 320 320 320 319 316 314 312 310 308 305
319 321 322 323 323 324 324 324 324 325 323 322 320 320 321 320 318 318 318 319 319 320 321 322 321 319 322 318 320 321 319 322 322 320 319 320 317 315 313 310 308 305 304
320 320 322 322 322 323 323 324 323 323 324 324 324 324 320 319 319 319 320 321 321 322 322 323 323 325 321 317 318 319 321 321 320 319 319 315 312 311 309 307 304 304 301
321 321 320 322 322 323 323 323 323 323 324 324 324 324 323 322 322 322 323 323 323 323 324 324 322 323 322 322 320 319 322 321 320 319 317 312 310 307 305 304 302 300 299
321 320 320 320 320 321 323 324 324 324 324 324 324 324 324 324 324 324 324 324 325 324 324 323 324 323 321 320 321 319 320 317 315 313 309 308 308 307 305 301 298 295 296
319 319 319 320 320 320 321 321 322 323 323 323 324 324 324 324 324 324 323 323 324 323 324 323 322 321 320 319 314 311 310 310 308 307 306 304 304 302 299 294 296 295 294
318 318 319 319 319 319 320 322 323 325 325 324 324 324 323 323 321 321 322 323 323 321 321 321 320 317 314 311 310 309 308 308 307 307 305 302 300 296 296 296 295 292 288
317 318 320 320 320 319 321 323 325 325 325 323 323 321 320 319 320 320 320 318 319 319 316 315 312 310 309 306 306 306 306 306 304 297 297 296 295 295 293 289 286 285 284
319 320 320 319 320 321 322 324 324 323 322 322 321 321 320 320 318 317 316 316 315 314 313 311 309 307 306 304 303 302 299 297 297 295 294 293 290 288 286 285 283 283 283
320 320 320 321 323 324 325 324 323 320 320 319 318 317 316 315 313 312 312 311 311 310 308 306 305 302 301 299 297 295 295 294 293 291 290 288 286 284 282 282 284 282 282
321 322 322 322 321 320 320 319 317 317 316 315 314 312 311 310 310 310 310 309 307 305 304 302 300 297 295 294 293 293 292 292 292 291 288 286 286 286 285 282 281 280 280
321 320 320 319 316 314 313 312 311 311 311 311 310 309 309 308 306 305 303 302 300 298 297 295 294 293 292 292 292 292 290 288 287 287 287 286 285 283 281 281 280 280 280
319 318 315 315 311 310 309 308 309 309 309 308 306 304 302 301 300 299 297 296 294 294 294 293 292 291 290 289 287 287 286 285 284 284 283 282 281 280 279 279 278 278 278
315 316 309 309 308 308 307 306 305 305 305 303 300 299 298 297 296 295 294 293 293 292 291 289 288 287 286 285 284 283 282 281 281 280 280 279 279 278 277 277 276 276 275

GFSMW_850_thetae_093.txt.gz
Theta_e
323 321 322 324 325 325 325 326 326 326 325 326 325 324 324 322 315 318 317 318 319 321 319 318 317 316 318 318 319 320 320 320 315 311 310 310 309 310 310 311 311 310 309
322 321 322 323 324 324 324 325 324 326 326 325 325 324 323 316 314 317 317 319 321 318 318 320 320 317 318 318 319 320 320 319 316 312 310 309 309 310 310 310 311 311 310
323 321 320 324 324 323 322 324 322 324 325 324 324 322 316 314 316 322 319 319 317 316 316 321 320 317 317 316 318 319 320 321 318 317 314 311 312 312 311 310 310 310 310
323 321 320 321 323 322 323 323 321 322 324 323 321 318 316 316 318 323 322 321 317 316 318 317 317 315 316 315 317 319 320 321 320 318 317 316 315 313 312 312 311 310 310
324 321 319 320 320 321 321 322 322 321 323 322 319 316 318 319 320 320 318 315 315 315 315 315 318 316 315 317 320 321 321 321 321 321 320 316 315 314 313 314 312 311 311
324 322 320 319 321 321 321 321 321 322 322 321 319 317 316 319 319 318 316 315 314 314 316 316 316 316 318 319 319 320 321 322 322 322 321 320 318 317 315 317 312 313 312
323 323 320 319 320 321 320 320 321 320 321 321 320 318 318 317 317 318 316 314 315 315 316 316 318 318 317 318 318 318 319 320 321 321 321 321 320 317 317 317 312 314 313
322 324 322 319 317 320 320 319 320 320 321 321 320 319 318 317 315 315 315 313 314 316 315 316 316 317 317 317 318 316 315 315 316 318 321 322 322 320 318 318 312 313 313
321 323 323 321 316 319 319 318 318 319 320 320 320 320 319 317 316 316 315 315 316 316 315 315 314 316 316 316 316 315 315 315 314 315 317 321 322 321 319 318 316 314 312
320 321 323 322 320 316 319 318 317 316 317 319 319 319 319 318 317 316 317 318 316 316 316 315 316 316 315 315 315 315 315 316 318 320 319 320 321 321 320 320 315 314 314
321 321 322 323 321 320 317 318 318 316 315 315 316 318 318 318 317 317 317 317 316 316 316 316 316 315 315 315 315 315 317 321 322 322 321 321 319 321 320 320 318 315 314
321 321 321 322 321 321 321 318 318 318 316 315 314 314 314 314 315 316 316 316 316 316 316 316 316 316 315 315 317 320 319 319 321 319 321 318 317 317 317 319 318 315 314
320 321 322 322 322 322 322 322 320 318 318 317 316 316 315 316 315 315 314 314 314 314 315 315 316 317 319 321 323 322 322 323 318 321 321 319 317 316 317 319 318 316 314
319 320 321 322 322 322 323 323 323 322 320 318 318 317 317 317 317 317 318 319 319 320 320 321 321 321 321 322 321 319 319 322 319 321 321 319 319 319 318 316 317 315 313
318 319 320 322 322 322 322 322 323 323 323 322 321 320 318 317 317 317 317 317 317 318 318 319 319 321 322 322 323 322 323 323 317 318 321 319 320 317 317 316 315 311 309
320 320 320 320 321 321 321 322 322 323 323 323 323 323 322 321 319 318 318 318 318 318 319 322 323 322 323 323 322 323 321 321 320 318 317 317 317 313 310 309 307 307 305
320 320 321 321 320 320 321 322 323 323 323 323 323 323 323 323 323 322 322 322 323 323 323 323 324 324 322 322 322 321 320 319 317 315 313 311 310 308 307 304 304 304 303
319 320 320 319 318 319 319 319 321 322 323 323 323 323 323 324 324 323 323 323 323 323 323 324 323 320 320 320 320 319 315 312 310 309 307 306 307 305 304 302 300 299 297
317 318 318 317 318 318 319 320 320 321 322 323 323 323 323 322 323 323 323 323 322 323 322 320 319 318 318 317 317 313 310 309 307 305 303 301 301 302 300 299 295 293 293
315 315 317 317 318 319 321 322 323 323 322 322 322 322 322 321 321 321 321 321 319 318 318 316 315 314 311 310 309 307 306 305 303 301 298 294 293 293 293 293 292 290 287
317 319 320 320 320 321 322 321 322 322 321 321 320 320 319 319 318 317 316 315 315 314 313 312 310 307 305 304 303 302 300 299 296 294 293 293 293 293 293 293 291 287 284
317 318 319 319 320 320 320 320 320 318 319 318 317 316 314 313 312 311 311 311 310 309 308 306 304 300 298 296 295 294 294 293 293 293 293 292 291 290 289 287 285 285 285
313 315 317 317 317 317 319 318 315 315 315 314 312 311 310 309 309 308 307 307 304 303 300 298 296 294 293 293 293 293 293 292 291 289 288 287 287 286 285 284 283 282 281
315 316 316 316 314 314 312 312 311 311 310 310 309 307 307 305 304 303 301 300 298 297 295 294 293 292 291 290 290 289 288 288 287 286 285 284 284 283 281 280 280 279 279
313 314 313 312 310 310 309 308 308 308 308 306 303 302 302 301 299 298 295 295 293 293 292 291 290 289 288 287 286 285 284 283 282 282 281 281 280 280 279 278 278 277 277
310 309 307 308 308 309 306 304 304 305 305 303 300 298 298 296 295 294 292 291 290 289 288 287 287 285 284 282 282 282 281 280 280 279 278 278 277 277 276 276 275 275 274

GFSMW_850_thetae_099.txt.gz
Theta_e
330 331 329 329 328 326 326 327 326 325 325 326 326 325 326 326 328 328 327 327 323 322 317 314 322 322 322 320 319 319 320 320 319 317 316 316 315 314 315 317 318 317 317
330 330 329 328 327 325 325 327 326 326 325 326 325 325 327 327 327 328 327 327 324 321 320 320 320 320 319 319 319 320 321 320 319 318 317 316 314 313 311 312 314 316 316
329 330 329 328 328 327 325 326 327 326 325 326 325 326 326 327 327 328 327 327 326 318 319 317 320 318 319 319 319 320 320 320 318 317 318 317 317 317 314 313 311 311 313
326 330 329 327 328 327 325 324 325 325 326 326 325 326 325 325 325 326 326 326 322 317 315 319 319 317 319 320 318 318 319 320 319 319 319 318 319 320 318 315 315 312 313
327 329 329 328 327 327 326 325 324 324 325 325 324 325 323 325 325 324 324 322 319 318 318 319 317 316 319 321 318 317 318 319 319 319 318 318 318 318 317 319 317 315 314
328 329 329 328 326 326 327 327 323 323 324 325 325 324 323 324 324 324 322 321 323 322 318 317 317 317 318 319 318 317 318 317 318 319 320 319 319 319 318 317 318 317 315
328 329 329 328 327 326 326 324 325 323 324 324 325 325 325 325 323 321 320 320 320 322 321 319 318 319 320 320 319 317 317 317 316 317 317 319 320 320 320 320 319 319 318
328 329 329 328 327 327 326 323 323 323 323 324 323 322 322 322 320 320 321 319 319 319 319 320 320 319 317 317 317 317 316 317 318 319 320 319 320 320 319 318 318 318 317
328 329 329 329 327 327 327 325 324 323 322 324 324 323 322 321 317 315 318 319 320 319 318 318 318 319 318 317 317 317 317 317 317 318 320 320 319 320 320 320 318 316 316
327 329 329 329 328 327 327 325 325 325 324 322 324 323 322 322 321 317 318 320 322 321 320 319 318 317 316 316 316 315 317 317 319 319 320 320 320 320 319 319 318 319 318
326 328 329 329 329 328 327 326 325 324 324 324 323 323 323 323 322 322 322 321 321 320 320 319 318 318 319 319 319 318 318 319 320 320 320 320 320 320 320 318 318 318 318
326 327 329 329 329 328 327 326 325 325 325 324 323 323 323 323 321 321 321 321 321 321 320 320 320 320 320 320 320 320 320 320 320 320 320 321 321 319 317 318 319 320 319
327 327 328 329 329 328 327 327 325 325 324 324 324 324 324 324 323 323 322 321 321 321 321 320 320 320 320 320 321 321 320 320 321 321 321 320 317 318 322 322 320 320 317
324 327 328 328 329 329 328 327 326 324 324 323 323 324 324 324 324 324 323 323 322 322 322 321 322 322 322 322 322 322 321 321 321 320 319 321 322 322 321 319 317 317 316
324 325 327 328 328 329 329 328 328 326 324 324 324 324 324 324 324 324 324 323 322 322 322 322 322 322 321 321 321 321 320 321 321 322 322 322 321 319 317 316 315 313 313
321 323 324 326 327 328 329 328 328 328 326 326 325 325 324 324 324 323 323 322 322 322 322 321 321 321 321 321 321 322 322 321 321 321 320 318 316 315 314 313 312 311 310
321 322 323 324 326 328 328 328 328 328 327 327 326 326 325 325 324 324 323 323 322 322 322 322 322 322 322 322 322 322 322 320 319 318 316 313 313 310 309 308 307 306 305
321 322 322 323 323 326 328 328 328 328 328 327 326 326 326 325 325 324 323 322 322 321 321 321 321 321 321 321 321 320 318 316 313 311 310 307 306 304 301 300 299 298 297
321 320 321 321 322 324 327 328 328 328 328 327 327 326 326 325 324 323 322 321 321 321 321 320 319 318 316 315 315 313 310 309 307 305 302 300 298 296 295 295 295 295 295
322 322 322 323 323 324 325 327 327 327 326 326 324 324 323 323 322 321 321 321 320 319 315 314 312 309 309 306 306 306 305 303 300 298 297 295 295 295 294 294 293 292 291
321 321 321 322 322 322 323 324 324 324 323 323 322 321 321 321 321 319 317 315 313 311 308 307 304 303 301 299 299 298 298 297 296 295 294 293 293 292 291 290 289 288 287
315 315 315 317 318 318 317 318 319 318 320 320 319 317 316 316 313 313 310 309 308 307 303 302 300 297 296 295 294 294 294 294 293 292 290 289 288 286 285 285 283 283 283
312 312 313 312 313 314 316 317 312 311 315 319 314 311 310 309 309 308 306 304 303 302 299 298 296 294 292 292 292 292 291 290 289 287 286 285 284 283 282 281 281 281 280
308 308 310 310 308 310 309 311 308 309 311 310 308 305 307 304 304 304 301 299 297 296 295 294 292 291 290 289 289 288 287 286 285 283 282 282 281 282 281 281 281 280 279
303 307 307 305 303 305 306 305 306 307 307 307 303 301 301 301 299 299 297 296 294 293 293 291 290 289 288 285 286 285 284 283 281 281 280 280 279 279 279 278 278 277 276
299 304 305 303 301 300 303 301 301 305 305 303 300 299 298 297 297 295 292 290 290 290 290 289 288 286 284 283 282 281 280 278 278 279 278 278 277 276 276 276 275 275 274

GFSMW_850_thetae_102.txt.gz
Theta_e
328 333 332 331 331 327 325 326 327 327 327 326 324 326 326 328 329 329 327 325 324 326 325 325 325 325 325 324 325 323 320 318 317 317 316 316 315 315 317 318 319 319 318
330 332 331 331 330 326 326 327 327 326 326 324 326 324 324 325 326 330 328 327 325 325 324 325 324 324 324 324 323 322 319 320 319 318 316 316 316 315 315 316 316 318 317
330 332 331 331 330 325 328 326 327 326 326 325 325 325 326 326 326 326 329 327 325 324 324 324 320 321 318 323 323 321 320 321 320 319 317 318 316 317 316 315 313 313 315
324 331 331 331 330 326 328 327 327 325 326 326 325 325 327 327 327 326 326 327 326 325 322 320 317 315 317 321 320 319 320 321 320 319 318 318 320 320 318 316 316 316 313
324 332 331 330 329 327 329 326 327 327 326 326 325 325 326 327 328 327 327 328 326 324 321 319 316 315 320 319 320 318 320 320 321 320 319 319 319 319 319 319 318 317 317
325 330 331 330 329 328 328 325 326 327 325 325 325 325 325 326 326 326 327 327 327 325 320 320 314 319 319 320 317 319 318 319 321 319 318 318 318 317 317 318 319 318 318
327 329 330 330 328 329 326 327 324 327 324 326 325 325 325 325 324 324 324 323 323 322 319 317 315 317 319 318 316 316 319 319 318 318 319 320 317 318 318 320 320 320 320
328 329 330 330 328 328 324 327 325 325 324 325 325 324 324 324 324 324 323 323 321 319 318 317 315 316 318 316 315 319 319 317 317 316 316 316 318 318 319 319 320 320 319
328 329 330 330 328 328 325 325 326 325 326 324 325 325 325 324 325 324 324 323 322 321 317 316 316 317 318 315 319 320 318 317 317 317 317 317 318 318 318 320 320 319 319
328 329 330 330 329 329 328 324 325 323 324 324 324 323 322 322 323 322 322 321 321 321 322 319 317 317 317 318 317 318 317 317 317 317 317 316 317 317 319 319 319 319 319
327 329 330 330 329 329 328 327 325 325 323 324 324 324 323 322 320 319 321 320 319 319 319 320 321 320 320 319 317 318 318 317 316 316 317 317 318 320 319 319 320 320 320
325 328 329 330 330 328 328 327 326 326 325 323 327 325 322 322 321 321 318 316 318 321 321 321 320 319 318 318 318 317 316 318 320 318 319 319 320 320 320 321 321 321 321
324 327 329 330 330 329 328 328 326 326 325 325 324 324 322 323 322 322 322 322 322 321 321 321 321 320 319 318 318 318 319 319 319 321 321 321 321 321 322 322 322 321 319
324 327 328 330 330 330 329 328 327 326 326 325 324 324 324 323 322 321 321 322 322 321 321 320 320 320 320 320 320 320 320 320 321 321 322 322 322 322 321 320 319 318 317
321 323 328 329 330 330 329 328 328 326 325 325 325 325 324 323 323 323 322 322 321 321 321 321 321 321 321 321 322 322 323 322 322 322 322 322 322 322 318 319 317 315 314
319 319 325 327 329 330 330 329 328 327 325 325 324 325 325 325 324 324 324 323 323 322 322 322 322 322 322 321 321 321 321 321 321 321 321 319 318 314 317 314 312 312 308
318 318 322 324 328 329 330 330 329 328 327 325 325 324 324 325 325 324 324 323 322 322 321 322 321 321 320 320 320 321 321 320 320 318 316 312 311 309 307 307 302 303 300
318 319 322 323 323 328 329 329 329 329 328 327 326 326 325 325 325 324 324 322 322 322 321 321 321 321 320 320 320 320 319 319 314 310 307 306 304 303 301 300 297 296 296
321 321 321 322 323 326 328 328 329 329 328 328 327 327 326 326 325 324 323 322 322 322 321 320 318 316 315 314 315 313 310 308 306 303 302 300 298 298 296 295 294 294 294
323 323 323 320 322 323 328 328 329 329 329 328 327 327 326 326 325 323 322 321 321 321 317 316 311 309 309 305 305 305 304 303 300 299 297 296 295 294 292 291 290 289 288
319 321 323 323 322 324 327 328 328 329 328 326 326 326 325 325 322 321 320 318 317 315 310 308 304 302 301 299 299 298 298 297 296 295 293 291 289 287 286 285 284 283 283
315 316 317 320 321 323 324 326 324 320 322 322 323 322 323 323 321 318 313 310 307 306 303 301 298 296 295 295 295 295 294 292 291 289 287 285 284 283 282 282 281 281 280
311 312 313 312 315 316 318 320 318 319 318 319 319 318 315 311 310 312 305 303 302 300 297 297 296 294 292 292 291 290 289 288 287 285 283 282 282 281 281 280 280 280 278
307 307 308 310 310 310 311 315 312 312 314 316 311 307 305 301 300 303 299 298 297 296 295 295 293 291 290 289 287 287 285 283 282 282 281 280 279 279 279 278 277 277 276
303 303 303 303 302 303 303 304 305 306 308 306 303 302 302 301 298 298 297 296 294 294 294 292 292 290 288 285 284 282 280 279 279 279 279 278 277 276 276 275 275 274 274
299 299 299 299 298 299 299 299 300 304 305 302 301 300 296 297 297 295 295 292 291 290 290 288 287 285 283 281 279 278 278 277 277 277 276 275 274 274 273 273 272 272 271

GFSMW_850_thetae_105.txt.gz
Theta_e
326 331 331 331 331 330 330 324 327 327 328 328 328 328 329 330 328 328 326 324 324 323 323 324 323 322 322 323 323 326 324 322 319 317 316 317 317 318 319 319 319 320 319
328 332 332 331 330 330 326 323 326 328 327 326 325 325 326 328 328 328 326 325 325 324 323 324 323 323 323 323 324 325 323 320 317 316 315 315 315 315 316 319 319 319 319
331 332 332 331 331 329 322 324 327 327 326 325 323 325 324 325 327 329 328 326 325 325 324 324 324 324 324 325 325 324 323 319 317 318 316 316 316 316 315 315 316 317 318
331 332 331 331 330 326 321 325 329 326 325 326 326 325 324 325 325 326 328 327 325 325 322 325 326 326 325 325 324 323 322 319 319 319 316 317 318 317 317 316 316 314 314
329 332 331 330 329 327 319 323 328 329 325 325 324 324 324 325 326 325 327 327 326 325 326 325 325 325 325 323 322 319 321 320 320 319 318 317 318 319 319 319 319 317 317
329 331 331 330 330 327 320 322 328 326 325 326 325 325 325 326 327 327 326 326 325 324 326 324 324 324 321 320 321 321 320 320 319 319 320 318 318 319 318 318 317 317 318
329 331 331 330 329 327 320 322 327 326 326 325 325 325 325 327 327 327 326 325 324 324 326 325 324 319 317 317 317 318 319 317 317 320 316 319 318 319 319 318 318 318 318
330 331 330 330 329 327 322 320 325 325 325 324 327 324 324 325 326 325 326 325 326 324 325 324 323 320 317 316 318 319 318 315 318 319 318 319 318 316 315 316 317 320 320
331 331 330 330 329 328 322 321 323 324 324 323 326 324 325 324 325 324 325 326 326 326 325 324 321 319 318 316 319 319 316 316 318 318 318 319 318 317 317 317 318 319 320
329 330 330 330 330 328 323 321 321 323 322 323 325 324 324 323 323 324 323 323 323 324 324 322 320 318 318 318 318 318 316 317 316 318 318 318 317 317 317 317 316 317 317
328 330 330 330 330 329 326 320 322 322 322 322 324 325 325 324 324 324 324 323 323 321 321 321 320 318 317 316 318 317 316 315 319 318 317 317 317 316 316 316 317 319 319
326 330 330 330 329 329 328 323 321 322 322 321 323 324 324 323 322 323 323 322 322 322 322 320 318 318 317 316 318 317 316 318 318 317 318 317 316 318 319 319 320 320 320
322 328 330 330 329 329 328 327 323 322 323 323 323 322 321 322 321 321 321 321 321 320 320 320 321 320 318 317 316 318 319 319 318 318 317 317 320 321 321 321 321 321 322
320 322 330 330 329 329 329 328 326 324 324 323 323 323 324 322 321 321 320 319 318 318 319 320 321 321 320 319 319 319 319 319 318 319 320 321 321 321 321 321 320 321 318
317 318 321 328 330 329 329 328 327 325 326 325 323 323 324 322 322 322 322 319 317 320 321 321 321 321 321 321 320 320 320 320 321 321 321 321 321 322 322 320 318 313 314
317 318 319 320 327 330 329 329 328 325 326 325 325 323 322 322 322 322 322 322 323 322 322 321 321 321 321 321 321 321 321 321 322 322 320 319 319 316 310 307 305 310 306
322 321 318 318 318 329 330 329 328 328 325 326 325 325 324 323 323 322 322 321 321 321 321 320 321 321 321 321 321 321 322 321 320 319 317 311 308 303 303 303 302 300 298
323 323 324 322 323 325 329 329 329 328 327 325 325 325 325 325 324 324 323 322 322 322 322 322 322 322 322 321 321 320 320 320 316 311 305 301 301 300 301 300 297 297 295
319 321 323 323 324 329 330 329 329 328 328 326 325 324 325 325 325 324 323 324 323 322 321 319 319 316 318 317 318 316 315 310 305 302 300 300 298 298 295 292 292 290 289
318 318 321 323 324 324 321 325 329 329 327 326 325 325 325 325 325 324 323 322 321 320 317 316 313 309 309 305 305 306 305 303 301 299 297 295 293 290 290 289 287 286 285
316 317 317 321 322 323 327 329 330 329 328 327 327 326 326 325 324 323 321 321 319 317 312 310 305 304 302 299 299 298 299 298 296 293 289 287 285 284 284 283 283 282 281
314 314 314 315 319 320 321 326 327 326 324 323 324 323 323 322 321 321 318 317 315 311 306 303 299 297 296 296 295 294 292 290 290 288 285 283 282 282 281 281 280 280 279
311 311 311 310 311 313 317 320 317 317 319 318 318 317 315 314 313 313 307 303 303 302 298 297 295 294 293 292 290 288 287 286 285 283 282 281 281 280 279 278 278 277 276
305 306 306 308 309 309 312 315 313 313 314 315 312 307 307 304 302 301 299 298 296 296 295 294 294 290 289 289 286 283 282 282 282 281 280 279 279 278 277 276 276 275 274
302 301 302 303 302 303 305 306 307 308 309 309 303 302 300 300 298 297 295 297 295 294 293 291 289 289 287 283 281 280 280 280 279 279 278 278 277 277 276 275 274 273 273
299 298 297 298 297 298 298 297 298 301 302 301 299 297 296 296 294 294 289 289 289 290 290 289 290 284 281 279 279 278 278 278 277 278 277 276 275 275 274 273 272 272 272

GFSMW_850_thetae_108.txt.gz
Theta_e
322 324 328 331 332 332 332 331 328 323 326 328 328 329 330 327 330 328 328 327 327 327 326 325 315 316 317 316 315 319 322 322 322 319 320 319 320 320 320 319 319 319 319
322 326 331 332 332 331 331 330 322 324 326 327 328 329 329 329 327 327 327 327 326 327 326 325 317 317 319 318 318 322 324 323 322 319 319 319 318 319 319 319 319 319 319
324 329 332 332 331 331 330 328 321 323 326 327 327 327 328 329 328 327 328 328 326 326 326 325 323 319 320 319 319 323 325 324 321 319 317 316 315 316 317 317 316 319 318
324 328 331 331 331 331 330 322 323 324 326 326 326 325 325 327 330 328 328 329 328 325 325 325 324 325 321 321 320 323 325 324 321 318 315 315 316 316 316 316 316 316 317
322 328 330 331 331 330 329 321 324 325 326 326 324 323 324 324 326 328 329 327 327 326 325 325 323 325 323 322 323 323 325 324 320 317 316 316 317 317 318 318 317 317 316
319 326 330 331 331 330 327 321 324 324 324 324 326 326 326 323 326 325 325 327 327 327 326 324 323 325 324 323 324 324 323 323 320 317 317 317 317 318 318 319 318 318 317
320 329 330 331 331 329 326 321 323 323 326 325 325 325 324 324 325 326 326 325 326 327 327 324 325 324 325 323 324 325 323 321 319 319 318 317 318 318 318 318 318 317 316
321 328 329 331 330 329 325 321 321 322 324 326 324 324 325 324 327 326 327 326 326 326 325 326 324 325 325 325 324 324 321 319 318 320 317 318 318 319 318 318 318 317 316
326 329 330 331 330 329 324 320 320 321 322 325 324 325 323 324 325 325 326 326 325 326 326 324 323 325 325 324 323 321 320 320 319 318 316 316 317 319 319 318 317 318 318
329 329 330 330 330 328 325 321 320 319 321 325 323 324 324 323 324 325 325 326 326 325 325 325 324 324 324 321 320 319 317 317 318 318 316 317 318 318 318 318 318 318 317
320 329 328 330 329 329 326 321 320 321 320 322 325 325 324 324 324 324 324 324 325 324 324 322 323 323 322 321 321 320 318 318 319 317 316 317 317 318 318 318 317 316 318
319 325 328 327 329 328 327 322 320 320 319 320 323 326 324 324 323 323 323 323 323 324 324 325 322 323 323 321 321 319 318 318 318 317 317 316 319 318 318 317 317 318 320
318 321 329 327 327 329 328 326 319 318 318 320 322 324 324 324 323 323 323 323 323 323 322 322 323 322 321 320 319 319 317 318 317 316 316 318 319 318 318 318 320 321 321
317 319 323 328 327 326 328 327 321 318 319 320 321 323 324 324 324 322 323 323 322 322 321 322 321 320 320 319 318 317 317 317 318 318 318 318 319 318 319 320 321 319 319
319 320 325 328 328 328 327 327 326 319 319 320 321 321 323 323 322 321 321 322 321 320 320 320 320 320 320 319 318 317 317 317 318 319 320 319 319 320 320 319 317 314 314
322 322 321 326 328 329 328 327 326 325 320 322 321 322 321 321 322 321 320 320 320 320 319 319 319 320 321 321 320 320 320 320 320 320 320 320 318 315 310 308 308 307 307
318 319 322 320 320 324 323 328 327 325 324 322 324 322 322 322 322 321 321 321 319 319 318 320 321 321 321 321 321 321 321 321 321 320 319 313 308 305 304 304 303 303 301
316 317 318 322 322 320 323 328 328 327 325 325 324 324 323 322 322 323 322 321 322 321 320 322 322 321 321 321 321 321 321 320 318 311 307 304 302 301 301 300 300 299 298
315 315 316 318 322 324 326 325 327 328 326 325 325 325 324 323 322 322 322 322 320 321 321 322 321 321 320 320 320 320 318 314 308 301 299 299 299 298 298 298 293 289 288
315 314 315 315 321 326 328 327 326 322 326 326 325 325 325 324 323 323 323 322 321 321 321 320 318 318 317 314 313 314 313 308 302 298 296 295 295 293 291 288 286 285 283
313 314 314 314 316 322 325 328 325 324 325 325 325 325 325 325 325 324 324 323 321 320 316 314 311 309 307 303 302 301 301 301 298 296 294 291 291 287 284 283 282 281 280
312 312 312 311 311 316 321 324 324 323 323 323 324 324 324 325 324 323 321 318 317 315 310 308 304 300 297 296 296 296 297 294 296 292 288 285 284 283 281 280 279 279 278
308 308 310 311 310 311 313 317 317 317 317 319 321 321 321 320 319 319 314 311 310 310 304 300 295 292 292 291 291 292 293 290 289 285 283 281 280 279 279 279 278 277 277
305 303 306 307 308 308 310 310 310 312 313 313 311 310 310 307 305 304 299 298 297 296 293 290 289 288 287 288 288 287 284 284 283 281 280 279 279 278 278 277 276 276 275
301 301 302 301 301 302 305 307 305 305 307 307 305 303 303 301 298 297 294 293 291 292 291 291 289 290 289 284 284 284 282 281 279 280 279 278 278 277 276 275 275 274 274
298 298 298 298 296 298 298 299 299 300 301 299 295 294 294 293 292 292 290 292 292 292 291 291 291 287 283 281 280 280 279 279 279 279 278 278 276 276 275 274 274 273 273

GFSMW_850_thetae_111.txt.gz
Theta_e
316 318 320 320 326 329 332 332 332 330 326 324 328 328 329 330 327 328 326 324 326 325 324 327 325 326 309 308 308 310 318 320 321 321 320 320 320 320 320 320 319 317 317
317 319 319 321 323 331 332 332 331 330 324 324 328 328 329 329 327 328 326 324 325 324 324 324 325 325 310 309 308 310 318 320 320 320 320 320 320 320 320 320 319 318 318
317 319 319 324 327 331 332 331 331 329 323 326 327 327 329 328 329 327 328 327 326 325 324 325 325 325 311 312 310 310 316 318 319 320 320 318 319 319 319 319 319 317 317
317 318 321 325 327 332 332 331 330 327 322 326 327 327 330 328 328 329 327 329 327 325 325 327 325 326 313 314 313 311 311 315 321 321 319 318 317 317 317 317 316 316 316
317 318 319 322 328 332 331 331 329 323 323 326 327 327 327 330 328 327 328 327 326 326 327 325 327 326 317 314 316 314 318 321 321 322 320 318 316 315 316 317 317 316 317
321 321 321 324 328 331 331 330 329 321 323 326 326 325 325 325 328 328 327 327 327 327 327 326 327 326 321 315 317 316 320 324 323 323 320 318 316 317 316 318 317 318 318
321 324 322 322 326 331 330 330 327 321 324 329 325 324 323 322 324 325 327 328 328 328 327 326 328 326 326 318 318 317 319 324 324 323 319 316 316 317 317 318 317 318 318
320 324 323 322 325 330 330 330 325 321 325 325 326 323 324 324 323 323 324 324 326 327 328 328 326 326 326 324 324 320 319 322 323 322 319 317 316 317 317 317 317 317 317
317 320 327 327 327 329 330 329 324 320 323 325 324 326 324 324 325 324 326 325 326 326 326 327 327 327 326 324 324 323 324 322 320 322 318 317 317 317 317 318 319 317 318
316 319 328 327 327 329 330 328 323 319 322 324 323 324 324 324 324 324 325 325 326 325 324 326 326 326 326 324 324 324 323 323 321 321 319 318 318 317 317 317 318 318 319
318 319 319 328 327 328 327 328 322 320 322 321 322 324 324 325 324 325 323 325 325 325 324 325 325 326 325 325 325 324 322 322 320 320 319 318 318 317 317 318 318 318 318
317 317 316 327 328 327 326 326 322 320 321 321 321 322 324 324 323 324 324 323 324 325 325 324 324 324 324 324 325 324 323 320 319 319 318 318 317 316 316 317 316 317 318
317 317 319 326 327 328 326 325 324 323 321 320 320 322 323 323 323 323 322 323 323 323 323 323 322 322 323 324 324 322 321 321 320 319 318 318 317 316 317 317 319 318 318
317 321 322 324 327 327 328 327 324 323 323 320 320 323 324 323 324 323 322 323 323 323 323 322 322 321 321 322 322 322 321 320 318 319 318 318 317 316 317 318 319 318 318
320 320 320 325 325 327 327 326 326 324 322 321 320 322 324 324 323 323 323 322 323 323 322 322 322 322 322 322 323 321 319 318 318 317 318 318 318 318 319 318 317 316 313
318 318 318 320 322 326 326 327 327 326 322 322 321 321 323 324 324 323 322 321 322 322 321 321 321 320 321 320 320 319 318 317 316 316 317 317 318 318 318 315 311 308 308
316 316 317 318 321 320 325 327 327 326 324 322 322 321 321 323 323 322 321 321 321 321 320 320 320 320 320 320 320 319 319 318 318 318 318 315 313 311 308 305 304 304 302
314 316 314 316 319 322 320 325 327 327 326 324 323 322 322 321 321 322 320 320 320 321 320 319 319 319 320 320 321 321 321 320 319 316 315 311 307 303 301 301 301 299 299
312 313 314 314 316 323 322 322 327 327 326 326 325 324 323 322 321 321 321 320 320 319 320 320 319 319 320 321 320 321 320 319 316 309 305 302 300 299 298 298 298 295 289
310 312 313 313 314 321 325 325 326 326 326 324 324 325 324 323 322 322 320 320 320 320 319 318 318 318 320 320 320 319 318 315 308 299 297 296 298 297 297 293 287 285 284
309 310 311 312 313 316 322 324 325 325 325 324 324 324 324 323 323 322 321 320 320 320 319 317 316 314 313 311 310 309 308 303 296 294 293 292 293 289 286 284 283 283 282
308 307 309 310 310 311 313 320 322 323 322 324 324 324 324 324 323 322 322 320 320 319 316 313 309 304 301 300 299 299 299 296 296 292 290 286 283 283 282 282 282 280 280
303 304 308 309 310 309 311 312 314 316 319 320 323 323 323 323 321 319 318 315 312 308 307 303 299 296 293 292 293 294 294 293 292 289 285 283 281 280 280 280 280 279 279
300 301 303 304 306 308 307 309 308 309 314 317 314 317 316 313 309 307 308 308 302 302 295 295 294 291 291 291 291 290 290 290 289 284 282 281 280 279 279 278 278 277 276
297 298 299 300 300 302 304 304 306 306 309 310 307 306 305 303 301 300 297 296 293 294 290 287 289 290 291 290 291 291 287 283 282 282 280 279 278 278 277 276 275 276 276
296 295 297 297 296 299 301 299 300 302 306 305 301 298 297 295 294 293 291 292 292 293 293 293 291 290 289 287 285 282 281 280 279 280 278 277 276 276 275 275 275 275 275

GFSMW_850_thetae_114.txt.gz
Theta_e
314 314 315 316 319 320 321 320 327 331 333 331 327 325 328 329 328 328 326 326 326 326 328 327 327 322 326 314 310 321 319 319 320 321 320 320 320 320 319 319 318 318 317
314 315 316 317 319 319 322 323 329 331 332 330 326 325 328 329 329 328 328 326 325 325 327 326 326 320 326 317 309 318 319 318 320 320 320 320 320 319 319 319 319 318 318
314 316 316 317 318 319 322 326 331 331 331 329 324 326 328 328 329 327 327 324 326 327 327 326 327 325 326 318 308 311 316 318 320 321 320 320 320 320 320 319 319 319 318
320 320 319 316 318 320 324 330 332 332 331 328 324 326 328 328 328 327 326 325 326 326 325 325 325 325 326 317 308 309 313 317 320 321 320 319 319 319 319 319 319 318 318
320 320 322 321 320 321 324 329 332 332 330 326 324 326 327 327 328 327 329 326 325 325 325 324 325 324 326 323 309 308 309 316 319 320 320 319 318 317 317 317 317 317 317
318 318 319 325 321 322 324 330 332 331 330 326 325 325 327 328 327 328 327 329 328 326 326 324 324 323 324 326 312 309 308 312 319 319 318 319 318 316 316 316 317 317 316
318 318 319 324 324 325 325 329 332 331 329 325 325 325 327 326 327 327 327 328 328 328 326 325 325 325 326 325 322 310 310 309 317 318 316 320 319 316 316 317 318 317 317
318 319 318 318 326 325 325 328 331 330 328 324 322 324 326 326 326 327 326 327 327 327 325 326 326 326 325 325 326 314 312 310 312 317 321 320 318 316 316 317 317 317 317
315 318 318 317 319 326 325 326 330 329 328 323 320 325 324 323 322 323 324 325 327 327 326 328 327 326 325 325 326 322 314 315 316 320 322 320 319 316 316 317 317 317 317
314 317 318 317 317 323 326 325 328 328 326 322 320 325 323 323 323 322 323 323 324 324 324 326 326 327 326 326 326 324 317 316 316 318 321 321 320 318 316 317 317 317 317
314 317 318 319 320 323 326 324 327 327 324 322 321 322 322 321 323 323 323 323 325 326 326 325 325 326 326 327 326 326 324 318 318 318 319 321 320 319 318 316 317 317 317
316 318 318 320 322 325 326 325 325 327 324 323 323 322 322 322 324 323 323 324 323 325 325 325 325 325 326 326 326 326 325 323 321 321 321 320 318 317 317 318 317 317 317
315 316 318 319 325 326 326 325 326 327 323 322 322 320 321 321 321 323 323 322 323 324 325 324 323 324 325 325 326 325 324 323 322 322 321 320 319 318 318 317 316 316 316
313 314 317 316 321 325 325 325 326 327 323 322 323 320 319 321 321 324 322 321 322 323 322 322 323 323 324 323 324 324 324 323 321 320 319 319 318 319 318 317 316 317 317
314 312 315 313 316 321 324 325 325 327 324 322 322 321 319 320 320 321 321 321 321 322 322 321 321 321 322 322 323 324 323 321 321 320 318 318 319 318 318 317 317 317 317
313 314 314 313 314 316 321 324 325 325 325 323 322 321 320 320 320 320 320 320 321 321 322 321 321 320 321 321 321 321 322 321 319 318 318 318 317 317 317 316 316 315 313
315 314 316 314 315 315 319 323 324 325 325 324 322 321 321 321 321 320 320 323 319 320 319 319 320 320 320 320 320 319 319 319 318 318 317 316 315 315 313 312 311 308 306
314 312 313 313 314 316 319 320 323 324 325 324 322 321 323 322 321 320 321 320 320 318 318 318 318 317 319 319 320 319 319 318 317 316 315 313 311 306 305 304 303 301 300
310 311 310 310 312 314 319 318 320 323 325 325 322 321 321 321 322 320 320 320 319 319 319 318 318 318 319 319 319 320 319 318 316 312 307 303 302 299 298 298 299 297 293
308 308 309 309 310 310 315 322 321 321 324 324 324 323 322 322 321 321 320 319 319 318 318 318 318 317 317 318 320 320 319 317 312 304 299 297 298 296 294 294 290 287 285
307 306 305 305 307 309 314 319 323 323 324 325 324 323 323 323 322 320 320 319 319 318 318 317 316 315 315 317 318 316 315 313 306 299 295 293 292 291 289 286 285 284 283
305 304 304 304 306 308 310 314 319 321 322 324 324 323 322 323 323 322 321 319 319 318 316 313 310 306 305 303 303 306 307 302 299 293 291 289 289 288 286 282 282 281 280
300 302 303 303 304 305 307 310 313 313 319 324 323 321 322 321 322 319 318 316 315 314 311 308 305 299 294 293 295 296 295 294 295 293 291 289 285 282 282 282 281 279 279
299 299 300 301 301 300 303 306 307 308 312 315 318 316 314 319 318 315 312 310 307 306 303 305 299 292 293 292 291 291 292 293 292 289 284 282 282 281 280 278 278 278 278
297 297 297 297 297 298 298 300 303 303 307 308 305 306 306 308 310 304 303 302 299 300 296 295 293 292 291 292 293 292 290 288 286 284 282 280 279 279 278 278 277 277 276
296 296 295 295 295 294 296 296 297 300 301 302 301 299 300 300 298 296 292 292 293 294 294 293 294 292 290 289 289 289 289 286 283 281 279 279 278 278 277 277 277 276 276

GFSMW_850_thetae_117.txt.gz
Theta_e
313 313 315 317 316 317 317 319 320 319 323 330 331 333 332 328 326 327 326 325 326 326 327 328 327 328 326 325 318 319 324 320 320 320 320 319 319 319 318 318 313 314 313
313 318 319 319 319 316 317 321 322 322 325 330 331 332 331 325 326 328 328 327 327 326 326 327 327 327 326 322 321 316 323 320 320 320 320 318 319 319 319 318 318 317 317
320 319 318 320 321 320 318 321 324 325 329 331 333 331 328 323 327 328 328 328 327 326 325 327 327 326 327 324 322 317 322 320 319 320 321 320 321 319 319 319 319 318 318
320 319 320 320 324 322 320 321 326 328 330 332 332 330 324 326 329 327 328 328 325 325 325 325 326 327 327 323 324 312 321 321 319 320 320 320 320 320 319 319 319 319 319
319 319 319 319 322 324 321 323 326 329 332 332 331 330 322 327 328 326 329 325 324 325 325 325 326 327 326 321 324 311 319 321 319 319 320 320 319 319 318 320 319 319 318
318 316 318 318 319 326 324 324 326 330 333 331 331 329 322 327 328 328 327 326 325 326 326 326 326 326 323 321 325 313 310 317 320 318 320 320 319 318 318 317 318 318 317
315 315 317 318 318 320 326 325 326 329 332 331 329 327 323 326 327 326 326 328 326 325 326 325 324 325 325 323 326 316 309 310 315 317 319 320 320 318 317 316 316 317 316
315 315 317 317 318 319 320 326 327 329 331 330 329 325 324 325 326 327 326 326 328 326 326 325 324 324 325 324 325 319 309 309 310 313 317 319 320 319 318 316 316 316 316
315 316 317 318 320 321 320 323 324 328 330 330 329 325 325 326 326 326 326 327 327 326 328 326 326 323 321 319 320 325 318 308 308 309 313 319 320 319 317 317 317 317 317
316 316 318 319 321 324 322 324 325 323 329 329 328 325 323 325 325 324 325 325 325 327 327 326 327 325 324 320 319 325 325 317 309 308 310 318 318 319 318 318 317 317 317
316 315 316 318 318 323 324 325 323 323 324 328 327 324 322 323 323 321 322 322 323 323 324 325 326 326 326 325 325 326 325 325 315 310 310 315 320 319 319 318 318 317 316
316 314 315 314 315 315 321 325 325 323 325 326 326 322 322 323 322 321 322 323 322 322 324 325 325 325 325 326 327 326 325 325 319 314 313 314 315 316 316 319 318 318 316
315 314 314 314 315 313 317 323 324 323 324 326 323 320 321 324 322 321 323 323 322 323 325 324 324 324 324 325 325 326 325 325 324 323 316 315 316 317 317 319 317 317 317
315 314 314 313 314 313 315 319 323 323 324 324 322 320 323 324 321 321 322 321 321 323 324 324 323 323 324 325 325 323 325 324 323 320 320 317 317 318 319 318 318 318 317
315 315 315 313 312 314 315 318 321 323 323 325 323 321 322 322 321 321 321 321 321 321 321 321 322 322 323 324 323 323 322 322 323 321 320 320 319 319 318 318 318 317 316
317 316 315 314 313 314 314 316 319 322 323 324 322 321 321 320 321 321 321 321 320 321 321 321 321 321 321 322 323 321 323 322 322 321 321 318 319 318 318 317 317 316 316
313 312 312 314 313 313 313 316 318 319 323 323 322 321 321 320 320 321 321 320 320 321 320 321 321 320 320 320 320 321 322 320 320 321 319 318 317 316 317 316 316 314 311
310 310 311 311 311 312 314 315 318 319 320 323 322 323 320 321 320 320 321 320 320 320 319 319 320 320 319 319 320 320 320 320 318 317 317 316 316 312 312 311 309 306 303
307 308 308 308 310 310 312 314 316 319 320 322 322 323 321 320 319 320 320 320 319 319 318 318 318 319 319 318 318 319 318 318 316 313 311 310 308 304 302 304 303 299 296
306 306 306 306 308 309 310 314 317 318 321 322 323 323 321 320 319 320 320 319 319 319 318 318 318 317 319 318 317 317 318 317 314 308 305 301 302 297 295 297 295 294 289
302 302 302 304 305 307 308 311 314 317 319 321 322 321 321 320 319 320 319 319 318 318 317 318 317 317 317 317 317 313 315 316 312 305 299 295 294 294 291 290 286 286 286
300 299 300 303 304 306 307 308 310 310 315 320 321 321 321 321 320 319 318 319 319 318 317 316 315 314 314 314 315 313 311 307 303 297 292 290 289 290 287 286 286 287 284
298 298 297 299 302 303 304 304 306 309 309 315 317 320 320 320 320 319 319 317 317 317 315 313 311 305 302 301 300 301 301 297 296 293 291 289 287 284 285 285 283 280 280
296 296 296 296 298 300 301 300 300 304 307 314 317 316 317 319 315 314 313 310 312 309 308 306 304 298 294 293 294 294 294 294 294 293 291 289 285 286 285 280 279 279 278
294 294 294 294 294 296 298 299 299 299 300 302 302 304 308 306 309 309 306 306 301 307 303 301 296 295 293 292 294 295 294 294 293 292 288 286 284 279 279 279 278 278 277
293 293 292 292 293 294 295 296 296 297 299 299 299 300 300 301 301 301 297 297 297 297 296 296 296 293 294 291 291 291 291 291 290 289 284 279 279 279 278 278 277 276 276

GFSMW_850_thetae_120.txt.gz
Theta_e
315 315 319 321 323 323 322 317 318 318 325 328 332 333 332 331 331 333 332 326 326 327 327 329 327 328 328 326 324 322 323 324 323 323 322 323 323 323 322 322 319 319 318
315 319 320 321 323 326 322 322 324 326 329 328 332 331 331 331 332 333 328 324 325 325 326 330 326 328 328 327 326 322 323 324 324 323 322 322 322 323 322 322 320 319 319
320 320 322 322 323 325 328 328 329 330 328 331 329 331 330 331 333 330 324 327 327 327 327 326 327 327 327 326 326 323 321 323 324 323 321 322 322 322 322 322 321 321 320
321 321 321 322 322 326 328 329 330 324 327 329 330 331 331 332 332 326 323 328 328 328 329 326 326 325 326 326 326 323 319 322 323 323 322 321 321 322 322 322 321 321 320
321 319 319 320 321 324 323 329 330 323 329 332 332 333 333 332 328 322 326 329 327 327 326 325 324 325 326 326 325 323 321 322 322 323 323 322 323 322 322 321 321 321 321
318 318 318 319 320 322 324 324 325 328 330 332 334 333 333 331 326 327 329 327 328 325 326 325 325 325 325 326 325 324 321 321 322 322 322 322 322 322 322 321 321 321 321
318 318 319 319 321 323 323 324 324 329 331 332 332 331 330 328 325 329 327 327 327 325 326 326 325 324 325 326 325 323 321 320 321 321 322 321 321 320 321 320 322 321 321
317 317 319 320 322 324 326 325 326 326 328 327 332 331 329 326 327 327 329 327 327 326 325 326 325 325 325 325 324 325 322 317 319 321 322 321 321 321 320 320 321 320 319
317 317 317 319 320 321 323 326 326 325 326 328 330 331 329 327 330 328 327 327 327 327 326 325 326 325 323 324 325 323 322 318 315 319 321 321 321 321 321 318 317 316 317
314 316 316 318 318 318 320 325 327 325 325 327 328 330 329 327 326 326 326 327 327 326 327 326 325 326 324 324 323 322 323 322 313 315 319 320 321 319 320 319 318 316 317
312 315 316 316 316 318 318 322 325 324 324 325 325 328 328 327 324 326 325 325 325 327 327 326 325 325 325 324 322 323 324 324 315 311 314 317 314 316 320 319 318 317 317
312 315 315 316 316 317 317 319 323 323 324 323 324 327 328 326 324 324 324 324 324 324 324 324 325 326 324 326 324 322 321 322 321 319 310 312 310 315 319 319 318 316 316
311 313 315 316 316 316 316 316 319 323 323 323 323 326 326 326 323 323 323 324 324 322 323 323 323 324 323 323 325 323 322 319 318 323 319 310 309 313 317 313 318 314 315
309 313 316 317 316 315 315 315 317 320 322 323 323 325 324 323 324 323 323 323 322 322 323 324 324 324 324 324 324 325 324 323 321 320 322 314 311 314 316 316 315 314 315
309 314 317 318 317 314 314 314 315 317 320 323 323 324 323 323 323 322 323 322 321 322 323 324 323 324 323 323 324 323 324 323 321 319 320 316 313 320 317 314 315 316 317
314 317 316 315 313 311 312 314 313 314 318 321 322 323 322 322 322 322 322 321 321 321 321 321 322 322 322 322 323 323 322 321 319 320 318 318 319 319 317 316 317 318 318
315 314 313 311 310 310 311 312 313 314 317 320 322 322 322 321 321 322 322 321 321 321 322 321 321 321 321 320 322 322 322 320 318 319 320 319 317 317 317 317 317 317 316
311 310 309 308 307 306 307 311 313 313 316 319 321 323 322 320 321 321 321 321 321 321 321 321 320 320 320 320 320 321 320 320 320 317 317 318 318 317 318 317 316 313 310
307 307 306 304 304 304 308 308 313 312 316 318 320 322 322 320 320 321 321 321 320 321 320 320 320 320 320 319 320 319 319 317 316 315 316 317 317 314 314 313 312 307 302
303 303 302 301 301 304 306 307 311 313 314 318 320 321 323 320 319 321 321 321 321 320 319 319 319 320 319 318 318 319 319 317 316 313 311 310 310 306 303 304 303 301 294
300 299 299 300 302 303 304 306 308 307 312 316 319 321 321 319 319 320 321 321 320 320 318 318 317 318 318 317 317 317 318 318 315 311 306 302 300 298 296 295 293 293 288
297 297 297 299 300 301 302 303 306 306 312 315 315 319 321 319 319 320 320 320 319 319 318 317 316 314 314 314 314 315 315 315 314 306 298 293 292 290 286 288 291 291 289
294 295 296 297 298 298 299 300 302 304 305 308 314 318 319 319 318 319 319 318 317 317 315 315 313 310 306 306 307 310 311 308 306 299 293 289 289 290 290 290 288 285 283
292 292 292 294 295 296 296 296 298 300 301 307 307 309 311 316 316 317 317 316 315 314 314 312 310 306 301 300 298 299 297 295 295 292 293 292 291 290 288 284 281 280 280
290 290 291 290 292 294 294 295 295 297 300 301 300 302 305 306 301 305 308 311 308 309 307 304 305 301 296 293 295 297 296 296 295 294 290 288 288 286 281 279 279 279 278
288 289 290 289 289 291 292 293 294 295 297 299 299 301 300 299 300 299 298 299 302 303 300 298 296 296 294 293 292 293 294 293 290 290 288 285 279 278 279 279 278 278 278

GFSMW_850_thetae_123.txt.gz
Theta_e
315 316 317 320 322 323 325 325 325 323 322 326 332 336 338 337 336 338 335 336 335 333 333 332 331 331 328 329 327 326 323 325 326 324 323 322 322 322 321 321 320 320 320
317 317 319 321 323 324 326 329 329 329 329 328 332 335 336 335 336 336 333 332 333 332 329 329 328 328 329 327 327 326 324 323 325 324 323 322 322 322 322 321 320 320 318
317 319 321 322 324 326 330 331 330 330 332 332 334 335 334 333 334 334 331 331 332 330 329 327 327 329 328 328 327 327 323 322 323 323 323 323 323 322 321 322 321 320 319
320 320 320 321 323 325 330 332 332 332 333 333 334 332 332 331 332 334 332 332 332 327 328 328 328 328 329 329 327 327 323 323 323 323 323 322 322 323 323 322 320 321 320
320 319 319 320 321 324 325 329 332 333 333 332 334 332 331 331 332 332 331 333 329 328 329 329 329 328 329 326 327 326 326 321 324 323 323 322 322 322 322 323 321 320 320
319 319 319 320 321 324 326 326 328 330 331 333 330 332 330 334 334 334 332 329 329 329 329 329 328 327 327 325 325 326 326 318 323 323 323 322 323 323 323 322 322 321 321
319 319 319 320 321 323 325 328 327 328 330 331 331 332 332 333 334 333 328 329 329 328 327 327 325 326 325 325 325 325 325 318 324 323 323 324 322 324 324 323 322 322 322
319 318 318 319 320 321 322 325 327 328 328 327 330 332 332 333 333 333 331 331 329 327 327 325 327 325 324 324 325 324 325 321 322 322 323 324 323 323 323 322 323 322 322
318 317 317 318 319 318 319 322 326 327 328 327 327 331 331 332 332 331 328 330 330 328 326 326 325 327 324 324 323 323 324 322 321 320 322 323 323 321 321 322 322 322 322
313 314 316 317 317 317 319 321 322 326 327 327 326 328 330 331 331 330 330 329 329 329 327 328 326 326 325 324 323 323 324 322 320 321 321 322 323 321 322 321 322 322 320
308 312 315 316 317 317 319 319 320 322 325 325 325 325 328 329 330 330 329 329 330 328 327 326 327 326 326 324 322 322 323 322 322 321 320 321 323 322 321 322 321 319 318
307 308 314 315 317 318 318 318 318 319 321 325 325 324 327 329 329 328 327 328 328 327 326 327 326 326 325 325 324 323 322 323 322 320 321 320 322 322 322 321 319 319 319
308 307 311 314 316 317 317 317 317 316 318 323 324 324 326 329 328 327 326 325 325 325 327 325 325 326 325 325 325 324 323 323 318 321 321 319 320 320 320 320 319 318 318
307 308 309 314 316 318 317 316 314 315 315 320 323 324 325 328 327 326 324 324 323 324 324 324 325 325 326 325 324 324 323 321 320 322 321 319 320 318 318 316 316 316 317
308 310 313 316 318 317 315 314 312 313 314 317 323 323 324 327 326 324 323 323 323 323 323 323 323 323 323 325 324 324 324 324 323 323 322 320 319 317 316 314 317 312 315
308 312 316 315 315 314 313 312 311 313 312 314 320 322 323 326 324 324 323 322 323 323 322 324 324 323 324 323 323 322 323 322 322 323 321 320 320 320 318 314 312 317 317
314 314 314 313 312 311 310 309 308 311 312 313 315 321 322 324 324 324 323 323 322 322 322 322 322 322 322 322 322 321 323 322 320 322 322 321 319 318 319 314 314 316 316
313 312 312 310 309 308 305 307 307 308 312 312 314 319 322 324 324 323 323 322 321 321 322 321 321 322 321 321 321 322 322 321 319 319 318 317 317 316 316 314 315 315 314
309 308 307 306 305 302 301 306 306 308 311 312 313 318 322 324 323 323 323 322 321 321 321 322 320 321 320 320 320 321 321 320 317 316 315 315 316 315 315 316 316 313 310
303 302 303 302 300 300 303 305 306 306 311 313 313 317 321 324 322 323 322 322 321 321 320 321 321 320 320 320 319 320 319 317 316 312 311 311 313 314 313 314 314 312 304
300 299 299 298 296 299 301 304 303 303 307 311 314 315 319 322 322 322 321 321 321 321 320 320 320 319 319 319 316 316 318 318 314 312 309 306 306 307 306 306 305 306 298
298 298 298 297 294 296 300 301 300 301 304 307 313 314 315 319 322 320 321 321 321 320 319 318 317 315 315 314 314 315 315 315 316 311 305 301 300 299 299 299 296 294 292
296 296 296 296 294 292 298 297 297 300 300 301 310 309 313 318 321 320 320 320 319 319 317 316 315 311 308 308 309 311 313 311 311 305 298 294 293 291 290 292 292 290 287
294 293 293 293 292 290 293 294 296 298 298 298 301 303 307 306 314 318 319 318 317 316 316 314 312 308 304 305 304 305 305 303 303 297 293 289 289 291 291 290 289 288 284
291 290 290 289 290 288 291 293 295 295 296 298 299 300 302 302 301 307 307 309 310 313 316 311 309 307 299 296 297 298 298 298 296 294 292 290 290 289 288 285 282 280 279
287 287 286 286 286 286 287 291 292 293 293 295 296 297 300 299 300 297 296 297 300 302 305 305 305 299 298 290 292 294 294 293 291 290 288 287 288 286 280 279 279 279 279

GFSMW_850_thetae_126.txt.gz
Theta_e
317 317 317 318 319 320 321 320 318 318 319 321 330 335 338 331 335 334 337 340 338 335 335 335 335 334 333 332 330 328 326 325 326 325 323 324 322 321 320 321 321 320 319
317 316 316 319 322 323 324 324 327 328 327 327 323 328 333 338 336 335 335 336 339 336 335 337 334 332 331 331 329 329 327 326 325 325 323 324 322 321 321 321 321 320 320
315 317 320 321 323 324 327 329 331 331 330 329 329 327 333 338 337 336 334 333 336 337 335 334 333 331 329 329 328 330 328 326 325 325 323 323 322 322 321 320 320 320 319
318 320 321 321 323 325 326 329 332 333 332 331 331 332 332 335 336 335 333 332 338 336 336 334 332 332 332 330 329 328 327 327 324 326 323 322 322 322 322 321 319 321 319
319 320 320 320 321 323 324 326 325 333 333 334 333 335 334 334 335 332 331 331 332 335 335 334 330 328 328 327 330 328 326 327 323 324 324 322 322 321 322 322 319 322 320
320 319 320 320 321 324 325 328 328 327 328 331 332 334 334 333 331 330 330 330 332 332 334 330 328 329 328 328 328 327 328 327 325 323 324 323 322 322 322 321 320 321 320
319 319 319 320 321 322 322 322 327 327 328 326 329 330 333 331 330 332 333 331 331 331 332 329 330 329 329 328 328 327 327 327 325 321 324 323 322 322 322 321 321 320 321
319 319 319 318 319 319 319 321 321 328 329 328 327 328 330 331 331 335 332 332 332 330 330 329 330 331 328 327 325 327 326 325 326 321 323 323 322 324 323 322 321 321 321
319 318 317 317 318 317 319 320 321 322 327 327 326 327 328 332 332 334 333 331 330 329 328 328 328 327 325 325 323 325 325 325 325 321 323 320 322 324 323 323 323 321 322
315 315 315 316 317 317 318 319 320 321 321 325 326 325 328 331 333 333 333 331 329 329 329 327 326 325 326 325 323 324 324 325 325 323 320 322 325 322 323 323 323 322 321
309 310 312 314 316 317 318 319 319 318 319 319 324 325 325 328 332 333 331 331 329 329 328 327 327 326 325 326 325 323 324 324 325 322 321 322 322 324 322 322 322 322 321
308 308 308 312 314 317 318 318 318 317 316 316 319 324 324 324 328 331 331 330 330 328 328 328 327 326 326 325 325 323 323 323 323 322 324 322 321 321 322 322 321 321 322
308 308 308 308 313 315 319 318 316 315 314 314 316 322 324 325 326 329 331 330 330 327 329 328 326 326 326 325 324 324 322 322 323 323 322 321 320 319 321 320 320 320 321
307 307 309 309 317 319 317 316 316 315 313 313 315 320 323 324 325 328 329 329 328 326 325 326 325 325 326 325 326 325 324 322 322 323 322 321 320 317 321 319 317 318 320
307 307 309 316 316 315 315 314 314 313 312 312 314 316 322 324 325 327 328 328 326 324 324 326 327 327 326 325 324 325 324 323 322 322 322 323 317 319 319 316 315 318 319
308 309 316 315 314 313 312 311 311 310 309 311 313 314 319 323 324 326 328 326 324 323 323 323 323 324 324 324 324 324 323 324 323 321 322 320 316 321 321 319 319 320 318
312 314 313 312 311 310 309 308 308 306 307 308 312 313 316 321 323 324 326 325 323 323 322 322 322 322 324 324 324 323 323 322 322 321 322 318 319 321 322 321 320 318 315
311 310 309 308 308 307 306 305 305 304 305 307 310 312 315 318 323 324 325 324 323 324 322 322 323 323 323 323 322 322 322 322 322 321 321 320 320 321 321 321 319 317 315
305 304 304 304 303 302 301 302 302 300 304 307 310 313 313 317 321 323 325 324 323 323 322 321 321 321 321 321 320 321 321 321 320 317 316 319 319 320 319 319 318 315 314
301 301 301 300 299 297 298 299 300 300 302 305 309 312 313 315 319 318 324 324 323 322 321 322 321 320 320 318 318 319 320 320 317 314 313 314 317 316 316 315 316 314 310
299 299 299 299 297 295 295 298 299 297 300 304 306 311 313 314 314 316 323 324 322 321 321 321 321 319 319 317 316 316 318 318 316 314 311 310 312 314 314 310 312 311 307
297 297 297 297 296 294 292 294 297 295 297 301 304 309 310 312 314 315 323 323 322 321 320 319 319 318 317 316 315 315 316 316 315 312 309 307 306 306 306 306 305 303 297
294 294 294 294 293 292 289 290 294 292 296 299 301 305 307 307 311 314 322 322 320 320 319 318 317 314 312 312 310 311 312 312 312 309 305 302 302 302 300 298 295 293 293
291 290 290 290 289 288 288 289 290 292 294 296 298 299 300 304 306 306 302 320 320 318 319 317 315 312 309 308 307 307 306 304 305 300 299 298 297 296 294 291 287 286 287
288 287 286 286 286 285 287 288 289 291 292 294 295 295 297 299 301 302 299 301 316 314 319 317 316 314 308 304 304 305 302 301 301 296 291 291 290 289 286 285 286 288 286
285 285 284 284 284 284 285 286 287 289 289 292 293 293 294 295 296 299 299 295 300 305 305 309 310 304 304 300 299 300 300 296 293 292 290 289 288 287 286 286 285 282 281

GFSMW_850_thetae_129.txt.gz
Theta_e
321 322 321 321 319 320 320 319 319 319 320 328 334 333 332 331 330 332 335 337 339 339 338 337 337 336 335 333 332 331 330 326 326 326 327 324 324 323 322 321 321 319 314
319 318 317 319 318 319 318 321 321 322 326 327 325 326 332 331 328 329 331 335 336 337 338 337 337 336 335 334 331 331 330 326 325 325 325 324 322 322 321 321 320 320 318
314 317 319 321 322 322 321 321 321 322 321 325 330 328 326 334 333 335 335 336 334 334 336 336 335 335 333 333 331 329 329 328 326 325 323 323 323 321 321 321 321 321 319
316 318 320 321 322 323 322 322 323 321 327 332 330 330 329 327 330 331 330 334 333 333 334 335 334 334 333 332 330 329 328 328 326 325 324 322 322 321 321 321 321 321 320
320 320 321 323 324 324 323 321 319 324 330 333 333 331 331 331 329 331 335 333 331 332 331 336 333 331 331 331 329 326 328 327 328 326 325 322 323 322 321 321 320 320 320
317 319 320 322 323 323 323 321 326 328 328 327 329 333 333 334 335 334 335 333 331 331 330 333 332 332 330 331 327 327 329 329 328 326 325 322 323 322 321 321 320 319 319
319 319 320 320 320 320 320 320 318 324 328 329 328 326 331 334 333 332 330 328 329 329 330 331 331 330 330 328 329 326 326 327 327 327 326 324 322 322 321 320 320 320 320
319 319 320 319 319 318 318 319 319 318 326 327 328 326 327 329 331 330 329 330 329 329 329 329 330 329 329 328 329 327 327 328 328 326 325 325 322 322 321 321 320 320 321
319 318 318 317 319 317 318 319 318 316 316 321 324 324 325 326 328 330 330 332 332 331 330 329 329 328 327 328 328 329 327 328 325 327 325 325 324 323 322 321 320 319 321
317 316 317 317 317 317 317 318 317 316 314 315 318 320 323 325 326 328 332 330 333 331 329 329 328 327 327 328 329 329 325 326 326 325 324 325 324 323 323 322 321 321 320
312 312 314 314 316 316 317 318 318 317 314 314 314 317 320 323 324 326 332 331 333 330 329 328 328 327 328 329 326 325 324 324 324 324 324 324 323 323 323 324 322 322 319
308 308 307 312 314 317 318 318 318 316 314 313 313 313 317 321 323 324 326 331 332 330 329 328 327 327 326 325 325 325 324 323 322 324 324 324 323 323 321 324 323 323 321
307 307 308 313 317 318 317 317 316 316 315 314 313 313 314 320 323 323 324 327 331 331 330 329 326 327 327 325 325 325 325 324 323 323 324 323 323 322 321 323 324 323 322
307 308 316 316 316 316 315 315 314 313 312 313 312 312 313 316 322 323 324 325 329 330 330 329 328 326 325 325 325 325 324 324 323 323 324 324 324 321 321 323 323 322 322
311 314 314 313 313 313 313 312 311 310 311 311 311 310 312 314 317 323 324 325 327 330 330 328 327 325 324 325 325 325 325 325 324 322 323 323 323 322 323 323 321 322 321
311 310 309 309 309 309 310 310 309 308 310 309 309 309 311 312 315 320 324 325 325 328 328 327 325 325 325 325 324 324 325 324 324 323 322 323 323 323 323 321 320 321 319
306 306 305 305 306 307 308 309 308 307 307 307 307 308 309 312 314 318 322 324 325 328 327 324 324 324 325 324 324 324 324 323 323 323 323 322 323 323 322 320 319 319 319
303 305 304 303 303 305 306 306 306 305 304 304 305 307 308 311 313 315 319 323 325 326 324 323 323 322 322 322 322 323 323 323 323 323 321 320 322 322 321 319 317 320 316
301 301 300 300 300 300 301 301 302 301 299 300 302 305 307 310 312 314 318 319 324 325 324 323 322 322 322 323 323 322 322 322 322 321 321 319 319 321 320 318 320 318 318
298 298 298 298 297 297 297 297 297 299 300 301 302 304 306 308 311 313 315 318 321 324 324 322 322 322 322 321 320 320 320 321 321 320 319 314 315 318 319 317 319 319 316
296 296 295 295 294 294 294 294 294 296 298 301 303 305 305 306 309 311 313 316 317 323 323 323 321 321 320 319 318 319 320 320 320 317 313 310 310 313 314 316 317 316 313
293 293 292 292 291 290 290 291 293 295 296 298 301 304 302 303 308 309 311 314 315 318 323 322 320 320 319 318 317 317 316 318 318 315 311 309 308 310 311 311 314 314 312
290 289 289 289 289 289 289 289 291 292 294 297 298 299 298 301 305 306 308 308 311 307 321 320 319 318 317 317 315 315 313 314 313 312 309 308 303 304 306 308 308 306 303
287 286 286 286 286 287 288 288 289 290 292 294 294 295 295 298 302 302 302 304 303 305 309 319 318 317 316 315 314 311 308 307 309 309 306 303 302 302 303 299 297 296 295
285 284 284 285 285 286 286 287 288 289 290 291 291 292 293 295 296 298 298 299 301 302 298 312 319 318 316 313 313 312 308 306 308 306 299 298 298 297 294 292 291 291 291
285 285 284 284 285 284 284 284 286 287 287 288 289 289 291 292 292 292 294 296 298 301 298 297 305 309 309 307 305 305 304 303 303 301 297 293 291 292 291 289 287 288 289

GFSMW_850_thetae_132.txt.gz
Theta_e
315 313 316 318 320 321 321 322 325 330 333 333 334 332 331 330 331 334 331 329 334 336 337 339 335 336 335 335 332 332 331 329 326 325 324 321 324 325 323 322 321 321 319
313 313 314 319 321 321 321 323 324 325 328 332 332 332 331 328 328 332 334 331 331 332 335 336 336 335 335 334 334 332 331 330 328 326 326 325 324 324 323 322 322 321 319
313 314 316 320 320 320 320 321 321 323 325 327 328 328 327 327 329 333 335 334 332 334 333 334 334 335 336 334 333 332 332 331 329 327 325 324 323 324 323 322 322 321 319
312 316 318 323 323 323 324 324 324 322 322 325 327 330 330 329 328 327 325 329 332 330 333 332 334 334 335 336 334 333 331 330 328 327 325 324 324 323 322 322 322 321 320
317 319 321 319 322 323 323 322 321 319 317 321 331 333 332 329 328 329 329 328 329 328 332 333 333 334 334 335 334 332 332 330 327 327 326 324 323 323 322 321 321 320 321
317 317 319 324 324 323 321 320 317 316 315 325 328 327 327 331 332 332 332 330 330 332 331 330 331 334 334 333 333 331 331 330 328 327 327 326 324 322 322 321 321 321 321
315 321 323 323 322 320 319 316 313 314 324 326 328 328 326 325 328 332 332 332 331 333 333 331 331 332 332 332 331 330 330 329 324 327 327 327 325 322 322 321 320 321 321
316 320 322 321 320 319 317 315 315 314 322 324 325 324 323 324 327 328 332 331 329 329 328 329 329 330 332 330 329 329 328 325 326 327 326 326 327 324 322 321 320 320 320
319 321 321 319 318 317 317 317 316 314 312 313 315 318 320 320 324 325 327 329 330 329 329 328 328 329 329 329 329 327 326 326 326 326 326 327 327 325 322 321 320 320 320
317 318 318 318 318 317 317 317 316 315 315 313 313 313 313 317 320 324 325 326 329 330 330 331 329 328 328 328 328 326 325 326 326 326 326 326 325 326 323 322 321 320 320
311 308 316 317 317 317 318 318 317 317 315 314 313 313 313 313 318 321 323 324 327 331 329 331 329 328 327 328 327 326 326 326 326 326 324 326 324 325 324 322 321 321 320
308 314 312 318 318 317 317 317 317 316 315 314 313 313 312 313 315 319 322 323 325 328 328 331 329 328 327 326 326 326 326 326 326 326 327 326 324 324 324 322 322 321 320
306 308 313 315 315 315 315 315 314 311 310 311 311 311 311 311 312 316 320 321 322 325 327 330 329 329 327 327 326 327 326 327 326 323 323 323 323 324 323 323 322 322 320
310 312 312 310 310 310 310 310 310 308 307 308 308 310 310 310 311 313 316 320 321 324 325 328 330 329 327 326 326 325 324 325 324 324 323 323 322 324 324 324 323 323 322
306 306 306 307 307 307 307 307 307 307 307 308 307 307 309 310 310 312 313 318 322 324 325 327 329 330 328 326 325 325 324 325 324 323 323 321 322 323 323 323 323 323 323
304 303 303 304 305 305 305 305 306 306 306 307 307 308 308 309 309 310 312 315 321 323 324 326 329 329 328 325 324 324 325 325 325 325 324 323 323 323 322 323 322 322 321
301 300 300 300 301 301 301 302 303 305 306 306 306 307 307 308 308 309 312 313 318 322 324 325 327 329 327 324 324 324 324 324 323 324 324 324 323 322 323 323 323 321 321
298 297 297 296 296 297 299 300 302 302 303 303 304 304 305 307 307 308 311 313 316 320 323 324 325 327 325 323 324 325 325 324 323 324 323 323 323 322 322 322 321 322 321
296 296 296 296 297 299 299 299 300 299 300 301 302 302 304 306 306 307 311 313 314 319 319 322 324 325 324 323 323 322 322 323 323 323 323 323 322 322 321 321 320 321 320
295 295 295 295 295 295 295 296 297 297 298 299 300 300 302 304 305 306 310 311 312 315 318 321 324 325 323 322 321 321 321 322 323 323 322 322 321 320 320 318 321 320 319
293 293 293 293 294 294 294 294 294 295 296 297 298 300 299 301 303 305 308 310 310 312 316 317 317 323 323 322 321 321 322 321 321 321 321 320 319 318 315 315 319 319 317
291 290 291 290 289 290 292 293 294 293 294 294 296 295 294 298 301 304 307 309 307 310 312 313 315 320 321 321 321 321 320 319 319 319 318 316 316 312 310 311 313 317 318
288 288 288 289 288 287 287 288 289 291 292 291 291 291 294 297 299 303 306 305 303 305 306 307 312 307 319 320 320 318 318 318 317 315 315 315 311 308 306 306 307 309 309
287 286 287 287 287 287 286 285 284 286 287 287 288 291 293 295 296 299 301 301 300 301 301 303 303 304 304 317 318 318 316 313 311 311 311 310 305 304 306 306 305 305 304
285 285 284 284 284 283 284 284 285 286 287 287 288 289 290 291 292 294 295 296 297 297 298 299 301 303 298 308 315 318 316 314 311 310 306 302 300 301 301 299 299 299 299
284 284 284 284 284 284 284 284 284 284 285 286 286 287 287 288 290 290 291 292 294 295 296 297 299 300 300 296 296 309 313 310 309 305 302 299 297 298 297 295 294 293 294